[[{"header":{"parameterUnit":"m.s-1","parameterCategory":1,"la1":31.0,"la2":29.5877,"lo1":-88.7671,"lo2":-86.6584,"dy":0.0162,"dx":0.0185,"nx":115,"ny":88,"refTime":"2023-09-04T12:00:00:Z","depth":0,"parameterNumber":2,"parameterNumberName":"U-component_of_WINDS"},"data":[0.0,0.0,0.0,0.0,0.0,0.0,0.0,0.0,0.0,0.0,0.0,0.0,0.0,0.0,0.0,0.0,0.0,0.0,0.0,0.0,0.0,0.0,0.0,0.0,0.0,0.0,0.0,0.0,0.0,0.0,0.0,0.0,0.0,0.0,0.0,0.0,0.0,0.0,0.0,0.0,0.0,0.0,0.0,0.0,0.0,0.0,0.0,0.0,0.0,0.0,0.0,0.0,0.0,0.0,0.0,0.0,0.0,0.0,0.0,0.0,0.0,0.0,0.0,0.0,0.0,0.0,0.0,0.0,0.0,0.0,0.0,0.0,0.0,0.0,0.0,0.0,0.0,0.0,0.0,0.0,0.0,0.0,0.0,0.0,0.0,0.0,0.0,0.0,0.0,0.0,0.0,0.0,0.0,0.0,0.0,0.0,0.0,0.0,0.0,0.0,0.0,0.0,0.0,0.0,0.0,0.0,0.0,0.0,0.0,0.0,0.0,0.0,0.0,0.0,0.0,0.0,0.0,0.0,0.0,0.0,0.0,0.0,0.0,0.0,0.0,0.0,0.0,0.0,0.0,0.0,0.0,0.0,0.0,0.0,0.0,0.0,0.0,0.0,0.0,0.0,0.0,0.0,0.0,0.0,0.0,0.0,0.0,0.0,0.0,0.0,0.0,0.0,0.0,0.0,0.0,0.0,0.0,0.0,0.0,0.0,0.0,0.0,0.0,0.0,0.0,0.0,0.0,0.0,0.0,0.0,0.0,0.0,0.0,0.0,0.0,0.0,0.0,0.0,0.0,0.0,0.0,0.0,0.0,0.0,0.0,0.0,0.0,0.0,0.0,0.0,0.0,0.0,0.0,0.0,0.0,0.0,0.0,0.0,0.0,0.0,0.0,0.0,0.0,0.0,0.0,0.0,0.0,0.0,0.0,0.0,0.0,0.0,0.0,0.0,0.0,0.0,0.0,0.0,0.0,0.0,0.0,0.0,0.0,0.0,0.0,0.0,0.0,0.0,0.0,0.0,0.0,0.0,0.0,0.0,0.0,0.0,0.0,0.0,0.0,0.0,0.0,0.0,0.0,0.0,0.0,0.0,0.0,0.0,0.0,0.0,0.0,0.0,0.0,0.0,0.0,0.0,0.0,0.0,0.0,0.0,0.0,0.0,0.0,0.0,0.0,0.0,0.0,0.0,0.0,0.0,0.0,0.0,0.0,0.0,0.0,0.0,0.0,0.0,0.0,0.0,0.0,0.0,0.0,0.0,0.0,0.0,0.0,0.0,0.0,0.0,0.0,0.0,0.0,0.0,0.0,0.0,0.0,0.0,0.0,0.0,0.0,0.0,0.0,0.0,0.0,0.0,0.0,0.0,0.0,0.0,0.0,0.0,0.0,0.0,0.0,0.0,0.0,0.0,0.0,0.0,0.0,0.0,0.0,0.0,0.0,0.0,0.0,0.0,0.0,0.0,0.0,0.0,0.0,0.0,0.0,0.0,0.0,0.0,0.0,0.0,0.0,0.0,0.0,0.0,0.0,0.0,0.0,0.0,0.0,0.0,0.0,0.0,0.0,0.0,0.0,0.0,0.0,0.0,0.0,0.0,0.0,0.0,0.0,0.0,0.0,0.0,0.0,0.0,0.0,0.0,0.0,0.0,0.0,0.0,0.0,0.0,0.0,0.0,0.0,0.0,0.0,0.0,0.0,0.0,0.0,0.0,0.0,0.0,0.0,0.0,0.0,0.0,0.0,0.0,0.0,0.0,0.0,0.0,0.0,0.0,0.0,0.0,0.0,0.0,0.0,0.0,0.0,0.0,0.0,0.0,0.0,0.0,0.0,0.0,0.0,0.0,0.0,0.0,0.0,0.0,0.0,0.0,0.0,0.0,0.0,0.0,0.0,0.0,0.0,0.0,0.0,0.0,0.0,0.0,0.0,0.0,0.0,0.0,0.0,0.0,0.0,0.0,0.0,0.0,0.0,0.0,0.0,0.0,0.0,0.0,0.0,0.0,0.0,0.0,0.0,0.0,0.0,0.0,0.0,0.0,0.0,0.0,0.0,0.0,0.0,0.0,0.0,0.0,0.0,0.0,0.0,0.0,0.0,0.0,0.0,0.0,0.0,0.0,0.0,0.0,0.0,0.0,0.0,0.0,0.0,0.0,0.0,0.0,0.0,0.0,0.0,0.0,0.0,0.0,0.0,0.0,0.0,0.0,0.0,0.0,0.0,0.0,0.0,0.0,0.0,0.0,0.0,0.0,0.0,0.0,0.0,0.0,0.0,0.0,0.0,0.0,0.0,0.0,0.0,0.0,0.0,0.0,0.0,0.0,0.0,0.0,0.0,0.0,0.0,0.0,0.0,0.0,0.0,0.0,0.0,0.0,0.0,0.0,0.0,0.0,0.0,0.0,0.0,0.0,0.0,0.0,0.0,0.0,0.0,0.0,0.0,0.0,0.0,0.0,0.0,0.0,0.0,0.0,0.0,0.0,0.0,0.0,0.0,0.0,0.0,0.0,0.0,0.0,0.0,0.0,0.0,0.0,0.0,0.0,0.0,0.0,0.0,0.0,0.0,0.0,0.0,0.0,0.0,0.0,0.0,0.0,0.0,0.0,0.0,0.0,0.0,0.0,0.0,0.0,0.0,0.0,0.0,0.0,0.0,0.0,0.0,0.0,0.0,0.0,0.0,0.0,0.0,0.0,0.0,0.0,0.0,0.0,0.0,0.0,0.0,0.0,0.0,0.0,0.0,0.0,0.0,0.0,0.0,0.0,0.0,0.0,0.0,0.0,0.0,0.0,0.0,0.0,0.0,0.0,0.0,0.0,0.0,0.0,0.0,0.0,0.0,0.0,0.0,0.0,0.0,0.0,0.0,0.0,0.0,0.0,0.0,0.0,0.0,0.0,0.0,0.0,0.0,0.0,0.0,0.0,0.0,0.0,0.0,0.0,0.0,0.0,0.0,0.0,0.0,0.0,0.0,0.0,0.0,0.0,0.0,0.0,0.0,0.0,0.0,0.0,0.0,0.0,0.0,0.0,0.0,0.0,0.0,0.0,0.0,0.0,0.0,0.0,0.0,0.0,0.0,0.0,0.0,0.0,0.0,0.0,0.0,0.0,0.0,0.0,0.0,0.0,0.0,0.0,0.0,0.0,0.0,0.0,0.0,0.0,0.0,0.0,0.0,0.0,0.0,0.0,0.0,0.0,0.0,0.0,0.0,0.0,0.0,0.0,0.0,0.0,0.0,0.0,0.0,0.0,0.0,0.0,0.0,0.0,0.0,0.0,0.0,0.0,0.0,0.0,0.0,0.0,0.0,0.0,0.0,0.0,0.0,0.0,0.0,0.0,0.0,0.0,0.0,0.0,0.0,0.0,0.0,0.0,0.0,0.0,0.0,0.0,0.0,0.0,0.0,0.0,0.0,0.0,0.0,0.0,0.0,0.0,0.0,0.0,0.0,0.0,0.0,0.0,0.0,0.0,0.0,0.0,0.0,0.0,0.0,0.0,0.0,0.0,0.0,0.0,0.0,0.0,0.0,0.0,0.0,0.0,0.0,0.0,0.0,0.0,0.0,0.0,0.0,0.0,0.0,0.0,0.0,0.0,0.0,0.0,0.0,0.0,0.0,0.0,0.0,0.0,0.0,0.0,0.0,0.0,0.0,0.0,0.0,0.0,0.0,0.0,0.0,0.0,0.0,0.0,0.0,0.0,0.0,0.0,0.0,0.0,0.0,0.0,0.0,0.0,0.0,0.0,0.0,0.0,0.0,0.0,0.0,0.0,0.0,0.0,0.0,0.0,0.0,0.0,0.0,0.0,0.0,0.0,0.0,0.0,0.0,0.0,0.0,0.0,0.0,0.0,0.0,0.0,0.0,0.0,0.0,0.0,0.0,0.0,0.0,0.0,0.0,0.0,0.0,0.0,0.0,0.0,0.0,0.0,0.0,0.0,0.0,0.0,0.0,0.0,0.0,0.0,0.0,0.0,0.0,0.0,0.0,0.0,0.0,0.0,0.0,0.0,0.0,0.0,0.0,0.0,0.0,0.0,0.0,0.0,0.0,0.0,0.0,0.0,0.0,0.0,0.0,0.0,0.0,0.0,0.0,0.0,0.0,0.0,0.0,0.0,0.0,0.0,0.0,0.0,0.0,0.0,0.0,0.0,0.0,0.0,0.0,0.0,0.0,0.0,0.0,0.0,0.0,0.0,0.0,0.0,0.0,0.0,0.0,0.0,0.0,0.0,0.0,0.0,0.0,0.0,0.0,0.0,0.0,0.0,0.0,0.0,-0.7607,0.0,0.0,0.0,0.0,0.0,0.0,0.0,0.0,0.0,0.0,0.0,0.0,0.0,0.0,0.0,0.0,0.0,0.0,0.0,0.0,0.0,0.0,0.0,0.0,0.0,0.0,0.0,0.0,0.0,0.0,0.0,0.0,0.0,0.0,0.0,0.0,0.0,0.0,0.0,0.0,0.0,0.0,0.0,0.0,0.0,0.0,0.0,0.0,0.0,0.0,0.0,0.0,0.0,0.0,0.0,0.0,0.0,0.0,0.0,0.0,0.0,0.0,0.0,0.0,0.0,0.0,0.0,0.0,0.0,0.0,0.0,0.0,0.0,0.0,0.0,0.0,0.0,0.0,0.0,0.0,0.0,0.0,0.0,0.0,0.0,0.0,0.0,0.0,0.0,0.0,0.0,0.0,0.0,0.0,0.0,0.0,0.0,0.0,0.0,0.0,0.0,0.0,0.0,0.0,0.0,0.0,0.0,0.0,0.0,0.0,-0.872,-0.862,-0.7411,-0.693,-0.7343,0.0,0.0,0.0,0.0,0.0,0.0,0.0,0.0,0.0,0.0,0.0,0.0,0.0,0.0,0.0,0.0,0.0,0.0,0.0,0.0,0.0,0.0,0.0,0.0,0.0,0.0,0.0,0.0,0.0,0.0,0.0,0.0,0.0,0.0,0.0,0.0,0.0,0.0,0.0,0.0,0.0,0.0,0.0,0.0,0.0,0.0,0.0,0.0,0.0,0.0,0.0,0.0,0.0,0.0,0.0,0.0,0.0,0.0,0.0,0.0,0.0,0.0,0.0,0.0,0.0,0.0,0.0,0.0,0.0,0.0,0.0,0.0,0.0,0.0,0.0,0.0,0.0,0.0,0.0,0.0,0.0,0.0,0.0,0.0,0.0,0.0,0.0,0.0,0.0,0.0,0.0,0.0,0.0,0.0,0.0,0.0,0.0,0.0,0.0,0.0,0.0,0.0,0.0,0.0,0.0,0.0,0.0,0.0,0.0,0.0,0.0,0.0,-0.7153,-0.6652,-0.7263,0.0,0.0,0.0,0.0,0.0,0.0,0.0,0.0,0.0,0.0,0.0,0.0,0.0,0.0,0.0,0.0,0.0,0.0,0.0,0.0,0.0,0.0,0.0,0.0,0.0,0.0,0.0,0.0,0.0,0.0,0.0,0.0,0.0,0.0,0.0,0.0,0.0,0.0,0.0,0.0,0.0,0.0,0.0,0.0,0.0,0.0,0.0,0.0,0.0,0.0,0.0,0.0,0.0,0.0,0.0,0.0,0.0,0.0,0.0,0.0,0.0,0.0,0.0,0.0,0.0,0.0,0.0,0.0,0.0,0.0,0.0,0.0,0.0,0.0,0.0,0.0,0.0,0.0,0.0,0.0,0.0,0.0,0.0,0.0,0.0,0.0,0.0,0.0,0.0,0.0,0.0,0.0,0.0,0.0,0.0,0.0,0.0,0.0,0.0,0.0,0.0,0.0,0.0,0.0,0.0,0.0,0.0,0.0,0.0,0.0,-0.8581,-0.848,-0.7661,0.0,-0.7264,0.0,0.0,0.0,0.0,0.0,0.0,0.0,0.0,0.0,0.0,0.0,0.0,0.0,0.0,0.0,0.0,0.0,0.0,0.0,0.0,0.0,0.0,0.0,0.0,0.0,0.0,0.0,0.0,0.0,0.0,0.0,0.0,0.0,0.0,0.0,0.0,0.0,0.0,0.0,0.0,0.0,0.0,0.0,0.0,0.0,0.0,0.0,0.0,0.0,0.0,0.0,0.0,0.0,0.0,0.0,0.0,0.0,0.0,0.0,0.0,0.0,0.0,0.0,0.0,0.0,0.0,0.0,0.0,0.0,0.0,0.0,0.0,0.0,0.0,0.0,0.0,0.0,0.0,0.0,0.0,0.0,0.0,0.0,0.0,0.0,0.0,0.0,0.0,0.0,0.0,0.0,0.0,0.0,0.0,0.0,0.0,0.0,0.0,0.0,0.0,0.0,0.0,0.0,0.0,0.0,0.0,0.0,0.0,0.0,0.0,-0.9225,-0.9147,-0.8364,-0.7703,0.0,0.0,0.0,0.0,0.0,0.0,0.0,0.0,0.0,0.0,0.0,0.0,0.0,0.0,0.0,0.0,0.0,0.0,0.0,0.0,0.0,0.0,0.0,0.0,0.0,0.0,0.0,0.0,0.0,0.0,0.0,0.0,0.0,0.0,0.0,0.0,0.0,0.0,0.0,0.0,0.0,0.0,0.0,0.0,0.0,0.0,0.0,0.0,0.0,0.0,0.0,0.0,0.0,0.0,0.0,0.0,0.0,0.0,0.0,0.0,0.0,0.0,0.0,0.0,0.0,0.0,0.0,0.0,0.0,0.0,0.0,0.0,0.0,0.0,0.0,0.0,0.0,0.0,0.0,0.0,0.0,0.0,0.0,0.0,0.0,0.0,0.0,0.0,0.0,0.0,0.0,0.0,0.0,0.0,0.0,0.0,0.0,0.0,0.0,0.0,0.0,0.0,0.0,0.0,0.0,0.0,0.0,0.0,0.0,0.0,-0.9669,-0.965,-0.9547,-0.899,-0.8285,-0.744,0.0,0.0,0.0,0.0,0.0,0.0,0.0,0.0,0.0,0.0,0.0,0.0,0.0,0.0,0.0,0.0,0.0,0.0,0.0,0.0,0.0,0.0,0.0,0.0,0.0,0.0,0.0,0.0,0.0,0.0,0.0,0.0,0.0,0.0,0.0,0.0,0.0,0.0,0.0,0.0,0.0,0.0,0.0,0.0,0.0,0.0,0.0,0.0,0.0,0.0,0.0,0.0,0.0,0.0,0.0,0.0,0.0,0.0,0.0,0.0,0.0,0.0,0.0,0.0,0.0,0.0,0.0,0.0,0.0,0.0,0.0,0.0,0.0,0.0,0.0,0.0,0.0,0.0,0.0,0.0,0.0,0.0,0.0,0.0,0.0,0.0,0.0,0.0,0.0,0.0,0.0,0.0,0.0,0.0,0.0,0.0,0.0,0.0,0.0,0.0,0.0,0.0,0.0,0.0,0.0,0.0,0.0,0.0,-0.9613,-0.9609,-0.9573,-0.9497,-0.9403,-0.898,0.0,0.0,0.0,0.0,0.0,0.0,0.0,0.0,0.0,0.0,0.0,0.0,0.0,0.0,0.0,0.0,0.0,0.0,0.0,0.0,0.0,0.0,0.0,0.0,0.0,0.0,0.0,0.0,0.0,0.0,0.0,0.0,0.0,0.0,0.0,0.0,0.0,0.0,0.0,0.0,0.0,0.0,0.0,0.0,0.0,0.0,0.0,0.0,0.0,0.0,0.0,0.0,0.0,0.0,0.0,0.0,0.0,0.0,0.0,0.0,0.0,0.0,0.0,0.0,0.0,0.0,0.0,0.0,0.0,0.0,0.0,0.0,0.0,0.0,0.0,0.0,0.0,0.0,0.0,0.0,0.0,0.0,0.0,0.0,0.0,0.0,0.0,0.0,0.0,0.0,0.0,0.0,0.0,0.0,0.0,0.0,0.0,0.0,0.0,0.0,0.0,0.0,0.0,0.0,0.0,0.0,0.0,0.0,0.0,-1.0253,-1.0207,-0.9931,-0.9407,-0.9766,-0.9618,0.0,0.0,0.0,0.0,0.0,0.0,0.0,0.0,0.0,0.0,0.0,0.0,0.0,0.0,0.0,0.0,0.0,0.0,0.0,0.0,0.0,0.0,0.0,0.0,0.0,0.0,0.0,0.0,0.0,0.0,0.0,0.0,0.0,0.0,0.0,0.0,0.0,0.0,0.0,0.0,0.0,0.0,0.0,0.0,0.0,0.0,0.0,0.0,0.0,0.0,0.0,0.0,0.0,0.0,0.0,0.0,0.0,0.0,0.0,0.0,0.0,0.0,0.0,0.0,0.0,0.0,0.0,0.0,0.0,0.0,0.0,0.0,0.0,0.0,0.0,0.0,0.0,0.0,0.0,0.0,0.0,0.0,0.0,0.0,0.0,0.0,0.0,0.0,0.0,0.0,0.0,0.0,0.0,0.0,0.0,0.0,0.0,0.0,0.0,0.0,0.0,0.0,0.0,0.0,0.0,0.0,0.0,0.0,0.0,-1.0537,0.0,-1.0156,-0.9632,-1.0011,-0.999,0.0,0.0,0.0,0.0,0.0,0.0,0.0,0.0,0.0,0.0,0.0,0.0,0.0,0.0,0.0,0.0,0.0,0.0,0.0,0.0,0.0,0.0,0.0,0.0,0.0,0.0,0.0,0.0,0.0,0.0,0.0,0.0,0.0,0.0,0.0,0.0,0.0,0.0,0.0,0.0,0.0,0.0,0.0,0.0,0.0,0.0,0.0,0.0,0.0,0.0,0.0,0.0,0.0,0.0,0.0,0.0,0.0,0.0,0.0,0.0,0.0,0.0,0.0,0.0,0.0,0.0,0.0,0.0,0.0,0.0,0.0,0.0,0.0,0.0,0.0,0.0,0.0,0.0,0.0,0.0,0.0,0.0,0.0,0.0,0.0,0.0,0.0,0.0,0.0,0.0,0.0,0.0,0.0,0.0,0.0,0.0,0.0,0.0,0.0,0.0,0.0,0.0,0.0,0.0,0.0,0.0,0.0,0.0,-1.0531,-1.0439,-1.0395,-1.0354,-1.0208,-1.0178,-1.0085,0.0,0.0,0.0,0.0,0.0,0.0,0.0,0.0,0.0,0.0,0.0,0.0,0.0,0.0,0.0,0.0,0.0,0.0,0.0,0.0,0.0,0.0,0.0,0.0,0.0,0.0,0.0,0.0,0.0,0.0,0.0,0.0,0.0,0.0,0.0,0.0,0.0,0.0,0.0,0.0,0.0,0.0,0.0,0.0,0.0,0.0,0.0,0.0,0.0,0.0,0.0,0.0,0.0,0.0,0.0,0.0,0.0,0.0,0.0,0.0,0.0,0.0,0.0,0.0,0.0,0.0,0.0,0.0,0.0,0.0,0.0,0.0,0.0,0.0,0.0,0.0,0.0,0.0,0.0,0.0,0.0,0.0,0.0,0.0,0.0,0.0,0.0,0.0,0.0,0.0,0.0,0.0,0.0,0.0,0.0,0.0,0.0,0.0,0.0,0.0,0.0,0.0,0.0,0.0,0.0,0.0,0.0,0.0,0.0,-1.1846,-1.174,-1.1393,-1.0795,-1.0679,-1.0624,0.0,0.0,0.0,0.0,0.0,0.0,0.0,0.0,0.0,0.0,0.0,0.0,0.0,0.0,0.0,0.0,0.0,0.0,0.0,0.0,0.0,0.0,0.0,0.0,0.0,0.0,0.0,0.0,0.0,0.0,0.0,0.0,0.0,0.0,0.0,0.0,0.0,0.0,0.0,0.0,0.0,0.0,0.0,0.0,0.0,0.0,0.0,0.0,0.0,0.0,0.0,0.0,0.0,0.0,0.0,0.0,0.0,0.0,0.0,0.0,0.0,0.0,0.0,0.0,0.0,0.0,0.0,0.0,0.0,0.0,0.0,0.0,0.0,0.0,0.0,0.0,0.0,0.0,0.0,0.0,0.0,0.0,0.0,0.0,0.0,0.0,0.0,0.0,0.0,0.0,0.0,0.0,0.0,0.0,0.0,0.0,0.0,0.0,0.0,0.0,0.0,0.0,0.0,0.0,0.0,0.0,0.0,0.0,0.0,-1.2707,-1.2374,-1.1902,-1.1304,-1.1225,-1.1047,-1.0756,0.0,0.0,0.0,0.0,0.0,0.0,0.0,0.0,0.0,0.0,0.0,0.0,0.0,0.0,0.0,0.0,0.0,0.0,0.0,0.0,0.0,0.0,0.0,0.0,0.0,0.0,0.0,0.0,0.0,0.0,0.0,0.0,0.0,0.0,0.0,0.0,0.0,0.0,0.0,0.0,0.0,0.0,0.0,0.0,0.0,0.0,0.0,0.0,0.0,0.0,0.0,0.0,0.0,0.0,0.0,0.0,0.0,0.0,0.0,0.0,0.0,0.0,0.0,0.0,0.0,0.0,0.0,0.0,0.0,0.0,0.0,0.0,0.0,0.0,0.0,0.0,0.0,0.0,0.0,0.0,0.0,0.0,0.0,0.0,0.0,0.0,0.0,0.0,0.0,0.0,0.0,0.0,0.0,0.0,0.0,0.0,0.0,0.0,0.0,0.0,0.0,0.0,0.0,0.0,0.0,0.0,0.0,0.0,-1.3306,-1.2546,-1.2066,-1.1823,-1.1723,-1.1357,0.0,0.0,0.0,0.0,0.0,0.0,0.0,0.0,0.0,0.0,0.0,0.0,0.0,0.0,0.0,0.0,0.0,0.0,0.0,0.0,0.0,0.0,0.0,0.0,0.0,0.0,0.0,0.0,0.0,0.0,0.0,0.0,0.0,0.0,0.0,0.0,0.0,0.0,0.0,0.0,0.0,0.0,0.0,0.0,0.0,0.0,0.0,0.0,0.0,0.0,0.0,0.0,0.0,0.0,0.0,0.0,0.0,0.0,0.0,0.0,0.0,0.0,0.0,0.0,0.0,0.0,0.0,0.0,0.0,0.0,0.0,0.0,0.0,0.0,0.0,0.0,0.0,0.0,0.0,0.0,0.0,0.0,0.0,0.0,0.0,0.0,0.0,0.0,0.0,0.0,0.0,0.0,0.0,0.0,0.0,0.0,0.0,0.0,0.0,0.0,0.0,0.0,0.0,0.0,0.0,0.0,0.0,0.0,0.0,-1.5922,-1.4637,-1.3419,-1.2358,-1.1727,-1.1291,0.0,0.0,0.0,0.0,0.0,0.0,0.0,0.0,0.0,0.0,0.0,0.0,0.0,0.0,0.0,0.0,0.0,0.0,0.0,0.0,0.0,0.0,0.0,0.0,0.0,0.0,0.0,0.0,0.0,0.0,0.0,0.0,0.0,0.0,0.0,0.0,0.0,0.0,0.0,0.0,0.0,0.0,0.0,0.0,0.0,0.0,0.0,0.0,0.0,0.0,0.0,0.0,0.0,0.0,0.0,0.0,0.0,0.0,0.0,0.0,0.0,0.0,0.0,0.0,0.0,0.0,0.0,0.0,0.0,0.0,0.0,0.0,0.0,0.0,0.0,0.0,0.0,0.0,0.0,0.0,0.0,0.0,0.0,0.0,0.0,0.0,0.0,0.0,0.0,0.0,0.0,0.0,0.0,0.0,0.0,0.0,0.0,0.0,0.0,0.0,0.0,0.0,0.0,0.0,0.0,0.0,0.0,0.0,-1.5971,-1.5959,-1.5224,-1.4163,-1.2706,-1.1979,-1.1549,0.0,0.0,0.0,0.0,0.0,0.0,0.0,0.0,0.0,0.0,0.0,0.0,0.0,0.0,0.0,0.0,0.0,0.0,0.0,0.0,0.0,0.0,0.0,0.0,0.0,0.0,0.0,0.0,0.0,0.0,0.0,0.0,0.0,0.0,0.0,0.0,0.0,0.0,0.0,0.0,0.0,0.0,0.0,0.0,0.0,0.0,0.0,0.0,0.0,0.0,0.0,0.0,0.0,0.0,0.0,0.0,0.0,0.0,0.0,0.0,0.0,0.0,0.0,0.0,0.0,0.0,0.0,0.0,0.0,0.0,0.0,0.0,0.0,0.0,0.0,0.0,0.0,0.0,0.0,0.0,0.0,0.0,0.0,0.0,0.0,0.0,0.0,0.0,0.0,0.0,0.0,0.0,0.0,0.0,0.0,0.0,0.0,0.0,0.0,0.0,0.0,0.0,0.0,0.0,0.0,0.0,0.0,0.0,-1.5622,-1.4936,-1.5201,-1.461,-1.3036,-1.2441,-1.2031,0.0,0.0,0.0,0.0,0.0,0.0,0.0,0.0,0.0,0.0,0.0,0.0,0.0,0.0,0.0,0.0,0.0,0.0,0.0,0.0,0.0,0.0,0.0,0.0,0.0,0.0,0.0,0.0,0.0,0.0,0.0,0.0,0.0,0.0,0.0,0.0,0.0,0.0,0.0,0.0,0.0,0.0,0.0,0.0,0.0,0.0,0.0,0.0,0.0,0.0,0.0,0.0,0.0,0.0,0.0,0.0,0.0,0.0,0.0,0.0,0.0,0.0,0.0,0.0,0.0,0.0,0.0,0.0,0.0,0.0,0.0,0.0,0.0,0.0,0.0,0.0,0.0,0.0,0.0,0.0,0.0,0.0,0.0,0.0,0.0,0.0,0.0,0.0,0.0,0.0,0.0,0.0,0.0,0.0,0.0,0.0,0.0,0.0,0.0,0.0,0.0,0.0,0.0,0.0,0.0,0.0,0.0,0.0,-1.7333,-1.7535,-1.6904,-1.5553,-1.3498,-1.3337,-1.2704,0.0,0.0,0.0,0.0,0.0,0.0,0.0,0.0,0.0,0.0,0.0,0.0,0.0,0.0,0.0,0.0,0.0,0.0,0.0,0.0,0.0,0.0,0.0,0.0,0.0,0.0,0.0,0.0,0.0,0.0,0.0,0.0,0.0,0.0,0.0,0.0,0.0,0.0,0.0,0.0,0.0,0.0,0.0,0.0,0.0,0.0,0.0,0.0,-1.2011,0.0,0.0,0.0,0.0,0.0,0.0,0.0,0.0,0.0,0.0,0.0,0.0,0.0,0.0,0.0,0.0,0.0,0.0,0.0,0.0,0.0,0.0,0.0,0.0,0.0,0.0,0.0,0.0,0.0,0.0,0.0,0.0,0.0,0.0,0.0,0.0,0.0,0.0,0.0,0.0,0.0,0.0,0.0,0.0,0.0,0.0,0.0,0.0,0.0,0.0,0.0,0.0,0.0,0.0,0.0,0.0,0.0,0.0,0.0,-1.7436,-1.767,-1.7631,-1.644,-1.4083,-1.4108,-1.3422,0.0,0.0,0.0,0.0,0.0,0.0,0.0,0.0,0.0,0.0,0.0,0.0,0.0,0.0,0.0,0.0,0.0,0.0,0.0,0.0,0.0,0.0,0.0,0.0,0.0,0.0,0.0,0.0,0.0,0.0,0.0,0.0,0.0,0.0,0.0,0.0,0.0,0.0,0.0,0.0,0.0,0.0,0.0,0.0,0.0,0.0,0.0,0.0,0.0,0.0,0.0,0.0,0.0,0.0,0.0,0.0,0.0,0.0,0.0,0.0,0.0,0.0,0.0,0.0,0.0,0.0,0.0,0.0,0.0,0.0,0.0,0.0,0.0,0.0,0.0,0.0,0.0,0.0,0.0,0.0,0.0,0.0,0.0,0.0,0.0,0.0,0.0,0.0,0.0,0.0,0.0,0.0,0.0,0.0,0.0,0.0,0.0,0.0,0.0,0.0,0.0,0.0,0.0,0.0,0.0,0.0,0.0,-1.7257,-1.7121,-1.7195,-1.7948,-1.7082,-1.4501,-1.4725,-1.4009,-1.216,0.0,0.0,0.0,0.0,0.0,0.0,0.0,0.0,0.0,0.0,0.0,0.0,0.0,0.0,0.0,0.0,0.0,0.0,0.0,0.0,0.0,0.0,0.0,0.0,0.0,0.0,0.0,0.0,0.0,0.0,0.0,0.0,0.0,0.0,0.0,0.0,0.0,0.0,-0.9708,-0.9698,0.0,0.0,0.0,0.0,0.0,0.0,0.0,0.0,-1.387,0.0,0.0,0.0,0.0,0.0,0.0,0.0,0.0,0.0,0.0,0.0,0.0,0.0,0.0,0.0,0.0,0.0,0.0,0.0,0.0,0.0,0.0,0.0,0.0,0.0,0.0,0.0,0.0,0.0,0.0,0.0,0.0,0.0,0.0,0.0,0.0,0.0,0.0,0.0,0.0,0.0,0.0,0.0,0.0,0.0,0.0,0.0,0.0,0.0,0.0,0.0,0.0,0.0,0.0,0.0,0.0,-1.7961,-1.7788,-1.7882,-1.8302,-1.82,-1.7084,-1.4908,-1.48,-1.4041,-1.2414,0.0,0.0,0.0,0.0,0.0,0.0,0.0,0.0,0.0,0.0,0.0,0.0,0.0,0.0,0.0,0.0,0.0,0.0,0.0,0.0,0.0,0.0,0.0,0.0,0.0,0.0,0.0,0.0,0.0,0.0,0.0,0.0,0.0,0.0,0.0,0.0,0.0,0.0,0.0,-1.0817,-1.13,0.0,0.0,0.0,0.0,0.0,0.0,0.0,0.0,-1.305,0.0,0.0,0.0,0.0,0.0,0.0,0.0,0.0,0.0,0.0,0.0,0.0,0.0,0.0,0.0,0.0,0.0,0.0,0.0,0.0,0.0,0.0,0.0,0.0,0.0,0.0,0.0,0.0,0.0,0.0,0.0,0.0,0.0,0.0,0.0,0.0,0.0,0.0,0.0,0.0,0.0,0.0,0.0,0.0,0.0,0.0,0.0,0.0,0.0,0.0,0.0,0.0,0.0,0.0,0.0,-1.7347,-1.7861,-1.8199,-1.837,-1.84,-1.7277,-1.4954,-1.4761,-1.3992,0.0,0.0,0.0,0.0,0.0,0.0,0.0,0.0,0.0,0.0,0.0,0.0,0.0,0.0,0.0,0.0,0.0,0.0,0.0,0.0,0.0,0.0,0.0,0.0,0.0,0.0,0.0,0.0,0.0,0.0,0.0,0.0,0.0,0.0,0.0,0.0,0.0,0.0,0.0,0.0,-1.1501,-1.1646,-1.2004,0.0,0.0,0.0,0.0,0.0,0.0,-1.4059,-1.4171,0.0,0.0,0.0,0.0,0.0,0.0,0.0,0.0,0.0,0.0,0.0,0.0,0.0,0.0,0.0,0.0,0.0,0.0,0.0,0.0,0.0,0.0,0.0,0.0,0.0,0.0,0.0,0.0,0.0,0.0,0.0,0.0,0.0,0.0,0.0,0.0,0.0,0.0,0.0,0.0,0.0,0.0,0.0,0.0,0.0,0.0,0.0,0.0,0.0,0.0,0.0,0.0,0.0,0.0,0.0,-1.6725,-1.7893,-1.8472,-1.8375,-1.8441,-1.7343,-1.5027,-1.4566,-1.3776,0.0,0.0,0.0,0.0,0.0,0.0,0.0,0.0,0.0,0.0,0.0,0.0,0.0,0.0,0.0,0.0,0.0,0.0,0.0,0.0,0.0,0.0,0.0,0.0,0.0,0.0,0.0,0.0,0.0,0.0,0.0,0.0,0.0,0.0,0.0,0.0,0.0,0.0,0.0,0.0,0.0,-1.1627,-1.237,-1.3087,0.0,0.0,0.0,0.0,-1.4796,-1.5217,0.0,0.0,0.0,0.0,0.0,0.0,0.0,0.0,0.0,0.0,0.0,0.0,0.0,0.0,0.0,0.0,0.0,0.0,0.0,0.0,0.0,0.0,0.0,0.0,0.0,0.0,0.0,0.0,0.0,0.0,0.0,0.0,0.0,0.0,0.0,0.0,0.0,0.0,0.0,0.0,0.0,0.0,0.0,0.0,0.0,0.0,0.0,0.0,0.0,0.0,0.0,0.0,0.0,0.0,0.0,0.0,-1.66,-1.8162,-1.8981,-1.8883,-1.8134,-1.6982,-1.5469,-1.4259,-1.3216,0.0,0.0,0.0,0.0,0.0,0.0,0.0,0.0,0.0,0.0,0.0,0.0,0.0,0.0,0.0,0.0,0.0,0.0,0.0,0.0,0.0,0.0,0.0,0.0,0.0,0.0,0.0,0.0,0.0,0.0,0.0,0.0,0.0,0.0,0.0,0.0,0.0,0.0,0.0,0.0,0.0,-1.1496,-1.2224,-1.297,-1.3463,0.0,0.0,-1.3965,-1.444,-1.4691,0.0,0.0,0.0,0.0,0.0,0.0,0.0,0.0,0.0,0.0,0.0,0.0,0.0,0.0,0.0,0.0,0.0,0.0,0.0,0.0,0.0,0.0,0.0,0.0,0.0,0.0,0.0,0.0,0.0,0.0,0.0,0.0,0.0,0.0,0.0,0.0,0.0,0.0,0.0,0.0,0.0,0.0,0.0,0.0,0.0,0.0,0.0,0.0,0.0,0.0,0.0,0.0,0.0,0.0,0.0,-1.7316,-1.7016,-1.8332,-1.8979,-1.8812,-1.7989,-1.6693,-1.4905,-1.3977,-1.2956,0.0,0.0,0.0,0.0,0.0,0.0,0.0,0.0,0.0,0.0,0.0,0.0,0.0,0.0,0.0,0.0,0.0,0.0,0.0,0.0,0.0,0.0,0.0,0.0,0.0,0.0,0.0,0.0,0.0,0.0,0.0,0.0,0.0,0.0,0.0,0.0,0.0,0.0,0.0,0.0,0.0,0.0,-1.2322,-1.3253,0.0,0.0,0.0,-1.5508,-1.6203,0.0,0.0,0.0,0.0,0.0,0.0,0.0,0.0,0.0,0.0,0.0,0.0,0.0,0.0,0.0,0.0,0.0,0.0,0.0,0.0,0.0,0.0,0.0,0.0,0.0,0.0,0.0,0.0,0.0,0.0,0.0,0.0,0.0,0.0,0.0,0.0,0.0,0.0,0.0,0.0,0.0,0.0,0.0,0.0,0.0,0.0,0.0,0.0,0.0,0.0,0.0,0.0,0.0,0.0,0.0,0.0,0.0,-1.7296,-1.8419,-1.8903,-1.8702,-1.7791,-1.6427,-1.4705,-1.3695,0.0,0.0,0.0,0.0,0.0,0.0,0.0,0.0,0.0,0.0,0.0,0.0,0.0,0.0,0.0,0.0,0.0,0.0,0.0,0.0,0.0,0.0,0.0,0.0,0.0,0.0,0.0,-0.7904,0.0,0.0,0.0,0.0,0.0,0.0,0.0,0.0,0.0,0.0,0.0,0.0,0.0,0.0,-1.3599,-1.316,-1.4304,-1.5644,0.0,0.0,-1.7317,-1.7883,-1.7918,-1.7492,0.0,0.0,0.0,0.0,0.0,0.0,0.0,0.0,0.0,0.0,0.0,0.0,0.0,0.0,0.0,0.0,0.0,0.0,0.0,0.0,0.0,0.0,0.0,0.0,0.0,0.0,0.0,0.0,0.0,0.0,0.0,0.0,0.0,0.0,0.0,0.0,0.0,0.0,0.0,0.0,0.0,0.0,0.0,0.0,0.0,0.0,0.0,0.0,0.0,0.0,0.0,0.0,0.0,0.0,-1.7214,-1.7243,-1.84,-1.8922,-1.8755,-1.7392,-1.624,-1.5335,-1.3354,-1.1958,0.0,0.0,0.0,0.0,0.0,0.0,0.0,0.0,0.0,0.0,0.0,0.0,0.0,0.0,0.0,0.0,0.0,0.0,0.0,0.0,0.0,0.0,0.0,0.0,0.0,0.0,0.0,0.0,0.0,0.0,0.0,0.0,0.0,0.0,0.0,0.0,0.0,0.0,0.0,0.0,0.0,-1.4654,-1.521,-1.6495,-1.7651,0.0,-1.8559,-1.86,-1.8706,-1.8205,-1.7783,-1.7758,0.0,0.0,0.0,0.0,0.0,0.0,0.0,0.0,0.0,0.0,0.0,0.0,0.0,0.0,0.0,0.0,0.0,0.0,0.0,0.0,0.0,0.0,0.0,0.0,0.0,0.0,0.0,0.0,0.0,0.0,0.0,0.0,0.0,0.0,0.0,0.0,0.0,0.0,0.0,0.0,0.0,0.0,0.0,0.0,0.0,0.0,0.0,0.0,0.0,0.0,0.0,0.0,0.0,-1.7592,-1.8361,-1.872,-1.8831,-1.8693,-1.7259,-1.6089,-1.5233,-1.3581,-1.2173,0.0,0.0,0.0,0.0,0.0,0.0,0.0,0.0,0.0,0.0,0.0,0.0,0.0,0.0,0.0,0.0,0.0,0.0,0.0,0.0,0.0,0.0,0.0,0.0,0.0,0.0,0.0,0.0,-0.7262,-0.6416,-0.5708,0.0,0.0,0.0,0.0,0.0,0.0,0.0,0.0,0.0,0.0,-1.5934,-1.6099,-1.6981,0.0,0.0,-1.9039,-1.8909,-1.9345,-1.8804,-1.8231,-1.789,-1.7695,0.0,0.0,0.0,0.0,0.0,0.0,0.0,0.0,0.0,0.0,0.0,0.0,0.0,0.0,0.0,0.0,0.0,0.0,0.0,0.0,0.0,0.0,0.0,0.0,0.0,0.0,0.0,0.0,0.0,0.0,0.0,0.0,0.0,0.0,0.0,0.0,0.0,0.0,0.0,0.0,0.0,0.0,0.0,0.0,0.0,0.0,0.0,0.0,0.0,0.0,0.0,0.0,-1.789,-1.8774,-1.8625,-1.8422,-1.8139,-1.6844,-1.5848,-1.5151,-1.3776,-1.2565,0.0,0.0,0.0,0.0,0.0,0.0,0.0,0.0,0.0,0.0,0.0,0.0,0.0,0.0,0.0,0.0,0.0,0.0,0.0,0.0,0.0,0.0,0.0,0.0,0.0,0.0,0.0,0.0,-0.8579,-0.7507,-0.6828,0.0,0.0,0.0,0.0,0.0,0.0,0.0,0.0,0.0,0.0,-1.7238,-1.7154,-1.7754,-1.8655,-1.9924,-1.9742,-1.9613,-2.0056,-1.9508,-1.888,-1.8478,0.0,0.0,0.0,0.0,0.0,0.0,0.0,0.0,0.0,0.0,0.0,0.0,0.0,0.0,0.0,0.0,0.0,0.0,0.0,0.0,0.0,0.0,0.0,0.0,0.0,0.0,0.0,-1.4821,0.0,0.0,-1.493,0.0,0.0,0.0,0.0,0.0,0.0,0.0,0.0,0.0,0.0,0.0,0.0,0.0,0.0,0.0,0.0,0.0,0.0,0.0,0.0,0.0,0.0,-1.7985,-1.8029,-1.7971,-1.758,-1.6877,-1.6039,-1.5532,-1.5261,-1.3867,-1.3006,-1.2753,0.0,0.0,0.0,0.0,0.0,0.0,0.0,0.0,0.0,0.0,0.0,0.0,0.0,0.0,0.0,0.0,0.0,0.0,0.0,0.0,0.0,0.0,0.0,0.0,0.0,0.0,-1.1737,-1.0308,-0.9052,0.0,0.0,0.0,0.0,0.0,0.0,0.0,0.0,0.0,-1.7631,-1.8174,-1.8568,-1.8564,-1.9175,-1.9937,-2.0686,-2.0855,-2.0927,-2.0863,-2.0261,-1.9775,0.0,0.0,0.0,0.0,0.0,0.0,0.0,0.0,0.0,0.0,0.0,0.0,0.0,0.0,0.0,0.0,0.0,0.0,0.0,0.0,0.0,0.0,0.0,0.0,0.0,0.0,0.0,-1.6101,-1.6101,0.0,0.0,0.0,0.0,0.0,0.0,0.0,0.0,0.0,0.0,0.0,-1.8057,-1.8214,0.0,0.0,0.0,0.0,0.0,0.0,0.0,0.0,0.0,0.0,0.0,0.0,-1.7982,-1.7928,-1.7823,-1.7434,-1.6768,-1.633,-1.583,-1.5182,-1.4566,-1.3849,-1.3074,0.0,0.0,0.0,0.0,0.0,0.0,0.0,0.0,0.0,0.0,0.0,0.0,0.0,0.0,0.0,0.0,0.0,0.0,0.0,0.0,0.0,0.0,0.0,0.0,0.0,-1.3396,0.0,0.0,0.0,0.0,0.0,0.0,0.0,0.0,0.0,0.0,0.0,-1.8044,-1.8931,-1.9218,-1.9498,-1.9936,-2.0697,-2.132,0.0,0.0,0.0,0.0,0.0,0.0,0.0,0.0,0.0,0.0,0.0,0.0,0.0,0.0,-1.7916,-1.6561,-1.6318,-1.6485,-1.705,0.0,0.0,0.0,0.0,0.0,0.0,0.0,0.0,0.0,0.0,0.0,0.0,0.0,0.0,-1.7961,-1.7935,-1.7837,0.0,0.0,0.0,0.0,0.0,0.0,0.0,0.0,-1.906,-1.9063,-1.9452,-1.9376,-1.9249,0.0,-1.9002,-1.8414,0.0,0.0,0.0,0.0,0.0,0.0,0.0,0.0,-1.8121,-1.7892,-1.776,-1.734,-1.6663,-1.6437,-1.6044,-1.5406,-1.4942,-1.4241,-1.3296,-1.2489,-1.2248,0.0,0.0,0.0,0.0,0.0,0.0,0.0,0.0,0.0,0.0,0.0,0.0,0.0,0.0,0.0,0.0,0.0,0.0,0.0,0.0,0.0,0.0,0.0,-1.4341,0.0,0.0,0.0,0.0,0.0,0.0,0.0,0.0,0.0,-1.7945,-1.8429,-1.906,-1.9927,-2.0249,-2.0597,-2.1017,0.0,0.0,0.0,0.0,0.0,0.0,0.0,-2.1005,-2.0525,-2.0456,-2.0521,-2.0669,-2.0611,-2.0556,-2.0568,0.0,0.0,-1.758,-1.7097,-1.7159,-1.8025,-1.8221,-1.8516,-1.9361,-1.9969,-2.0206,0.0,0.0,0.0,0.0,0.0,0.0,0.0,0.0,-2.0284,-2.0322,0.0,-1.9794,0.0,0.0,0.0,0.0,-1.9028,-1.8965,0.0,0.0,-1.9486,-1.9512,-2.0485,-2.0116,-1.9661,-1.9238,-1.9816,-1.9867,-1.9441,-1.7692,0.0,0.0,0.0,0.0,0.0,0.0,-1.8437,-1.7884,-1.7682,-1.7226,-1.6522,-1.6326,-1.6164,-1.5964,-1.5028,-1.4166,-1.3416,-1.319,-1.3129,-1.3168,-1.2701,0.0,0.0,0.0,0.0,0.0,0.0,0.0,0.0,0.0,0.0,0.0,0.0,0.0,0.0,0.0,0.0,0.0,0.0,0.0,0.0,-1.5379,0.0,0.0,0.0,0.0,0.0,0.0,0.0,0.0,0.0,0.0,-1.8484,-1.972,-2.0674,-2.0685,0.0,0.0,0.0,0.0,-2.1913,-2.1913,-2.1955,-2.1984,-2.1897,-2.1897,-2.1851,-2.1794,0.0,0.0,-2.1967,-2.1468,-2.1066,-2.1123,-2.0581,-1.9984,-1.9498,-1.8758,-1.8548,-1.9306,-1.9477,-1.9778,-2.0469,-2.0694,-2.0831,-2.3674,0.0,0.0,0.0,0.0,-2.1982,-2.1807,-2.149,-2.1584,-2.1665,-2.1652,-2.1602,0.0,0.0,0.0,0.0,0.0,0.0,-2.1538,-2.1838,-2.1511,-2.1551,-2.185,-2.1721,-2.159,-2.1445,-2.1209,-2.0828,-2.0334,-1.939,-1.8875,-1.8796,0.0,0.0,0.0,0.0,-1.8189,-1.7506,-1.7404,-1.7024,-1.6312,-1.666,-1.653,-1.5858,-1.4974,-1.4188,-1.3501,-1.3357,-1.3271,-1.3198,-1.3137,0.0,0.0,0.0,0.0,0.0,0.0,0.0,0.0,0.0,0.0,0.0,0.0,0.0,0.0,0.0,0.0,0.0,0.0,0.0,-1.6454,-1.6274,-1.6103,0.0,0.0,0.0,0.0,0.0,0.0,0.0,0.0,0.0,-1.9549,-1.9729,-2.0044,0.0,0.0,-2.1199,-2.1746,-2.1855,-2.1913,-2.1913,-2.1955,0.0,-2.1913,-2.1913,-2.1884,-2.1811,-2.1855,-2.1913,-2.1926,-2.18,-2.1723,-2.172,-2.1146,-2.0632,-2.0543,-2.0052,-1.9755,-1.9998,-2.0067,-2.0159,-2.0419,-2.0974,-2.1306,-2.645,-2.5261,-2.4493,-2.3951,-2.3675,-2.3842,-2.3721,-2.3428,-2.3573,-2.3618,-2.3618,-2.3498,-2.3422,-2.3396,-2.2936,0.0,0.0,0.0,-2.2506,-2.2701,-2.2492,-2.2505,-2.2714,-2.2519,-2.2415,-2.2469,-2.2114,-2.1786,-2.1548,-2.1129,-2.0803,-2.0607,0.0,0.0,-1.9445,-1.9225,-1.8863,-1.8408,-1.8167,-1.7752,-1.7246,-1.7226,-1.6822,-1.5992,-1.5241,-1.4506,-1.3804,-1.354,-1.3323,-1.321,-1.3323,-1.3272,0.0,0.0,0.0,0.0,0.0,0.0,0.0,0.0,0.0,0.0,0.0,-1.377,-1.4723,0.0,0.0,0.0,-1.7298,-1.7614,-1.7486,-1.7282,0.0,0.0,0.0,0.0,0.0,0.0,0.0,-1.9101,-1.9667,-1.9999,-1.9953,-1.9824,-2.0027,-2.0818,-2.1004,-2.1229,-2.1658,0.0,-2.1783,-2.1783,-2.184,-2.1869,-2.1825,-2.184,-2.184,-2.1796,-2.1825,-2.1855,-2.1869,-2.1911,-2.1955,-2.1919,-2.1633,-2.1345,-2.1401,-2.1127,-2.0827,-2.0645,-2.0645,-2.0772,-2.1096,-2.1653,-2.1888,-2.8764,-2.8582,-2.6514,-2.5582,-2.5531,-2.5696,-2.5708,-2.5669,-2.5762,-2.578,-2.5772,-2.5275,-2.507,-2.5005,-2.3916,0.0,-2.2663,-2.269,-2.2936,-2.3406,-2.2911,-2.2884,-2.3328,-2.2846,-2.2626,-2.2734,-2.2669,-2.2696,-2.2804,-2.2657,-2.2366,-2.1926,-2.0475,-1.984,-2.0015,-1.996,-1.9976,-2.0041,-1.9424,-1.8995,-1.8771,-1.7883,-1.7032,-1.6223,-1.5685,-1.5008,-1.4225,-1.3683,-1.3352,-1.3215,-1.3323,-1.3408,-1.3497,0.0,0.0,0.0,0.0,0.0,0.0,0.0,0.0,0.0,0.0,0.0,0.0,0.0,0.0,0.0,-1.7832,0.0,-1.8061,-1.8221,0.0,0.0,0.0,-1.873,-1.8732,-1.8793,-1.9044,-1.9578,0.0,0.0,-1.994,-2.0064,-2.0443,-2.1258,-2.1432,-2.1508,-2.1557,-2.1589,-2.1573,-2.1604,-2.1634,-2.1694,-2.1708,-2.1768,-2.1812,-2.1781,-2.1781,-2.1812,-2.1812,-2.184,-2.1899,-2.1899,-2.194,-2.1967,-2.195,-2.19,-2.1809,-2.1245,-2.1211,-2.1471,-2.2092,-2.2347,-2.2412,-2.9522,-2.9129,-2.8582,-2.7984,-2.7441,-2.7181,-2.6818,-2.6406,-2.5989,-2.578,-2.578,-2.5667,-2.5615,-2.5602,-2.5297,-2.5118,-2.5001,-2.5001,-2.5049,-2.5153,-2.5066,-2.4844,-2.4586,-2.4442,-2.4154,-2.3736,-2.3278,-2.307,-2.3085,-2.2665,-2.2443,-2.2419,-2.2049,-2.1274,-2.018,-1.9741,-1.9593,-1.9646,-1.9488,-1.9146,-1.8636,-1.7877,-1.7088,-1.6283,-1.5704,-1.5021,-1.4225,-1.3696,-1.334,-1.3215,-1.3232,-1.3323,-1.3497,-1.3564,0.0,0.0,0.0,0.0,0.0,0.0,0.0,0.0,0.0,-1.577,-1.711,0.0,-1.8022,0.0,-1.9087,-1.9069,-1.8656,-1.8714,0.0,0.0,-1.8943,-1.9208,-1.9682,-1.9844,-1.9957,-2.0111,-2.0277,-2.0343,-2.0277,-2.0492,-2.0702,-2.0926,-2.07,-2.0724,-2.1258,-2.1418,-2.1464,-2.1448,-2.1557,-2.1634,-2.1709,-2.1753,-2.1781,-2.1781,-2.1781,-2.1781,-2.1781,-2.1827,-2.1825,-2.1827,-2.1825,-2.184,-2.184,-2.184,-2.1805,-2.1666,-2.1719,-2.1852,-2.2068,-2.2234,-2.2349,-3.0518,-3.0082,-3.0069,-2.9777,-2.934,-2.8625,-2.8137,-2.7844,-2.7497,-2.7353,-2.7353,-2.7079,-2.6674,-2.6203,-2.6203,-2.6059,-2.5793,-2.578,-2.578,-2.578,-2.578,-2.5654,-2.5354,-2.5354,-2.5184,-2.4827,-2.4269,-2.4024,-2.3955,-2.342,-2.3042,-2.2876,-2.2876,-2.2299,-2.1203,-2.0742,-2.0411,-2.0167,-1.9609,-1.9017,-1.8443,-1.7718,-1.7165,-1.6708,-1.5892,-1.5231,-1.4741,-1.3933,-1.3438,-1.3306,-1.3306,-1.3357,-1.3459,-1.3758,-1.399,0.0,0.0,0.0,0.0,0.0,0.0,0.0,0.0,0.0,0.0,0.0,-1.8419,-1.9225,-1.9468,-1.9414,-1.9093,-1.9171,-1.9275,-1.9308,-1.9411,-1.9649,-2.0015,-2.0131,-2.0166,-2.0148,-2.0321,-2.0407,-2.0356,-2.0543,-2.0662,-2.0662,-2.0527,-2.0607,-2.1086,-2.1246,-2.1278,-2.1325,-2.1403,-2.1527,-2.1679,-2.1723,-2.1768,-2.1797,-2.1781,-2.1781,-2.1781,-2.1781,-2.1781,-2.1781,-2.1781,-2.1781,-2.1781,-2.1781,-2.1781,-2.1796,-2.1855,-2.1928,-2.1955,-2.2058,-2.2178,-3.1548,-3.1091,-3.1013,-3.1024,-3.0908,-2.9964,-2.9493,-2.9379,-2.9349,-2.931,-2.9248,-2.876,-2.7962,-2.7046,-2.6968,-2.6621,-2.6119,-2.6041,-2.6002,-2.6015,-2.6015,-2.5976,-2.5942,-2.5942,-2.5858,-2.578,-2.5315,-2.511,-2.5053,-2.4504,-2.3968,-2.343,-2.3367,-2.3026,-2.2505,-2.2141,-2.1648,-2.0997,-1.9823,-1.8944,-1.8306,-1.7668,-1.7277,-1.7139,-1.6147,-1.5548,-1.5446,-1.4404,-1.3732,-1.3642,-1.3681,-1.3711,-1.3672,-1.4154,-1.4518,0.0,-1.5199,0.0,0.0,0.0,0.0,0.0,0.0,0.0,0.0,-1.791,-1.8397,-1.9225,-1.9358,-1.9409,-1.9409,-1.9563,-1.9657,-1.969,-1.9848,-1.9937,-1.9955,-1.9973,-1.9973,-2.0005,-2.0148,-2.027,-2.0252,-2.0375,-2.0477,-2.0477,-2.0562,-2.0729,-2.0973,-2.1054,-2.1103,-2.1135,-2.1246,-2.1403,-2.1587,-2.1679,-2.1724,-2.1783,-2.1781,-2.1781,-2.1781,-2.1781,-2.1781,-2.1781,-2.1781,-2.1781,-2.1781,-2.1781,-2.1781,-2.1781,-2.1796,-2.1842,-2.1868,-2.1957,-2.203,-3.1745,-3.1602,-3.1169,-3.1024,-3.096,-3.0788,-3.0411,-2.9905,-2.9483,-2.931,-2.931,-2.9157,-2.8987,-2.8786,-2.8315,-2.8007,-2.7863,-2.7419,-2.7177,-2.7177,-2.7177,-2.6961,-2.653,-2.6549,-2.6269,-2.5806,-2.572,-2.5654,-2.561,-2.5079,-2.4783,-2.4652,-2.4164,-2.3613,-2.3039,0.0,0.0,0.0,-2.0319,-1.9655,-1.8944,-1.8333,-1.7712,-1.7044,-1.6425,0.0,-1.5871,-1.5254,-1.4875,-1.4857,-1.4875,0.0,0.0,0.0,0.0,0.0,0.0,0.0,0.0,0.0,0.0,0.0,-1.7363,-1.7851,-1.8143,-1.8593,-1.8989,-1.9269,-1.9358,-1.9409,-1.9409,-1.9431,-1.9487,-1.9611,-1.9632,-1.972,-1.9812,-1.983,-1.9884,-1.9973,-2.0041,-2.0043,-2.0078,-2.0218,-2.0339,-2.0339,-2.046,-2.0544,-2.0611,-2.0811,-2.0926,-2.0974,-2.1167,-2.1324,-2.1449,-2.1587,-2.1678,-2.1739,-2.1768,-2.1797,-2.1781,-2.1781,-2.1781,-2.1781,-2.1781,-2.1781,-2.1781,-2.1781,-2.1781,-2.1781,-2.1781,-2.1812,-2.1811,-2.1869,-2.1926,-3.2397,-3.2215,-3.164,-3.1367,0.0,-3.1104,-3.0817,-3.0505,-3.0241,-2.9954,-2.9706,-2.9706,-2.9549,-2.9261,-2.9009,-2.8817,-2.8826,-2.8216,-2.7941,-2.7928,-2.762,-2.7379,-2.7092,-2.7092,-2.6915,-2.6628,-2.636,-2.6229,-2.6203,-2.5667,-2.528,-2.4992,-2.4704,-2.4243,-2.3626,-2.282,-2.1852,-2.0813,-2.0257,-1.9677,-1.9025,-1.8438,-1.7808,-1.7128,-1.6582,0.0,0.0,0.0,0.0,0.0,0.0,0.0,0.0,-1.5556,0.0,-1.5854,-1.6081,-1.6297,-1.6441,-1.6817,-1.7096,-1.7156,-1.7685,-1.8068,-1.8299,-1.8606,-1.8889,-1.9045,-1.9149,-1.9209,-1.9246,-1.9306,-1.9376,-1.9431,-1.9538,-1.9644,-1.9702,-1.9723,-1.9762,-1.9833,-1.9884,-1.9902,-1.9902,-2.0058,-2.0163,-2.0148,-2.0289,-2.0392,-2.0426,-2.0628,-2.0827,-2.0909,-2.1103,-2.1278,-2.134,-2.1448,-2.1602,-2.1678,-2.1723,-2.1753,-2.1797,-2.1781,-2.1781,-2.1781,-2.1781,-2.1781,-2.1781,-2.1781,-2.1781,-2.1781,-2.1781,-2.1781,-2.1781,-2.1825,-2.1869,-3.3031,-3.275,-3.2202,-3.1954,-3.1915,-3.1365,-3.1078,-3.1024,-3.1024,0.0,0.0,-3.0244,-3.0019,-2.9588,-2.947,-2.9431,-2.9392,-2.8839,-2.8577,-2.8516,-2.7941,-2.7646,-2.7646,-2.7555,-2.7503,-2.7477,-2.7053,-2.6863,-2.6804,-2.6255,-2.5746,-2.5319,-2.511,-2.4635,-2.3942,-2.3029,-2.1982,-2.087,-2.0268,-1.9669,-1.9081,-1.8623,-1.8061,-1.7382,-1.6924,-1.665,-1.6552,-1.6062,-1.5794,-1.5724,-1.5724,-1.5653,-1.5576,-1.5968,-1.6239,-1.6379,-1.6785,-1.7094,-1.7233,-1.735,-1.7432,-1.7496,-1.7767,-1.8042,-1.826,-1.8425,-1.8562,-1.8721,-1.8903,-1.9017,-1.9078,-1.9209,-1.9269,-1.9302,-1.9431,-1.9556,-1.9608,-1.965,-1.969,-1.9708,-1.9762,-1.978,-1.978,-1.9884,-1.9973,-1.9973,-2.0131,-2.027,-2.0321,-2.0559,-2.076,-2.0877,-2.1023,-2.1167,-2.1278,-2.134,-2.1448,-2.1586,-2.1664,-2.1724,-2.1768,-2.1781,-2.1797,-2.1781,-2.1781,-2.1781,-2.1781,-2.1781,-2.1781,-2.1781,-2.1781,-2.1781,-2.1781,-2.1781,-2.1827,-3.3196,-3.312,-3.2736,-3.2581,-3.2529,-3.1928,-3.1406,-3.0999,-3.1024,-3.0947,-3.0869,-3.0869,-3.0817,-3.0725,-3.0192,-2.997,-2.9944,-2.9418,-2.9192,-2.9166,-2.8543,-2.8255,-2.8263,-2.7725,-2.7503,-2.749,-2.7411,-2.7372,-2.7307,-2.6831,-2.6536,-2.6353,-2.5489,-2.4439,-2.3391,-2.3184,-2.2531,-2.142,-2.0844,-2.0281,-1.9695,-1.9603,-1.9054,-1.8035,-1.7891,-1.7617,-1.7094,-1.699,-1.6963,-1.6963,-1.695,-1.693,-1.6943,-1.6954,-1.704,-1.706,-1.7126,-1.7233,-1.7384,-1.7384,-1.7432,-1.7509,-1.7645,-1.7868,-1.8189,-1.8366,-1.8503,-1.8542,-1.8807,-1.9012,-1.9031,-1.9078,-1.9191,-1.9284,-1.9321,-1.9395,-1.9574,-1.9611,-1.9647,-1.969,-1.9708,-1.9726,-1.9726,-1.978,-1.983,-1.9848,-1.9955,-2.0096,-2.0287,-2.0542,-2.0711,-2.0794,-2.0877,-2.1023,-2.1167,-2.1278,-2.1356,-2.1433,-2.1542,-2.1619,-2.1709,-2.1708,-2.1754,-2.1797,-2.1797,-2.1781,-2.1781,-2.1781,-2.1781,-2.1781,-2.1781,-2.1781,-2.1781,-2.1781,-2.1796,-3.3563,-3.3623,-3.3336,-3.3182,-3.3117,-3.2189,-3.1654,-3.1418,-3.1117,-3.1024,-3.1024,-3.1024,-3.1024,-3.0998,-3.0712,-3.0594,-3.0568,-3.0006,-2.9745,-2.9693,-2.9144,-2.8869,-2.8804,-2.8255,-2.7994,-2.7968,-2.7633,-2.7469,-2.7377,-2.7142,-2.6791,-2.6317,-2.5244,-2.4387,-2.3857,-2.3337,-2.2823,-2.233,-2.1538,-2.0688,-1.9839,-1.9812,-1.9394,-1.8571,-1.827,-1.797,-1.7708,-1.7369,-1.7212,-1.7212,-1.7212,-1.7212,-1.7212,-1.7212,-1.7212,-1.7212,-1.7212,-1.7233,-1.7274,-1.735,-1.7412,-1.744,-1.7529,-1.7686,-1.7902,-1.8115,-1.8327,-1.8478,-1.8653,-1.8807,-1.8974,-1.9017,-1.9078,-1.9191,-1.925,-1.9358,-1.9483,-1.9556,-1.9614,-1.969,-1.9723,-1.9723,-1.9723,-1.9726,-1.9744,-1.9762,-1.9815,-1.9973,-2.0183,-2.034,-2.0543,-2.0711,-2.0828,-2.091,-2.1039,-2.1119,-2.1231,-2.1324,-2.1387,-2.1481,-2.1603,-2.1634,-2.1679,-2.1723,-2.1738,-2.1768,-2.1783,-2.1781,-2.1781,-2.1781,-2.1781,-2.1781,-2.1781,-2.1781,-2.1781,-3.3768,-3.3898,-3.3788,-3.3664,-3.3522,-3.262,-3.2124,-3.1941,-3.1431,-3.1169,-3.1156,-3.1052,-3.1024,-3.1024,-3.1024,-3.1024,-3.0921,-3.0492,-3.032,-3.0231,-2.9732,-2.947,-2.9418,-2.8891,-2.8616,-2.8516,-2.7994,-2.7652,-2.7551,-2.74,-2.6917,-2.6147,-2.5281,-2.4748,-2.454,-2.3839,-2.3327,-2.3028,-2.2294,-2.1328,-2.0244,-2.0191,-1.9852,-1.9133,-1.8715,-1.8427,-1.827,-1.7721,-1.7408,-1.7395,-1.7277,-1.7212,-1.7212,-1.7212,-1.7212,-1.7212,-1.7212,-1.7212,-1.7212,-1.7295,-1.7363,-1.7363,-1.744,-1.7509,-1.7638,-1.7814,-1.8042,-1.8347,-1.8445,-1.8615,-1.8827,-1.8955,-1.9017,-1.9078,-1.9176,-1.9284,-1.9376,-1.9468,-1.9593,-1.9654,-1.969,-1.9723,-1.9723,-1.9723,-1.9708,-1.9708,-1.9744,-1.9869,-2.0028,-2.0168,-2.039,-2.056,-2.0745,-2.086,-2.0893,-2.0974,-2.1103,-2.123,-2.1278,-2.1356,-2.1481,-2.1527,-2.1588,-2.1649,-2.1679,-2.1694,-2.1738,-2.1751,-2.1768,-2.1768,-2.1766,-2.1781,-2.1781,-2.1781,-2.1781,-3.3428,-3.3526,-3.3885,-3.3879,-3.3613,-3.3456,-3.3091,-3.2568,-3.1967,-3.1732,-3.1654,-3.1209,-3.1024,-3.1024,-3.1024,-3.1024,-3.1024,-3.0921,-3.0882,-3.0817,-3.0283,-3.0022,-2.9957,-2.9457,-2.9231,-2.9118,-2.8595,-2.8281,-2.816,-2.7569,-2.6984,-2.6426,-2.6291,-2.5728,-2.5031,-2.4844,-2.4253,-2.3193,-2.3078,-2.2477,-2.1407,-2.1329,-2.0832,-1.9747,-1.9669,-1.9381,-1.8845,-1.831,-1.8009,-1.797,-1.7512,-1.7225,-1.7225,-1.7212,-1.7212,-1.7212,-1.7212,-1.7212,-1.7212,-1.7212,-1.7233,-1.722,-1.7329,-1.7425,-1.7446,-1.7597,-1.7808,-1.8083,-1.8341,-1.8484,-1.8576,-1.8822,-1.8993,-1.9031,-1.9078,-1.9157,-1.9302,-1.9358,-1.9465,-1.9593,-1.9669,-1.9723,-1.9708,-1.9723,-1.9723,-1.9723,-1.9744,-1.9797,-1.9869,-2.0063,-2.0254,-2.0373,-2.056,-2.0712,-2.0794,-2.0877,-2.0974,-2.1087,-2.1183,-2.1247,-2.1325,-2.1387,-2.1448,-2.1542,-2.1588,-2.1603,-2.1634,-2.1664,-2.1709,-2.1724,-2.1753,-2.1781,-2.1781,-2.1781,-2.1781,-3.324,-3.324,-3.3696,-3.385,-3.3838,-3.369,-3.3456,-3.3156,-3.2241,-3.1797,-3.1732,-3.1235,-3.1024,-3.1024,-3.1024,-3.1024,-3.0986,-3.0874,-3.0874,-3.0973,-3.0639,-3.0535,-3.0581,-3.0045,-2.9784,-2.9732,-2.9196,-2.8669,-2.8036,-2.7233,-2.6701,-2.6438,-2.6087,-2.5779,-2.5499,-2.4931,-2.443,-2.4096,-2.3858,-2.3354,-2.2544,-2.1864,-2.1289,-2.0806,-2.0152,-1.9708,-1.942,-1.8885,-1.8571,-1.8571,-1.8336,-1.8061,-1.7735,-1.7721,-1.7565,-1.7251,-1.7212,-1.7212,-1.7212,-1.7212,-1.7212,-1.7212,-1.7253,-1.7295,-1.7384,-1.7487,-1.7738,-1.8248,-1.8261,-1.8274,-1.8492,-1.8629,-1.8769,-1.8955,-1.9017,-1.9111,-1.9284,-1.9321,-1.9395,-1.9574,-1.9629,-1.9683,-1.9705,-1.9723,-1.9723,-1.9723,-1.9726,-1.9762,-1.9797,-1.9919,-2.0028,-2.0168,-2.0323,-2.0526,-2.0677,-2.076,-2.0844,-2.0942,-2.1006,-2.1055,-2.1167,-2.1246,-2.1325,-2.1419,-2.1433,-2.1495,-2.1588,-2.1603,-2.1634,-2.1664,-2.1709,-2.1753,-2.1766,-2.1781,-2.1781,-3.2952,-3.3056,-3.3441,-3.3781,-3.3953,-3.3827,-3.374,-3.361,-3.2698,-3.2189,-3.198,-3.147,-3.1092,-3.0924,-3.0911,-3.0911,-3.0911,-3.0736,-3.0685,-3.0836,-3.0723,-3.0773,-3.0859,-3.047,-3.0262,-3.017,-2.9639,-2.8889,-2.8004,-2.7199,-2.6795,-2.6706,-2.6181,-2.5929,-2.5866,-2.5186,-2.4864,-2.4887,-2.4485,-2.408,-2.3574,-2.257,-2.1825,-2.1485,-2.0714,-2.0205,-2.0035,-1.9473,-1.9136,-1.9146,-1.9002,-1.8705,-1.8349,-1.8323,-1.8061,-1.7525,-1.7447,-1.7369,-1.7225,-1.7212,-1.7212,-1.7212,-1.7329,-1.7489,-1.7584,-1.7766,-1.8115,-1.8598,-1.8524,-1.8556,-1.8787,-1.8929,-1.9123,-1.936,-1.9473,-1.9561,-1.9768,-1.9792,-1.9927,-2.0015,-2.0171,-2.002,-1.993,-1.9806,-1.9723,-1.9723,-1.9723,-1.9708,-1.9762,-1.9795,-1.9851,-2.001,-2.0135,-2.0339,-2.0575,-2.0676,-2.0728,-2.0811,-2.0893,-2.0942,-2.1038,-2.1119,-2.1167,-2.1262,-2.1293,-2.134,-2.1403,-2.1465,-2.1574,-2.1604,-2.1634,-2.1678,-2.1736,-2.1751,-2.1783,-3.2562,-3.2766,-3.3227,-3.3526,-3.3755,-3.394,-3.4079,-3.3988,-3.3623,-3.3182,-3.2581,-3.2019,-3.1356,-3.0788,-3.075,-3.0711,-3.0698,-3.0482,-3.0444,-3.0482,-3.0609,-3.0698,-3.0698,-3.0672,-3.0633,-3.0505,-2.9878,-2.9142,-2.8375,-2.7794,-2.7563,-2.7465,-2.6886,-2.6443,-2.611,-2.5939,-2.5801,-2.5414,-2.4947,-2.4715,-2.4726,-2.3707,-2.2608,-2.1707,-2.1433,-2.1159,-2.0674,-2.0074,-1.9773,-1.9773,-1.9277,-1.8924,-1.8872,-1.8858,-1.8584,-1.814,-1.8061,-1.7813,-1.7369,-1.7303,-1.7303,-1.7329,-1.7774,-1.8061,-1.8109,-1.8543,-1.8912,-1.908,-1.9262,-1.9466,-1.974,-1.9849,-2.0098,-2.0281,-2.0547,-2.067,-2.0843,-2.0823,-2.1088,-2.1055,-2.1033,-2.0882,-2.0521,-2.0023,-1.9899,-1.9857,-1.9783,-1.9842,-1.9936,-1.9897,-1.9948,-2.0017,-2.0129,-2.0216,-2.0404,-2.0542,-2.066,-2.0727,-2.0794,-2.0877,-2.0958,-2.1006,-2.1054,-2.1103,-2.1151,-2.1183,-2.1231,-2.131,-2.1403,-2.1481,-2.1557,-2.1602,-2.1678,-2.1693,-2.1723,-3.2169,-3.255,-3.3038,-3.324,-3.3356,-3.3683,-3.3852,-3.3801,-3.3369,-3.3008,-3.2737,-3.2196,-3.1589,-3.0997,-3.088,-3.0727,-3.0508,-3.0305,-3.0254,-3.0368,-3.0343,-3.0381,-3.0495,-3.0533,-3.0457,-3.0279,-3.0024,-2.9403,-2.855,-2.7852,-2.7344,-2.7069,-2.681,-2.6529,-2.6189,-2.59,-2.5742,-2.5709,-2.5294,-2.5001,-2.4845,-2.4377,-2.3641,-2.2634,-2.2243,-2.1812,-2.1224,-2.1002,-2.0727,-2.0399,-2.0151,-1.9889,-1.9486,-1.912,-1.8832,-1.8636,-1.8623,-1.8519,-1.8323,-1.8283,-1.8296,-1.831,-1.8479,-1.8623,-1.8636,-1.8842,-1.916,-1.9568,-1.9744,-2.0027,-2.0471,-2.0369,-2.0185,-2.0379,-2.0592,-2.0811,-2.0878,-2.0982,-2.1114,-2.1205,-2.1257,-2.1226,-2.1149,-2.096,-2.0884,-2.0957,-2.0976,-2.0932,-2.0946,-2.1,-2.0944,-2.1061,-2.1137,-2.1269,-2.144,-2.0819,-2.0525,-2.0594,-2.0662,-2.0744,-2.0809,-2.0876,-2.0925,-2.0974,-2.1006,-2.107,-2.1119,-2.1199,-2.131,-2.1356,-2.1434,-2.1511,-2.1619,-2.1619,-2.1648,-3.1805,-3.2201,-3.2581,-3.2797,-3.2909,-3.3313,-3.3513,-3.3475,-3.3257,-3.3056,-3.2826,-3.2455,-3.1981,-3.1388,-3.1151,-3.0795,-3.0341,-3.0048,-2.9934,-3.0088,-2.9947,-2.9998,-3.0152,-3.0139,-3.0011,-2.987,-2.9715,-2.9309,-2.8656,-2.7923,-2.7371,-2.7054,-2.6773,-2.6489,-2.6212,-2.589,-2.5799,-2.5887,-2.5597,-2.5301,-2.5069,-2.4746,-2.4292,-2.3622,-2.3139,-2.253,-2.1825,-2.1786,-2.1525,-2.1053,-2.0949,-2.07,-2.0137,-1.9719,-1.9381,-1.9224,-1.9185,-1.9094,-1.8937,-1.8898,-1.8898,-1.8924,-1.9071,-1.9198,-1.9198,-1.9355,-1.9716,-2.0103,-2.0294,-2.0576,-2.0877,-2.0714,-2.0569,-2.0815,-2.1058,-2.1218,-2.137,-2.1513,-2.1663,-2.1763,-2.1679,-2.1636,-2.1645,-2.1543,-2.149,-2.162,-2.1675,-2.1695,-2.1695,-2.1695,-2.1714,-2.1759,-2.1693,-2.1745,-2.1801,-2.1357,-2.1003,-2.1033,-2.073,-2.0751,-2.0755,-2.0792,-2.0827,-2.086,-2.0893,-2.0957,-2.1038,-2.1119,-2.1183,-2.123,-2.1294,-2.1372,-2.145,-2.1511,-2.1557,-3.1439,-3.1705,-3.1913,-3.2176,-3.2431,-3.2896,-3.3081,-3.3142,-3.3433,-3.3279,-3.288,-3.2848,-3.2352,-3.1757,-3.1436,-3.096,-3.0251,-2.9764,-2.9518,-2.947,-2.9419,-2.956,-2.974,-2.9548,-2.938,-2.9341,-2.9,-2.8791,-2.8667,-2.8035,-2.7642,-2.7476,-2.6831,-2.6481,-2.6408,-2.6052,-2.5968,-2.603,-2.5743,-2.5678,-2.5762,-2.4969,-2.4471,-2.4341,-2.4004,-2.3404,-2.2505,-2.2427,-2.2126,-2.1603,-2.1525,-2.125,-2.0779,-2.0622,-2.0412,-1.9891,-1.9812,-1.9525,-1.9081,-1.9041,-1.9107,-1.9159,-1.9499,-1.9799,-1.9865,-2.0229,-2.0555,-2.0606,-2.0746,-2.0924,-2.0995,-2.1121,-2.1353,-2.1884,-2.189,-2.2098,-2.2389,-2.2655,-2.2775,-2.2685,-2.2374,-2.214,-2.2036,-2.1892,-2.1771,-2.1823,-2.1874,-2.1964,-2.2009,-2.2024,-2.1814,-2.1834,-2.2089,-2.23,-2.2099,-2.189,-2.1705,-2.1525,-2.1107,-2.0883,-2.0838,-2.0876,-2.0819,-2.0821,-2.076,-2.0826,-2.0892,-2.0974,-2.1054,-2.1119,-2.1183,-2.1231,-2.1294,-2.1356,-2.145,-3.0847,-3.1026,-3.156,-3.1837,-3.1981,-3.2431,-3.2605,-3.2649,-3.2884,-3.2912,-3.2787,-3.2762,-3.2419,-3.1868,-3.1559,-3.0957,-3.0112,-2.9893,-2.9589,-2.9241,-2.9221,-2.9182,-2.9104,-2.904,-2.8831,-2.8566,-2.8299,-2.8191,-2.8115,-2.7945,-2.768,-2.7277,-2.702,-2.669,-2.6336,-2.6007,-2.5913,-2.6081,-2.5783,-2.5583,-2.5494,-2.5186,-2.4953,-2.4786,-2.4358,-2.3995,-2.3785,-2.3267,-2.2701,-2.2152,-2.2126,-2.1864,-2.1407,-2.1237,-2.1001,-2.0504,-2.0412,-2.0373,-2.019,-2.0137,-2.0137,-2.0164,-2.0358,-2.0399,-2.0425,-2.0569,-2.0725,-2.0712,-2.075,-2.08,-2.0924,-2.0999,-2.1309,-2.1674,-2.1926,-2.2156,-2.2437,-2.264,-2.2772,-2.2812,-2.2714,-2.2687,-2.2746,-2.2592,-2.2561,-2.2732,-2.281,-2.2888,-2.2945,-2.2862,-2.3011,-2.3032,-2.3059,-2.29,-2.2827,-2.2636,-2.2444,-2.2179,-2.1759,-2.125,-2.1149,-2.0953,-2.0866,-2.0733,-2.069,-2.071,-2.0761,-2.0827,-2.0909,-2.099,-2.1038,-2.1087,-2.1151,-2.1231,-2.1294,-3.0408,-3.0487,-3.0937,-3.1261,-3.1496,-3.1937,-3.2157,-3.2169,-3.2463,-3.2605,-3.2581,-3.2593,-3.242,-3.205,-3.173,-3.1113,-3.0356,-3.015,-2.9738,-2.9277,-2.9221,-2.9084,-2.8815,-2.857,-2.8339,-2.8111,-2.7869,-2.7708,-2.7626,-2.7534,-2.7342,-2.7064,-2.6883,-2.6733,-2.6449,-2.6158,-2.5988,-2.591,-2.5769,-2.5537,-2.5318,-2.5185,-2.5082,-2.4986,-2.4569,-2.44,-2.4468,-2.3902,-2.3269,-2.2722,-2.249,-2.2204,-2.1877,-2.1825,-2.1681,-2.142,-2.1354,-2.1328,-2.1315,-2.1354,-2.1315,-2.1315,-2.1132,-2.1001,-2.1001,-2.1001,-2.1001,-2.1001,-2.1223,-2.138,-2.1522,-2.1534,-2.17,-2.2001,-2.2095,-2.2335,-2.2712,-2.288,-2.2992,-2.3042,-2.2919,-2.2909,-2.2992,-2.3045,-2.3142,-2.3363,-2.3466,-2.3516,-2.3588,-2.355,-2.3595,-2.3595,-2.3482,-2.3428,-2.3597,-2.3423,-2.3173,-2.2864,-2.2487,-2.1969,-2.1627,-2.1255,-2.1049,-2.0691,-2.0526,-2.0577,-2.0645,-2.0678,-2.0728,-2.0811,-2.0876,-2.0925,-2.0973,-2.1038,-2.1119,-3.0,-3.0136,-3.017,-3.0499,-3.0972,-3.1451,-3.1617,-3.1761,-3.2125,-3.23,-3.23,-3.2269,-3.2288,-3.2201,-3.1765,-3.1237,-3.0814,-3.0363,-2.9921,-2.9492,-2.9394,-2.9214,-2.8816,-2.8263,-2.7941,-2.7836,-2.7528,-2.7348,-2.7185,-2.7044,-2.6891,-2.6842,-2.6628,-2.6536,-2.654,-2.6407,-2.6054,-2.5775,-2.5759,-2.5659,-2.5336,-2.5043,-2.4913,-2.5056,-2.4719,-2.4553,-2.4661,-2.4368,-2.3858,-2.3137,-2.2748,-2.2541,-2.2438,-2.2426,-2.236,-2.2216,-2.2321,-2.2283,-2.2349,-2.2205,-2.2244,-2.2178,-2.1799,-2.1564,-2.1564,-2.1564,-2.1564,-2.1616,-2.1982,-2.2337,-2.2431,-2.2405,-2.2524,-2.2738,-2.257,-2.2846,-2.3694,-2.3417,-2.3384,-2.3507,-2.3125,-2.279,-2.3117,-2.3091,-2.3147,-2.3312,-2.3445,-2.3466,-2.356,-2.3566,-2.3573,-2.3595,-2.3595,-2.3595,-2.3644,-2.3599,-2.3381,-2.3257,-2.2959,-2.2601,-2.201,-2.1568,-2.1133,-2.0749,-2.0471,-2.0506,-2.0494,-2.0544,-2.0578,-2.0611,-2.0662,-2.0727,-2.0794,-2.0876,-2.1148,-2.9821,-2.9462,-2.9829,-3.0148,-3.0454,-3.0758,-3.1005,-3.1196,-3.1496,-3.1629,-3.1617,-3.1584,-3.1629,-3.1528,-3.1318,-3.0866,-3.047,-3.0279,-2.9953,-2.9534,-2.9466,-2.92,-2.8714,-2.8042,-2.7634,-2.7444,-2.7148,-2.6798,-2.6757,-2.6727,-2.6685,-2.6685,-2.658,-2.6542,-2.6567,-2.6314,-2.6198,-2.6108,-2.5965,-2.5784,-2.5499,-2.5383,-2.5206,-2.5001,-2.4705,-2.4621,-2.4795,-2.4688,-2.4342,-2.3728,-2.3441,-2.3106,-2.2909,-2.2788,-2.2646,-2.2352,-2.2248,-2.2264,-2.2413,-2.2453,-2.244,-2.2401,-2.2283,-2.2166,-2.2166,-2.2165,-2.2165,-2.2192,-2.2336,-2.2453,-2.2481,-2.2507,-2.2746,-2.3187,-2.3125,-2.3158,-2.354,-2.3712,-2.3814,-2.3872,-2.3889,-2.3845,-2.3837,-2.3679,-2.3574,-2.3664,-2.3567,-2.3378,-2.3592,-2.362,-2.3665,-2.3603,-2.3595,-2.3595,-2.3595,-2.3595,-2.355,-2.3541,-2.3372,-2.3164,-2.2496,-2.1835,-2.1337,-2.0874,-2.0606,-2.0537,-2.0467,-2.0441,-2.0458,-2.0426,-2.0492,-2.0543,-2.0643,-2.0742,-2.122,-2.9675,-2.9128,-2.9416,-2.9691,-2.9909,-3.017,-3.0454,-3.0691,-3.0904,-3.1083,-3.1139,-3.1184,-3.1139,-3.0994,-3.0769,-3.0454,-3.0102,-2.9943,-2.9749,-2.9566,-2.9498,-2.9207,-2.8674,-2.8044,-2.7689,-2.7558,-2.7099,-2.6856,-2.6694,-2.6538,-2.6448,-2.6437,-2.6437,-2.6467,-2.6599,-2.6415,-2.6221,-2.616,-2.5983,-2.5784,-2.5605,-2.5596,-2.5454,-2.5215,-2.4993,-2.4919,-2.4762,-2.4746,-2.4636,-2.4396,-2.4307,-2.4094,-2.3653,-2.3517,-2.326,-2.2791,-2.2809,-2.2922,-2.3022,-2.3091,-2.3119,-2.3082,-2.291,-2.2727,-2.2714,-2.274,-2.274,-2.2727,-2.2951,-2.3093,-2.3119,-2.3091,-2.3347,-2.3712,-2.3737,-2.377,-2.4014,-2.4131,-2.4201,-2.4299,-2.4258,-2.424,-2.4351,-2.4097,-2.41,-2.4168,-2.4098,-2.3934,-2.3866,-2.3792,-2.3733,-2.3725,-2.3584,-2.3532,-2.3502,-2.3502,-2.348,-2.3486,-2.3463,-2.3355,-2.2876,-2.2168,-2.1829,-2.1368,-2.092,-2.0612,-2.0615,-2.0496,-2.0218,-2.0235,-2.0287,-2.0526,-2.0719,-2.0962,-2.1393,-2.9623,-2.9159,-2.9104,-2.922,-2.9485,-2.9748,-2.992,-3.017,-3.0352,-3.0589,-3.0748,-3.0838,-3.0646,-3.0442,-3.0216,-3.0,-2.9748,-2.9497,-2.9393,-2.9312,-2.9325,-2.9125,-2.8701,-2.8254,-2.8009,-2.7876,-2.7528,-2.7121,-2.6816,-2.6422,-2.6212,-2.621,-2.6199,-2.6271,-2.6426,-2.6475,-2.6274,-2.5994,-2.6026,-2.5882,-2.5721,-2.5684,-2.5559,-2.5324,-2.5277,-2.511,-2.4824,-2.4788,-2.4847,-2.4996,-2.516,-2.4804,-2.444,-2.4402,-2.4216,-2.3863,-2.3867,-2.397,-2.4088,-2.4164,-2.42,-2.4099,-2.3668,-2.3341,-2.3341,-2.3315,-2.33,-2.3287,-2.3783,-2.3887,-2.3955,-2.4005,-2.404,-2.4142,-2.4213,-2.4509,-2.4741,-2.4585,-2.4517,-2.4823,-2.4337,-2.4254,-2.4349,-2.4404,-2.4387,-2.4533,-2.4451,-2.433,-2.4262,-2.4296,-2.4099,-2.3894,-2.371,-2.3482,-2.3452,-2.3393,-2.3349,-2.3326,-2.3348,-2.3251,-2.3074,-2.2594,-2.237,-2.1993,-2.1413,-2.1099,-2.1046,-2.0776,-2.0415,-2.0484,-2.088,-2.1023,-2.117,-2.1402,-2.1758,-2.9869,-2.9398,-2.9014,-2.8989,-2.9174,-2.9266,-2.9405,-2.9669,-2.9715,-2.9806,-2.9863,-2.9863,-2.9817,-2.976,-2.9658,-2.9439,-2.9093,-2.8989,-2.8839,-2.8664,-2.8896,-2.891,-2.8725,-2.8419,-2.822,-2.8009,-2.7524,-2.7129,-2.6747,-2.6647,-2.6309,-2.6045,-2.6056,-2.5979,-2.6063,-2.6229,-2.6249,-2.6168,-2.63,-2.6113,-2.5846,-2.5774,-2.5616,-2.5236,-2.5089,-2.5138,-2.5214,-2.5076,-2.506,-2.5095,-2.495,-2.4811,-2.4727,-2.4708,-2.4646,-2.457,-2.4652,-2.4834,-2.5066,-2.5055,-2.507,-2.4805,-2.4622,-2.4429,-2.3955,-2.3968,-2.3926,-2.3913,-2.4047,-2.42,-2.4197,-2.4135,-2.42,-2.4285,-2.435,-2.4414,-2.4465,-2.4714,-2.4872,-2.5025,-2.508,-2.5176,-2.5215,-2.4885,-2.481,-2.4881,-2.4801,-2.4702,-2.4704,-2.4766,-2.4489,-2.4197,-2.4011,-2.3821,-2.3718,-2.361,-2.3443,-2.3333,-2.3282,-2.3194,-2.3008,-2.2835,-2.2566,-2.222,-2.1814,-2.1615,-2.1494,-2.1476,-2.1216,-2.136,-2.1409,-2.1557,-2.1687,-2.1892,-2.2248,-2.9938,-2.9287,-2.8921,-2.8672,-2.8628,-2.8699,-2.8943,-2.9174,-2.9255,-2.9393,-2.9485,-2.9531,-2.9439,-2.9312,-2.9209,-2.8943,-2.8664,-2.8477,-2.8373,-2.829,-2.8477,-2.8628,-2.8642,-2.862,-2.8501,-2.8287,-2.7883,-2.7512,-2.726,-2.6977,-2.6715,-2.6235,-2.6202,-2.6103,-2.5928,-2.6032,-2.6063,-2.6052,-2.6188,-2.6168,-2.601,-2.5995,-2.5813,-2.539,-2.5154,-2.5139,-2.5498,-2.5424,-2.5495,-2.5599,-2.5429,-2.5127,-2.4954,-2.4934,-2.4867,-2.4671,-2.484,-2.4988,-2.5186,-2.5395,-2.5436,-2.5375,-2.5367,-2.521,-2.4988,-2.4892,-2.4849,-2.4788,-2.4771,-2.4758,-2.4667,-2.468,-2.4654,-2.4697,-2.478,-2.4887,-2.4942,-2.4909,-2.4892,-2.5033,-2.5077,-2.5231,-2.5246,-2.5093,-2.5254,-2.5263,-2.5396,-2.5303,-2.5081,-2.5081,-2.4821,-2.4572,-2.4375,-2.4211,-2.4086,-2.3911,-2.3635,-2.3454,-2.3287,-2.3155,-2.2981,-2.2812,-2.2658,-2.2428,-2.2224,-2.2058,-2.1956,-2.1944,-2.1809,-2.154,-2.154,-2.1899,-2.2209,-2.2379,-2.2813,-2.9994,-2.9214,-2.8871,-2.8466,-2.8173,-2.8275,-2.8477,-2.8699,-2.885,-2.8978,-2.9209,-2.9255,-2.9024,-2.8885,-2.8757,-2.8535,-2.8243,-2.8102,-2.7961,-2.7998,-2.8196,-2.8348,-2.8373,-2.847,-2.853,-2.8609,-2.8296,-2.8056,-2.7827,-2.7587,-2.7195,-2.6759,-2.6693,-2.6507,-2.6136,-2.6016,-2.6036,-2.597,-2.5979,-2.6021,-2.606,-2.6091,-2.5994,-2.5824,-2.5373,-2.5312,-2.559,-2.5631,-2.5751,-2.6168,-2.6119,-2.5817,-2.5448,-2.5154,-2.5028,-2.4525,-2.4934,-2.5202,-2.5463,-2.5633,-2.5852,-2.5899,-2.5923,-2.5832,-2.5722,-2.5605,-2.5504,-2.5449,-2.536,-2.5285,-2.5281,-2.5185,-2.521,-2.5249,-2.5382,-2.556,-2.5548,-2.509,-2.4957,-2.5037,-2.5133,-2.5233,-2.5198,-2.5107,-2.5439,-2.5674,-2.5797,-2.5821,-2.557,-2.5457,-2.5254,-2.5091,-2.4912,-2.4488,-2.4316,-2.423,-2.3961,-2.38,-2.3548,-2.3325,-2.3122,-2.2905,-2.2826,-2.2886,-2.2738,-2.251,-2.2376,-2.2378,-2.2126,-2.1648,-2.1848,-2.2414,-2.2676,-2.2834,-2.329,-3.008,-2.9867,-2.903,-2.8647,-2.853,-2.8215,-2.8092,-2.8128,-2.8233,-2.8222,-2.8269,-2.8269,-2.8315,-2.8222,-2.8175,-2.7998,-2.7773,-2.7678,-2.7678,-2.7726,-2.7914,-2.8055,-2.8102,-2.8186,-2.8175,-2.8269,-2.8315,-2.8315,-2.8054,-2.7882,-2.7609,-2.726,-2.7206,-2.6966,-2.6627,-2.6485,-2.6299,-2.6037,-2.5983,-2.6014,-2.5948,-2.5979,-2.6041,-2.6008,-2.5628,-2.5561,-2.5678,-2.5593,-2.5549,-2.5781,-2.5942,-2.6007,-2.5966,-2.5696,-2.5521,-2.5561,-2.5566,-2.5723,-2.6063,-2.6426,-2.6435,-2.6284,-2.6337,-2.6186,-2.5862,-2.5764,-2.5862,-2.5671,-2.5518,-2.5358,-2.5307,-2.5409,-2.5326,-2.5345,-2.5422,-2.5486,-2.5453,-2.5386,-2.5253,-2.5375,-2.5305,-2.5167,-2.5099,-2.5082,-2.524,-2.541,-2.555,-2.5688,-2.5683,-2.576,-2.5879,-2.5692,-2.5505,-2.4986,-2.4483,-2.4465,-2.4343,-2.4307,-2.4096,-2.3782,-2.3531,-2.312,-2.3014,-2.3162,-2.3105,-2.2878,-2.279,-2.2731,-2.2694,-2.2438,-2.2693,-2.2986,-2.3022,-2.3078,-2.3349,-3.0123,-2.9787,-2.9003,-2.8485,-2.8261,-2.7963,-2.782,-2.7809,-2.7951,-2.7987,-2.7987,-2.7987,-2.7987,-2.794,-2.7809,-2.7631,-2.7499,-2.7452,-2.7452,-2.7499,-2.7678,-2.7773,-2.7809,-2.7904,-2.7987,-2.8081,-2.8258,-2.8276,-2.805,-2.8153,-2.7952,-2.7616,-2.7597,-2.7402,-2.7086,-2.6966,-2.6671,-2.6387,-2.6267,-2.6147,-2.5928,-2.5906,-2.599,-2.5944,-2.5865,-2.5815,-2.5924,-2.5913,-2.5988,-2.6263,-2.6244,-2.634,-2.6278,-2.6158,-2.5946,-2.619,-2.613,-2.6222,-2.6547,-2.6757,-2.6583,-2.6632,-2.6768,-2.6764,-2.6531,-2.6557,-2.6408,-2.6251,-2.6047,-2.5927,-2.5965,-2.5909,-2.5914,-2.5914,-2.5955,-2.5963,-2.6008,-2.6074,-2.5955,-2.5762,-2.5576,-2.5358,-2.5044,-2.5018,-2.5045,-2.5139,-2.5299,-2.5522,-2.573,-2.5798,-2.5935,-2.5849,-2.561,-2.5422,-2.4937,-2.4833,-2.4813,-2.4783,-2.4568,-2.4258,-2.4086,-2.3802,-2.3574,-2.3566,-2.3414,-2.3262,-2.2957,-2.2804,-2.298,-2.3112,-2.3069,-2.3054,-2.3172,-2.3327,-2.3622,-3.0078,-2.9691,-2.8936,-2.8351,-2.8017,-2.7671,-2.7536,-2.7584,-2.7773,-2.7809,-2.7857,-2.7857,-2.7857,-2.7809,-2.7631,-2.7452,-2.732,-2.7309,-2.7309,-2.7357,-2.7452,-2.7547,-2.7584,-2.7726,-2.7809,-2.7762,-2.7857,-2.7893,-2.8038,-2.8179,-2.8054,-2.7874,-2.795,-2.7802,-2.7422,-2.7324,-2.7085,-2.6868,-2.6715,-2.6464,-2.6157,-2.5961,-2.5895,-2.5895,-2.5895,-2.5957,-2.6049,-2.613,-2.6284,-2.6483,-2.6535,-2.656,-2.6662,-2.6389,-2.6415,-2.6733,-2.6472,-2.659,-2.6855,-2.7024,-2.7006,-2.6998,-2.7109,-2.7182,-2.7048,-2.6907,-2.6976,-2.6922,-2.6667,-2.642,-2.6379,-2.6471,-2.6471,-2.6445,-2.6523,-2.6607,-2.6553,-2.6511,-2.6413,-2.6171,-2.5877,-2.5612,-2.5315,-2.5318,-2.5375,-2.5384,-2.5542,-2.5541,-2.5698,-2.5494,-2.555,-2.5592,-2.5577,-2.5673,-2.5475,-2.5328,-2.5337,-2.5343,-2.5035,-2.4683,-2.4615,-2.4556,-2.4327,-2.4052,-2.3896,-2.3702,-2.3302,-2.2902,-2.2955,-2.3,-2.3037,-2.3176,-2.3411,-2.3648,-2.3894,-3.0015,-2.9881,-2.897,-2.8576,-2.838,-2.7652,-2.7357,-2.7357,-2.7404,-2.7394,-2.7452,-2.7394,-2.7441,-2.7394,-2.7404,-2.7357,-2.7309,-2.732,-2.732,-2.7309,-2.7357,-2.7347,-2.7347,-2.7357,-2.7452,-2.7489,-2.7441,-2.7631,-2.7857,-2.7998,-2.8034,-2.7964,-2.7946,-2.7864,-2.7675,-2.7677,-2.7484,-2.7282,-2.7228,-2.6998,-2.6562,-2.6168,-2.5983,-2.595,-2.5906,-2.5895,-2.5979,-2.6063,-2.624,-2.6302,-2.6505,-2.6666,-2.6842,-2.686,-2.7128,-2.7292,-2.7153,-2.6777,-2.7385,-2.7554,-2.7557,-2.7397,-2.7519,-2.7334,-2.7114,-2.6875,-2.6829,-2.676,-2.6602,-2.6499,-2.6487,-2.6487,-2.6487,-2.6487,-2.6521,-2.6521,-2.6555,-2.6589,-2.6531,-2.6506,-2.6209,-2.5915,-2.5639,-2.573,-2.5774,-2.5735,-2.5721,-2.5706,-2.5587,-2.5377,-2.5216,-2.5313,-2.5425,-2.5522,-2.5564,-2.5492,-2.5559,-2.5694,-2.5436,-2.5088,-2.512,-2.5055,-2.4805,-2.4537,-2.4409,-2.4105,-2.3627,-2.3264,-2.3018,-2.3128,-2.3449,-2.3624,-2.3755,-2.3979,-2.4218,-2.9601,-2.9539,-2.8897,-2.8462,-2.8152,-2.7531,-2.732,-2.732,-2.732,-2.732,-2.732,-2.732,-2.732,-2.732,-2.732,-2.732,-2.732,-2.732,-2.732,-2.732,-2.732,-2.732,-2.7309,-2.732,-2.732,-2.732,-2.732,-2.7394,-2.762,-2.7715,-2.7762,-2.782,-2.7893,-2.796,-2.7843,-2.8025,-2.7847,-2.7616,-2.7379,-2.7228,-2.6944,-2.6583,-2.6268,-2.6257,-2.6059,-2.5939,-2.5917,-2.5937,-2.6115,-2.6146,-2.6313,-2.6561,-2.6809,-2.6921,-2.7167,-2.7794,-2.768,-2.7654,-2.7899,-2.7866,-2.7815,-2.7822,-2.7839,-2.7744,-2.7275,-2.692,-2.673,-2.6692,-2.6602,-2.6512,-2.6524,-2.6487,-2.6487,-2.6487,-2.6487,-2.6487,-2.6487,-2.6487,-2.6496,-2.6521,-2.653,-2.6252,-2.6023,-2.5987,-2.598,-2.5934,-2.5814,-2.569,-2.5464,-2.5145,-2.507,-2.5018,-2.5159,-2.5328,-2.5383,-2.5384,-2.5481,-2.5591,-2.5686,-2.5458,-2.5592,-2.5526,-2.5257,-2.5156,-2.5128,-2.4712,-2.4066,-2.3902,-2.3911,-2.3931,-2.4012,-2.4172,-2.4341,-2.451,-2.4839,-2.9063,-2.8928,-2.8587,-2.8245,-2.7883,-2.7438,-2.732,-2.732,-2.732,-2.732,-2.732,-2.732,-2.732,-2.732,-2.732,-2.732,-2.732,-2.732,-2.732,-2.732,-2.732,-2.732,-2.732,-2.732,-2.732,-2.732,-2.732,-2.7357,-2.7357,-2.7441,-2.7536,-2.7547,-2.7668,-2.7788,-2.794,-2.8075,-2.8079,-2.805,-2.7684,-2.7511,-2.7413,-2.7042,-2.6813,-2.6617,-2.6344,-2.5997,-2.5986,-2.5749,-2.5801,-2.5979,-2.6021,-2.6271,-2.6674,-2.6891,-2.7231,-2.7748,-2.7917,-2.8182,-2.8297,-2.8271,-2.8114,-2.8175,-2.8122,-2.7967,-2.7748,-2.7243,-2.7053,-2.718,-2.7097,-2.6939,-2.6751,-2.6725,-2.6637,-2.6587,-2.6487,-2.6487,-2.6487,-2.6499,-2.6487,-2.6487,-2.6521,-2.6555,-2.6363,-2.6265,-2.6197,-2.6129,-2.5965,-2.5764,-2.5493,-2.5162,-2.5121,-2.5128,-2.507,-2.5157,-2.52,-2.5285,-2.5369,-2.548,-2.5578,-2.566,-2.5713,-2.5833,-2.574,-2.5716,-2.5716,-2.5592,-2.5178,-2.4982,-2.481,-2.4592,-2.4476,-2.4766,-2.4955,-2.5125,-2.5411,-2.8411,-2.7958,-2.7986,-2.7896,-2.7872,-2.7496,-2.732,-2.732,-2.732,-2.732,-2.732,-2.732,-2.732,-2.732,-2.732,-2.732,-2.732,-2.732,-2.732,-2.732,-2.732,-2.732,-2.732,-2.732,-2.732,-2.732,-2.732,-2.732,-2.732,-2.7309,-2.7357,-2.7347,-2.7473,-2.751,-2.7678,-2.7998,-2.8351,-2.8378,-2.8189,-2.7958,-2.7816,-2.7511,-2.7282,-2.7129,-2.6683,-2.6271,-2.6249,-2.5765,-2.555,-2.5772,-2.5791,-2.6052,-2.6561,-2.6809,-2.7219,-2.776,-2.8151,-2.8386,-2.8572,-2.885,-2.9047,-2.8775,-2.8473,-2.8185,-2.8132,-2.8058,-2.7982,-2.7832,-2.7706,-2.7605,-2.7369,-2.7228,-2.709,-2.6927,-2.6826,-2.67,-2.665,-2.6512,-2.6499,-2.6487,-2.6521,-2.6521,-2.6521,-2.6396,-2.6481,-2.6416,-2.6123,-2.5896,-2.5754,-2.5515,-2.5415,-2.5338,-2.5097,-2.5051,-2.4998,-2.5139,-2.5362,-2.5435,-2.5465,-2.5536,-2.5646,-2.5769,-2.5864,-2.5997,-2.5932,-2.6122,-2.621,-2.5726,-2.5271,-2.4998,-2.5009,-2.5415,-2.5734,-2.5923,-2.617,-2.7924,-2.7521,-2.751,-2.7521,-2.75,-2.7382,-2.732,-2.732,-2.732,-2.732,-2.732,-2.732,-2.732,-2.732,-2.732,-2.732,-2.732,-2.732,-2.732,-2.732,-2.732,-2.732,-2.732,-2.732,-2.732,-2.732,-2.732,-2.732,-2.732,-2.7361,-2.7489,-2.751,-2.7496,-2.7462,-2.7631,-2.803,-2.843,-2.8631,-2.8593,-2.8484,-2.8386,-2.7991,-2.7718,-2.7685,-2.7094,-2.6756,-2.6648,-2.6152,-2.5969,-2.5926,-2.5859,-2.6181,-2.6542,-2.6791,-2.726,-2.7852,-2.8191,-2.8498,-2.8764,-2.9079,-2.9254,-2.9376,-2.8976,-2.8574,-2.8586,-2.8348,-2.816,-2.8097,-2.8185,-2.8072,-2.7883,-2.7783,-2.7682,-2.748,-2.7266,-2.7065,-2.6939,-2.6839,-2.6637,-2.6688,-2.6575,-2.6487,-2.6487,-2.6496,-2.6586,-2.668,-2.636,-2.6083,-2.5955,-2.5808,-2.569,-2.5651,-2.5458,-2.5458,-2.5464,-2.5448,-2.5445,-2.5439,-2.5431,-2.5588,-2.5743,-2.5578,-2.5674,-2.5894,-2.6072,-2.615,-2.6128,-2.6026,-2.5856,-2.5702,-2.5868,-2.6199,-2.646,-2.6646,-2.6794,-2.7541,-2.733,-2.732,-2.732,-2.732,-2.732,-2.732,-2.732,-2.732,-2.732,-2.732,-2.732,-2.732,-2.732,-2.732,-2.732,-2.732,-2.732,-2.732,-2.732,-2.732,-2.732,-2.732,-2.732,-2.732,-2.732,-2.732,-2.733,-2.751,-2.7469,-2.7748,-2.7914,-2.7928,-2.7927,-2.7889,-2.8166,-2.8535,-2.8757,-2.8803,-2.8803,-2.8727,-2.8451,-2.8254,-2.8132,-2.7571,-2.7175,-2.699,-2.6579,-2.6344,-2.6292,-2.6281,-2.6369,-2.6688,-2.7023,-2.7365,-2.78,-2.8243,-2.8578,-2.8803,-2.9079,-2.9365,-2.9564,-2.9453,-2.9214,-2.9063,-2.8812,-2.88,-2.8725,-2.8674,-2.8536,-2.8436,-2.8348,-2.816,-2.7896,-2.7708,-2.7519,-2.7469,-2.7369,-2.709,-2.6901,-2.6801,-2.6751,-2.6499,-2.6499,-2.6521,-2.6658,-2.657,-2.6345,-2.6291,-2.6097,-2.5896,-2.5892,-2.5852,-2.595,-2.6087,-2.5978,-2.5861,-2.5953,-2.5937,-2.5934,-2.5969,-2.5822,-2.577,-2.6078,-2.6204,-2.6146,-2.6098,-2.6032,-2.6287,-2.6544,-2.6611,-2.6591,-2.675,-2.6881,-2.7099,-2.733,-2.732,-2.732,-2.732,-2.732,-2.732,-2.732,-2.732,-2.732,-2.732,-2.732,-2.732,-2.732,-2.732,-2.732,-2.732,-2.732,-2.732,-2.732,-2.732,-2.732,-2.732,-2.732,-2.732,-2.7361,-2.732,-2.7413,-2.7572,-2.7914,-2.7914,-2.8183,-2.8572,-2.8731,-2.8698,-2.8313,-2.8395,-2.8556,-2.8757,-2.8803,-2.8803,-2.8781,-2.8716,-2.8683,-2.8517,-2.8026,-2.7581,-2.7326,-2.704,-2.677,-2.6674,-2.6672,-2.6841,-2.7102,-2.7389,-2.7638,-2.7893,-2.8283,-2.8578,-2.8803,-2.9184,-2.947,-2.974,-2.9603,-2.9616,-2.9691,-2.9654,-2.9528,-2.9327,-2.9478,-2.934,-2.9139,-2.885,-2.8649,-2.8461,-2.8285,-2.8084,-2.8021,-2.7808,-2.7494,-2.7306,-2.7231,-2.714,-2.6751,-2.6512,-2.6499,-2.6555,-2.6624,-2.6603,-2.6511,-2.6442,-2.6211,-2.6206,-2.6259,-2.6335,-2.6429,-2.6307,-2.6281,-2.639,-2.6364,-2.6272,-2.6364,-2.6412,-2.6395,-2.6434,-2.6438,-2.6496,-2.6287,-2.61,-2.6614,-2.7088,-2.6814,-2.6779,-2.6953,-2.7171,-2.7403,-2.732,-2.732,-2.732,-2.732,-2.732,-2.732,-2.732,-2.732,-2.732,-2.732,-2.732,-2.732,-2.732,-2.732,-2.732,-2.732,-2.732,-2.732,-2.732,-2.732,-2.732,-2.732,-2.733,-2.7392,-2.7486,-2.7634,-2.7728,-2.7935,-2.838,-2.838,-2.8649,-2.906,-2.9476,-2.9335,-2.9047,-2.8975,-2.9081,-2.8869,-2.8803,-2.8803,-2.8814,-2.8803,-2.8803,-2.8792,-2.834,-2.8011,-2.7782,-2.7468,-2.7297,-2.7166,-2.7215,-2.7336,-2.75,-2.7717,-2.7988,-2.8062,-2.8307,-2.8669,-2.8922,-2.9275,-2.9509,-2.9689,-2.9779,-2.9779,-2.9779,-2.9779,-2.9779,-2.9779,-2.9779,-2.9628,-2.9541,-2.949,-2.934,-2.9252,-2.9063,-2.8712,-2.8524,-2.821,-2.7921,-2.7858,-2.7795,-2.7519,-2.7216,-2.6914,-2.6826,-2.665,-2.6719,-2.664,-2.6501,-2.6603,-2.6536,-2.6603,-2.664,-2.6716,-2.6746,-2.6614,-2.6609,-2.6741,-2.6561,-2.634,-2.6516,-2.6925,-2.6843,-2.6763,-2.684,-2.6846,-2.676,-2.6793,-2.7301,-2.7568,-2.7273,-2.7178,-2.7407,-2.7623,-2.7768,-2.7023,-2.7023,-2.7023,-2.7023,-2.7071,-2.7214,-2.732,-2.732,-2.732,-2.732,-2.732,-2.732,-2.732,-2.732,-2.732,-2.732,-2.732,-2.732,-2.732,-2.732,-2.732,-2.7423,-2.7458,-2.7521,-2.78,-2.8038,-2.8154,-2.84,-2.8835,-2.8856,-2.9267,-2.9794,-3.0134,-3.0106,-2.9867,-2.9763,-2.951,-2.9252,-2.9121,-2.9,-2.8891,-2.8803,-2.8803,-2.8757,-2.8595,-2.8409,-2.8193,-2.8079,-2.7966,-2.7837,-2.785,-2.7933,-2.798,-2.8264,-2.8531,-2.8563,-2.8778,-2.9019,-2.9153,-2.9404,-2.965,-2.9779,-2.9779,-2.9779,-2.9779,-2.9779,-2.9779,-2.9779,-2.9779,-2.9779,-2.9779,-2.9779,-2.9741,-2.9641,-2.9528,-2.9176,-2.9076,-2.8775,-2.8574,-2.8511,-2.8298,-2.7996,-2.767,-2.7406,-2.7193,-2.7014,-2.6813,-2.67,-2.6587,-2.6615,-2.6671,-2.6679,-2.6735,-2.6764,-2.6809,-2.684,-2.6882,-2.7059,-2.6892,-2.6635,-2.7086,-2.7539,-2.7327,-2.7166,-2.7291,-2.7377,-2.7365,-2.7531,-2.7751,-2.7826,-2.7639,-2.7679,-2.7904,-2.8133,-2.8349,-2.6496,-2.6496,-2.6496,-2.6496,-2.6592,-2.6976,-2.7167,-2.7272,-2.7272,-2.7262,-2.7262,-2.7225,-2.7225,-2.7262,-2.7309,-2.732,-2.732,-2.732,-2.7372,-2.7392,-2.7455,-2.7614,-2.7841,-2.7966,-2.8235,-2.8493,-2.869,-2.8866,-2.928,-2.9321,-2.9827,-3.0461,-3.0596,-3.0646,-3.0621,-3.0455,-3.0067,-2.9674,-2.9536,-2.9339,-2.9088,-2.8924,-2.8891,-2.8811,-2.871,-2.8571,-2.8491,-2.8484,-2.8484,-2.8446,-2.855,-2.8633,-2.8844,-2.915,-2.9332,-2.9486,-2.9714,-2.9609,-2.9352,-2.9656,-2.9727,-2.9829,-2.9779,-2.9779,-2.9779,-2.9779,-2.9779,-2.9779,-2.9779,-2.9779,-2.9779,-2.9779,-2.9779,-2.9754,-2.9754,-2.9666,-2.9679,-2.9503,-2.9315,-2.9139,-2.8888,-2.8586,-2.8222,-2.7921,-2.7645,-2.7457,-2.7316,-2.7203,-2.7014,-2.6549,-2.6593,-2.6568,-2.6624,-2.6679,-2.6752,-2.6824,-2.6945,-2.707,-2.7281,-2.7223,-2.7676,-2.791,-2.7731,-2.7647,-2.7795,-2.7872,-2.7905,-2.7897,-2.7911,-2.7948,-2.818,-2.824,-2.8455,-2.8886,-2.9175,-2.6352,-2.6496,-2.6496,-2.64,-2.6245,-2.6187,-2.638,-2.6688,-2.6736,-2.6736,-2.6736,-2.6938,-2.6996,-2.7044,-2.7214,-2.7272,-2.732,-2.7361,-2.751,-2.7603,-2.7717,-2.8028,-2.8266,-2.8442,-2.8721,-2.897,-2.9166,-2.9311,-2.9684,-2.9777,-3.0047,-3.0703,-3.0776,-3.0987,-3.1186,-3.1269,-3.0679,-3.0231,-3.0057,-2.9707,-2.946,-2.9318,-2.9175,-2.9011,-2.8891,-2.8751,-2.8647,-2.8686,-2.8628,-2.8505,-2.8984,-2.9126,-2.8735,-2.9441,-2.9934,-2.9941,-3.0202,-3.0311,-2.9871,-3.0119,-3.0244,-2.9942,-2.9842,-2.9792,-2.9779,-2.9779,-2.9779,-2.9779,-2.9779,-2.9779,-2.9779,-2.9779,-2.9779,-2.9779,-2.9779,-2.9779,-2.9779,-2.9729,-2.9566,-2.949,-2.9252,-2.9038,-2.8699,-2.8411,-2.8147,-2.7971,-2.7821,-2.7695,-2.7394,-2.6952,-2.6675,-2.6663,-2.6533,-2.6589,-2.6645,-2.6731,-2.6905,-2.7053,-2.7201,-2.7369,-2.755,-2.7716,-2.7906,-2.804,-2.8116,-2.8275,-2.8461,-2.8433,-2.8327,-2.8803,-2.9026,-2.9015,-2.9067,-2.9388,-2.9694,-2.5713,-2.5858,-2.5858,-2.5761,-2.5616,-2.546,-2.5606,-2.5907,-2.6207,-2.6342,-2.6342,-2.6602,-2.6757,-2.6794,-2.6976,-2.7129,-2.7139,-2.7452,-2.7696,-2.7831,-2.8072,-2.8493,-2.8752,-2.8928,-2.9177,-2.9425,-2.9601,-2.9694,-2.9953,-3.0047,-3.0245,-3.0609,-3.0734,-3.1075,-3.1289,-3.1407,-3.1262,-3.0837,-3.0559,-3.0209,-2.9958,-2.9773,-2.9554,-2.9347,-2.923,-2.8969,-2.882,-2.8943,-2.8686,-2.8675,-2.9209,-2.9373,-2.9207,-2.9947,-3.0442,-3.0512,-3.0779,-3.0748,-3.0425,-3.068,-3.0528,-3.0281,-3.0105,-2.998,-2.9854,-2.9779,-2.9779,-2.9779,-2.9779,-2.9779,-2.9779,-2.9779,-2.9779,-2.9779,-2.9779,-2.9779,-2.9779,-2.9779,-2.9754,-2.9716,-2.9578,-2.9402,-2.9139,-2.8875,-2.8662,-2.8511,-2.8348,-2.8185,-2.7808,-2.7316,-2.7065,-2.6977,-2.67,-2.6533,-2.6602,-2.6683,-2.676,-2.6863,-2.693,-2.71,-2.7302,-2.7556,-2.7756,-2.8065,-2.8371,-2.8473,-2.8502,-2.8762,-2.8856,-2.9194,-2.932,-2.9229,-2.9235,-2.9579,-2.9872,-2.4833,-2.4833,-2.4784,-2.4833,-2.4784,-2.4784,-2.4784,-2.4883,-2.5509,-2.5945,-2.6004,-2.6245,-2.6352,-2.64,-2.664,-2.6842,-2.7109,-2.749,-2.7855,-2.8017,-2.8483,-2.8918,-2.9239,-2.9373,-2.9559,-2.9839,-2.9973,-2.9901,-2.9963,-3.0047,-3.0141,-3.0401,-3.062,-3.092,-3.123,-3.1424,-3.1396,-3.1389,-3.1061,-3.0734,-3.0395,-3.0264,-3.0231,-3.0078,-2.9805,-2.9521,-2.9412,-2.9208,-2.8847,-2.8998,-2.9174,-2.9474,-3.0,-3.0418,-3.0817,-3.1144,-3.1394,-3.1234,-3.107,-3.1228,-3.1079,-3.0871,-3.067,-3.0407,-3.0193,-2.9854,-2.9792,-2.9792,-2.9779,-2.9779,-2.9779,-2.9779,-2.9779,-2.9779,-2.9779,-2.9779,-2.9779,-2.9779,-2.9779,-2.9754,-2.9716,-2.9566,-2.9553,-2.9289,-2.9202,-2.9051,-2.895,-2.8775,-2.8436,-2.7871,-2.757,-2.7429,-2.7027,-2.6776,-2.671,-2.6732,-2.6627,-2.6658,-2.6752,-2.6829,-2.7032,-2.7302,-2.7636,-2.7901,-2.8151,-2.8268,-2.8371,-2.8605,-2.878,-2.8908,-2.9035,-2.9176,-2.9373,-2.9628,-2.9844,-2.4075,-2.4273,-2.4084,-2.3985,-2.3985,-2.3845,-2.3795,-2.3795,-2.4134,-2.4677,-2.5177,-2.5479,-2.5713,-2.5897,-2.6197,-2.6458,-2.6947,-2.748,-2.7973,-2.8454,-2.8878,-2.9321,-2.9725,-2.9746,-2.988,-2.9942,-2.9994,-2.9994,-2.9994,-3.0047,-3.0141,-3.0391,-3.0557,-3.0713,-3.1127,-3.127,-3.1362,-3.1516,-3.1465,-3.1149,-3.081,-3.0679,-3.0614,-3.0362,-3.0046,-3.0035,-2.9882,-2.9587,-2.9368,-2.9376,-2.9422,-2.9897,-3.0612,-3.1005,-3.1303,-3.1548,-3.1845,-3.1737,-3.1625,-3.1697,-3.1696,-3.1399,-3.1135,-3.0846,-3.0507,-3.0055,-2.9817,-2.9817,-2.9779,-2.9779,-2.9779,-2.9779,-2.9779,-2.9779,-2.9779,-2.9779,-2.9779,-2.9779,-2.9779,-2.9779,-2.9779,-2.9779,-2.9779,-2.9767,-2.9716,-2.9654,-2.9603,-2.9465,-2.9264,-2.8825,-2.8348,-2.8059,-2.7444,-2.7155,-2.7052,-2.6977,-2.6961,-2.6795,-2.686,-2.6853,-2.6798,-2.7066,-2.7403,-2.7636,-2.7868,-2.8006,-2.8203,-2.8333,-2.8495,-2.8638,-2.878,-2.8908,-2.9122,-2.9348,-2.9588,-2.3377,-2.3511,-2.3565,-2.3538,-2.3538,-2.3447,-2.3406,-2.3447,-2.3538,-2.3786,-2.4291,-2.4686,-2.503,-2.5304,-2.5703,-2.6172,-2.6769,-2.7547,-2.8155,-2.8757,-2.9281,-2.9673,-2.9922,-2.9994,-2.9984,-2.9994,-2.9994,-2.9994,-2.9994,-2.9994,-3.0099,-3.0245,-3.0349,-3.0547,-3.092,-3.1023,-3.123,-3.1435,-3.1527,-3.1404,-3.1142,-3.1149,-3.1127,-3.0854,-3.0657,-3.0581,-3.0362,-3.0057,-2.9718,-2.9613,-2.9604,-3.0102,-3.0748,-3.1128,-3.1439,-3.1737,-3.2008,-3.2253,-3.2124,-3.2152,-3.2303,-3.1951,-3.175,-3.1512,-3.1085,-3.0645,-3.0206,-3.0156,-2.9829,-2.9779,-2.9779,-2.9779,-2.9779,-2.9779,-2.9779,-2.9779,-2.9779,-2.9779,-2.9779,-2.9779,-2.9779,-2.9779,-2.9779,-2.9779,-2.9741,-2.9741,-2.9779,-2.9779,-2.9641,-2.9541,-2.9139,-2.875,-2.8147,-2.7745,-2.7632,-2.7519,-2.7467,-2.7264,-2.7021,-2.6914,-2.6929,-2.6994,-2.7154,-2.7499,-2.7747,-2.7822,-2.7973,-2.8265,-2.8308,-2.843,-2.856,-2.8624,-2.8894,-2.9261,-2.9582,-2.2638,-2.2735,-2.3088,-2.3247,-2.3297,-2.3297,-2.3306,-2.3297,-2.3306,-2.3297,-2.3397,-2.3994,-2.4282,-2.4677,-2.5128,-2.5789,-2.6457,-2.7282,-2.8087,-2.887,-2.9517,-2.9786,-2.9953,-2.9994,-2.9994,-2.9994,-2.9994,-2.9994,-2.9994,-2.9994,-2.9994,-3.0047,-3.0193,-3.0391,-3.0557,-3.0765,-3.1075,-3.1178,-3.127,-3.1424,-3.1505,-3.1567,-3.1502,-3.1411,-3.1207,-3.0957,-3.0804,-3.0488,-3.003,-3.0068,-3.0081,-3.0572,-3.0943,-3.1356,-3.1484,-3.1749,-3.2157,-3.232,-3.2401,-3.2698,-3.2619,-3.2466,-3.2365,-3.2089,-3.165,-3.1286,-3.0846,-3.0482,-3.0168,-2.9942,-2.9942,-2.9817,-2.9817,-2.9779,-2.9779,-2.9779,-2.9779,-2.9779,-2.9779,-2.9779,-2.9779,-2.9779,-2.9779,-2.9779,-2.9779,-2.9779,-2.9779,-2.9779,-2.9767,-2.9704,-2.949,-2.9264,-2.8913,-2.8574,-2.8285,-2.8021,-2.7871,-2.7769,-2.7515,-2.7211,-2.7101,-2.7379,-2.7566,-2.755,-2.7751,-2.7981,-2.8183,-2.845,-2.8452,-2.8484,-2.8811,-2.9099,-2.9265,-2.9574,-2.9769,-2.1722,-2.2169,-2.2281,-2.2476,-2.2736,-2.2736,-2.2745,-2.2745,-2.2795,-2.2736,-2.2896,-2.3147,-2.3538,-2.4174,-2.4273,-2.4939,-2.6073,-2.6937,-2.779,-2.854,-2.9318,-2.9733,-2.9931,-2.9994,-2.9994,-2.9994,-2.9994,-2.9994,-2.9994,-2.9994,-2.9994,-2.9994,-2.9994,-3.0193,-3.0391,-3.0609,-3.0713,-3.0868,-3.0972,-3.1023,-3.1127,-3.127,-3.1567,-3.1472,-3.1297,-3.1334,-3.1204,-3.0756,-3.0749,-3.0869,-3.0986,-3.124,-3.1431,-3.1636,-3.1728,-3.1846,-3.2211,-3.2356,-3.2574,-3.2865,-3.28,-3.2898,-3.2729,-3.2591,-3.2252,-3.2051,-3.1637,-3.126,-3.0934,-3.0583,-3.0444,-3.003,-2.9905,-2.9817,-2.9779,-2.9779,-2.9779,-2.9779,-2.9779,-2.9779,-2.9779,-2.9779,-2.9779,-2.9779,-2.9779,-2.9779,-2.9779,-2.9779,-2.9779,-2.9779,-2.9779,-2.9628,-2.9453,-2.9227,-2.8838,-2.8448,-2.8247,-2.8134,-2.8009,-2.7769,-2.7752,-2.805,-2.8142,-2.7979,-2.8161,-2.8466,-2.8616,-2.859,-2.8929,-2.9074,-2.9424,-2.9675,-2.9787,-2.9889,-3.0113]},{"header":{"parameterUnit":"m.s-1","parameterCategory":1,"la1":31.0,"la2":29.5877,"lo1":-88.7671,"lo2":-86.6584,"dy":0.0162,"dx":0.0185,"nx":115,"ny":88,"refTime":"2023-09-04T12:00:00:Z","depth":0,"parameterNumber":3,"parameterNumberName":"V-component_of_WINDS"},"data":[0.0,0.0,0.0,0.0,0.0,0.0,0.0,0.0,0.0,0.0,0.0,0.0,0.0,0.0,0.0,0.0,0.0,0.0,0.0,0.0,0.0,0.0,0.0,0.0,0.0,0.0,0.0,0.0,0.0,0.0,0.0,0.0,0.0,0.0,0.0,0.0,0.0,0.0,0.0,0.0,0.0,0.0,0.0,0.0,0.0,0.0,0.0,0.0,0.0,0.0,0.0,0.0,0.0,0.0,0.0,0.0,0.0,0.0,0.0,0.0,0.0,0.0,0.0,0.0,0.0,0.0,0.0,0.0,0.0,0.0,0.0,0.0,0.0,0.0,0.0,0.0,0.0,0.0,0.0,0.0,0.0,0.0,0.0,0.0,0.0,0.0,0.0,0.0,0.0,0.0,0.0,0.0,0.0,0.0,0.0,0.0,0.0,0.0,0.0,0.0,0.0,0.0,0.0,0.0,0.0,0.0,0.0,0.0,0.0,0.0,0.0,0.0,0.0,0.0,0.0,0.0,0.0,0.0,0.0,0.0,0.0,0.0,0.0,0.0,0.0,0.0,0.0,0.0,0.0,0.0,0.0,0.0,0.0,0.0,0.0,0.0,0.0,0.0,0.0,0.0,0.0,0.0,0.0,0.0,0.0,0.0,0.0,0.0,0.0,0.0,0.0,0.0,0.0,0.0,0.0,0.0,0.0,0.0,0.0,0.0,0.0,0.0,0.0,0.0,0.0,0.0,0.0,0.0,0.0,0.0,0.0,0.0,0.0,0.0,0.0,0.0,0.0,0.0,0.0,0.0,0.0,0.0,0.0,0.0,0.0,0.0,0.0,0.0,0.0,0.0,0.0,0.0,0.0,0.0,0.0,0.0,0.0,0.0,0.0,0.0,0.0,0.0,0.0,0.0,0.0,0.0,0.0,0.0,0.0,0.0,0.0,0.0,0.0,0.0,0.0,0.0,0.0,0.0,0.0,0.0,0.0,0.0,0.0,0.0,0.0,0.0,0.0,0.0,0.0,0.0,0.0,0.0,0.0,0.0,0.0,0.0,0.0,0.0,0.0,0.0,0.0,0.0,0.0,0.0,0.0,0.0,0.0,0.0,0.0,0.0,0.0,0.0,0.0,0.0,0.0,0.0,0.0,0.0,0.0,0.0,0.0,0.0,0.0,0.0,0.0,0.0,0.0,0.0,0.0,0.0,0.0,0.0,0.0,0.0,0.0,0.0,0.0,0.0,0.0,0.0,0.0,0.0,0.0,0.0,0.0,0.0,0.0,0.0,0.0,0.0,0.0,0.0,0.0,0.0,0.0,0.0,0.0,0.0,0.0,0.0,0.0,0.0,0.0,0.0,0.0,0.0,0.0,0.0,0.0,0.0,0.0,0.0,0.0,0.0,0.0,0.0,0.0,0.0,0.0,0.0,0.0,0.0,0.0,0.0,0.0,0.0,0.0,0.0,0.0,0.0,0.0,0.0,0.0,0.0,0.0,0.0,0.0,0.0,0.0,0.0,0.0,0.0,0.0,0.0,0.0,0.0,0.0,0.0,0.0,0.0,0.0,0.0,0.0,0.0,0.0,0.0,0.0,0.0,0.0,0.0,0.0,0.0,0.0,0.0,0.0,0.0,0.0,0.0,0.0,0.0,0.0,0.0,0.0,0.0,0.0,0.0,0.0,0.0,0.0,0.0,0.0,0.0,0.0,0.0,0.0,0.0,0.0,0.0,0.0,0.0,0.0,0.0,0.0,0.0,0.0,0.0,0.0,0.0,0.0,0.0,0.0,0.0,0.0,0.0,0.0,0.0,0.0,0.0,0.0,0.0,0.0,0.0,0.0,0.0,0.0,0.0,0.0,0.0,0.0,0.0,0.0,0.0,0.0,0.0,0.0,0.0,0.0,0.0,0.0,0.0,0.0,0.0,0.0,0.0,0.0,0.0,0.0,0.0,0.0,0.0,0.0,0.0,0.0,0.0,0.0,0.0,0.0,0.0,0.0,0.0,0.0,0.0,0.0,0.0,0.0,0.0,0.0,0.0,0.0,0.0,0.0,0.0,0.0,0.0,0.0,0.0,0.0,0.0,0.0,0.0,0.0,0.0,0.0,0.0,0.0,0.0,0.0,0.0,0.0,0.0,0.0,0.0,0.0,0.0,0.0,0.0,0.0,0.0,0.0,0.0,0.0,0.0,0.0,0.0,0.0,0.0,0.0,0.0,0.0,0.0,0.0,0.0,0.0,0.0,0.0,0.0,0.0,0.0,0.0,0.0,0.0,0.0,0.0,0.0,0.0,0.0,0.0,0.0,0.0,0.0,0.0,0.0,0.0,0.0,0.0,0.0,0.0,0.0,0.0,0.0,0.0,0.0,0.0,0.0,0.0,0.0,0.0,0.0,0.0,0.0,0.0,0.0,0.0,0.0,0.0,0.0,0.0,0.0,0.0,0.0,0.0,0.0,0.0,0.0,0.0,0.0,0.0,0.0,0.0,0.0,0.0,0.0,0.0,0.0,0.0,0.0,0.0,0.0,0.0,0.0,0.0,0.0,0.0,0.0,0.0,0.0,0.0,0.0,0.0,0.0,0.0,0.0,0.0,0.0,0.0,0.0,0.0,0.0,0.0,0.0,0.0,0.0,0.0,0.0,0.0,0.0,0.0,0.0,0.0,0.0,0.0,0.0,0.0,0.0,0.0,0.0,0.0,0.0,0.0,0.0,0.0,0.0,0.0,0.0,0.0,0.0,0.0,0.0,0.0,0.0,0.0,0.0,0.0,0.0,0.0,0.0,0.0,0.0,0.0,0.0,0.0,0.0,0.0,0.0,0.0,0.0,0.0,0.0,0.0,0.0,0.0,0.0,0.0,0.0,0.0,0.0,0.0,0.0,0.0,0.0,0.0,0.0,0.0,0.0,0.0,0.0,0.0,0.0,0.0,0.0,0.0,0.0,0.0,0.0,0.0,0.0,0.0,0.0,0.0,0.0,0.0,0.0,0.0,0.0,0.0,0.0,0.0,0.0,0.0,0.0,0.0,0.0,0.0,0.0,0.0,0.0,0.0,0.0,0.0,0.0,0.0,0.0,0.0,0.0,0.0,0.0,0.0,0.0,0.0,0.0,0.0,0.0,0.0,0.0,0.0,0.0,0.0,0.0,0.0,0.0,0.0,0.0,0.0,0.0,0.0,0.0,0.0,0.0,0.0,0.0,0.0,0.0,0.0,0.0,0.0,0.0,0.0,0.0,0.0,0.0,0.0,0.0,0.0,0.0,0.0,0.0,0.0,0.0,0.0,0.0,0.0,0.0,0.0,0.0,0.0,0.0,0.0,0.0,0.0,0.0,0.0,0.0,0.0,0.0,0.0,0.0,0.0,0.0,0.0,0.0,0.0,0.0,0.0,0.0,0.0,0.0,0.0,0.0,0.0,0.0,0.0,0.0,0.0,0.0,0.0,0.0,0.0,0.0,0.0,0.0,0.0,0.0,0.0,0.0,0.0,0.0,0.0,0.0,0.0,0.0,0.0,0.0,0.0,0.0,0.0,0.0,0.0,0.0,0.0,0.0,0.0,0.0,0.0,0.0,0.0,0.0,0.0,0.0,0.0,0.0,0.0,0.0,0.0,0.0,0.0,0.0,0.0,0.0,0.0,0.0,0.0,0.0,0.0,0.0,0.0,0.0,0.0,0.0,0.0,0.0,0.0,0.0,0.0,0.0,0.0,0.0,0.0,0.0,0.0,0.0,0.0,0.0,0.0,0.0,0.0,0.0,0.0,0.0,0.0,0.0,0.0,0.0,0.0,0.0,0.0,0.0,0.0,0.0,0.0,0.0,0.0,0.0,0.0,0.0,0.0,0.0,0.0,0.0,0.0,0.0,0.0,0.0,0.0,0.0,0.0,0.0,0.0,0.0,0.0,0.0,0.0,0.0,0.0,0.0,0.0,0.0,0.0,0.0,0.0,0.0,0.0,0.0,0.0,0.0,0.0,0.0,0.0,0.0,0.0,0.0,0.0,0.0,0.0,0.0,0.0,0.0,0.0,0.0,0.0,0.0,0.0,0.0,0.0,0.0,0.0,0.0,0.0,0.0,0.0,0.0,0.0,0.0,0.0,0.0,0.0,0.0,0.0,0.0,0.0,0.0,0.0,0.0,0.0,0.0,0.0,0.0,0.0,0.0,0.0,0.0,0.0,0.0,0.0,0.0,0.0,0.0,0.0,0.0,0.0,0.0,0.0,0.0,0.0,0.0,0.0,0.0,0.0,0.0,0.0,0.0,0.0,0.0,0.0,0.0,0.0,0.0,0.2021,0.0,0.0,0.0,0.0,0.0,0.0,0.0,0.0,0.0,0.0,0.0,0.0,0.0,0.0,0.0,0.0,0.0,0.0,0.0,0.0,0.0,0.0,0.0,0.0,0.0,0.0,0.0,0.0,0.0,0.0,0.0,0.0,0.0,0.0,0.0,0.0,0.0,0.0,0.0,0.0,0.0,0.0,0.0,0.0,0.0,0.0,0.0,0.0,0.0,0.0,0.0,0.0,0.0,0.0,0.0,0.0,0.0,0.0,0.0,0.0,0.0,0.0,0.0,0.0,0.0,0.0,0.0,0.0,0.0,0.0,0.0,0.0,0.0,0.0,0.0,0.0,0.0,0.0,0.0,0.0,0.0,0.0,0.0,0.0,0.0,0.0,0.0,0.0,0.0,0.0,0.0,0.0,0.0,0.0,0.0,0.0,0.0,0.0,0.0,0.0,0.0,0.0,0.0,0.0,0.0,0.0,0.0,0.0,0.0,0.0,0.2245,0.2391,0.2073,0.1979,0.2166,0.0,0.0,0.0,0.0,0.0,0.0,0.0,0.0,0.0,0.0,0.0,0.0,0.0,0.0,0.0,0.0,0.0,0.0,0.0,0.0,0.0,0.0,0.0,0.0,0.0,0.0,0.0,0.0,0.0,0.0,0.0,0.0,0.0,0.0,0.0,0.0,0.0,0.0,0.0,0.0,0.0,0.0,0.0,0.0,0.0,0.0,0.0,0.0,0.0,0.0,0.0,0.0,0.0,0.0,0.0,0.0,0.0,0.0,0.0,0.0,0.0,0.0,0.0,0.0,0.0,0.0,0.0,0.0,0.0,0.0,0.0,0.0,0.0,0.0,0.0,0.0,0.0,0.0,0.0,0.0,0.0,0.0,0.0,0.0,0.0,0.0,0.0,0.0,0.0,0.0,0.0,0.0,0.0,0.0,0.0,0.0,0.0,0.0,0.0,0.0,0.0,0.0,0.0,0.0,0.0,0.0,0.0,0.0,0.0,0.0,0.0,0.0,0.2255,0.2153,0.236,0.0,0.0,0.0,0.0,0.0,0.0,0.0,0.0,0.0,0.0,0.0,0.0,0.0,0.0,0.0,0.0,0.0,0.0,0.0,0.0,0.0,0.0,0.0,0.0,0.0,0.0,0.0,0.0,0.0,0.0,0.0,0.0,0.0,0.0,0.0,0.0,0.0,0.0,0.0,0.0,0.0,0.0,0.0,0.0,0.0,0.0,0.0,0.0,0.0,0.0,0.0,0.0,0.0,0.0,0.0,0.0,0.0,0.0,0.0,0.0,0.0,0.0,0.0,0.0,0.0,0.0,0.0,0.0,0.0,0.0,0.0,0.0,0.0,0.0,0.0,0.0,0.0,0.0,0.0,0.0,0.0,0.0,0.0,0.0,0.0,0.0,0.0,0.0,0.0,0.0,0.0,0.0,0.0,0.0,0.0,0.0,0.0,0.0,0.0,0.0,0.0,0.0,0.0,0.0,0.0,0.0,0.0,0.0,0.0,0.0,0.2726,0.2848,0.2647,0.0,0.2599,0.0,0.0,0.0,0.0,0.0,0.0,0.0,0.0,0.0,0.0,0.0,0.0,0.0,0.0,0.0,0.0,0.0,0.0,0.0,0.0,0.0,0.0,0.0,0.0,0.0,0.0,0.0,0.0,0.0,0.0,0.0,0.0,0.0,0.0,0.0,0.0,0.0,0.0,0.0,0.0,0.0,0.0,0.0,0.0,0.0,0.0,0.0,0.0,0.0,0.0,0.0,0.0,0.0,0.0,0.0,0.0,0.0,0.0,0.0,0.0,0.0,0.0,0.0,0.0,0.0,0.0,0.0,0.0,0.0,0.0,0.0,0.0,0.0,0.0,0.0,0.0,0.0,0.0,0.0,0.0,0.0,0.0,0.0,0.0,0.0,0.0,0.0,0.0,0.0,0.0,0.0,0.0,0.0,0.0,0.0,0.0,0.0,0.0,0.0,0.0,0.0,0.0,0.0,0.0,0.0,0.0,0.0,0.0,0.0,0.0,0.3143,0.3307,0.3117,0.2986,0.0,0.0,0.0,0.0,0.0,0.0,0.0,0.0,0.0,0.0,0.0,0.0,0.0,0.0,0.0,0.0,0.0,0.0,0.0,0.0,0.0,0.0,0.0,0.0,0.0,0.0,0.0,0.0,0.0,0.0,0.0,0.0,0.0,0.0,0.0,0.0,0.0,0.0,0.0,0.0,0.0,0.0,0.0,0.0,0.0,0.0,0.0,0.0,0.0,0.0,0.0,0.0,0.0,0.0,0.0,0.0,0.0,0.0,0.0,0.0,0.0,0.0,0.0,0.0,0.0,0.0,0.0,0.0,0.0,0.0,0.0,0.0,0.0,0.0,0.0,0.0,0.0,0.0,0.0,0.0,0.0,0.0,0.0,0.0,0.0,0.0,0.0,0.0,0.0,0.0,0.0,0.0,0.0,0.0,0.0,0.0,0.0,0.0,0.0,0.0,0.0,0.0,0.0,0.0,0.0,0.0,0.0,0.0,0.0,0.0,0.3412,0.3524,0.3688,0.3609,0.3474,0.3313,0.0,0.0,0.0,0.0,0.0,0.0,0.0,0.0,0.0,0.0,0.0,0.0,0.0,0.0,0.0,0.0,0.0,0.0,0.0,0.0,0.0,0.0,0.0,0.0,0.0,0.0,0.0,0.0,0.0,0.0,0.0,0.0,0.0,0.0,0.0,0.0,0.0,0.0,0.0,0.0,0.0,0.0,0.0,0.0,0.0,0.0,0.0,0.0,0.0,0.0,0.0,0.0,0.0,0.0,0.0,0.0,0.0,0.0,0.0,0.0,0.0,0.0,0.0,0.0,0.0,0.0,0.0,0.0,0.0,0.0,0.0,0.0,0.0,0.0,0.0,0.0,0.0,0.0,0.0,0.0,0.0,0.0,0.0,0.0,0.0,0.0,0.0,0.0,0.0,0.0,0.0,0.0,0.0,0.0,0.0,0.0,0.0,0.0,0.0,0.0,0.0,0.0,0.0,0.0,0.0,0.0,0.0,0.0,0.3678,0.3689,0.3783,0.397,0.4089,0.4033,0.0,0.0,0.0,0.0,0.0,0.0,0.0,0.0,0.0,0.0,0.0,0.0,0.0,0.0,0.0,0.0,0.0,0.0,0.0,0.0,0.0,0.0,0.0,0.0,0.0,0.0,0.0,0.0,0.0,0.0,0.0,0.0,0.0,0.0,0.0,0.0,0.0,0.0,0.0,0.0,0.0,0.0,0.0,0.0,0.0,0.0,0.0,0.0,0.0,0.0,0.0,0.0,0.0,0.0,0.0,0.0,0.0,0.0,0.0,0.0,0.0,0.0,0.0,0.0,0.0,0.0,0.0,0.0,0.0,0.0,0.0,0.0,0.0,0.0,0.0,0.0,0.0,0.0,0.0,0.0,0.0,0.0,0.0,0.0,0.0,0.0,0.0,0.0,0.0,0.0,0.0,0.0,0.0,0.0,0.0,0.0,0.0,0.0,0.0,0.0,0.0,0.0,0.0,0.0,0.0,0.0,0.0,0.0,0.0,0.4286,0.4346,0.4344,0.4225,0.4567,0.4652,0.0,0.0,0.0,0.0,0.0,0.0,0.0,0.0,0.0,0.0,0.0,0.0,0.0,0.0,0.0,0.0,0.0,0.0,0.0,0.0,0.0,0.0,0.0,0.0,0.0,0.0,0.0,0.0,0.0,0.0,0.0,0.0,0.0,0.0,0.0,0.0,0.0,0.0,0.0,0.0,0.0,0.0,0.0,0.0,0.0,0.0,0.0,0.0,0.0,0.0,0.0,0.0,0.0,0.0,0.0,0.0,0.0,0.0,0.0,0.0,0.0,0.0,0.0,0.0,0.0,0.0,0.0,0.0,0.0,0.0,0.0,0.0,0.0,0.0,0.0,0.0,0.0,0.0,0.0,0.0,0.0,0.0,0.0,0.0,0.0,0.0,0.0,0.0,0.0,0.0,0.0,0.0,0.0,0.0,0.0,0.0,0.0,0.0,0.0,0.0,0.0,0.0,0.0,0.0,0.0,0.0,0.0,0.0,0.0,0.476,0.0,0.4885,0.4711,0.5046,0.5173,0.0,0.0,0.0,0.0,0.0,0.0,0.0,0.0,0.0,0.0,0.0,0.0,0.0,0.0,0.0,0.0,0.0,0.0,0.0,0.0,0.0,0.0,0.0,0.0,0.0,0.0,0.0,0.0,0.0,0.0,0.0,0.0,0.0,0.0,0.0,0.0,0.0,0.0,0.0,0.0,0.0,0.0,0.0,0.0,0.0,0.0,0.0,0.0,0.0,0.0,0.0,0.0,0.0,0.0,0.0,0.0,0.0,0.0,0.0,0.0,0.0,0.0,0.0,0.0,0.0,0.0,0.0,0.0,0.0,0.0,0.0,0.0,0.0,0.0,0.0,0.0,0.0,0.0,0.0,0.0,0.0,0.0,0.0,0.0,0.0,0.0,0.0,0.0,0.0,0.0,0.0,0.0,0.0,0.0,0.0,0.0,0.0,0.0,0.0,0.0,0.0,0.0,0.0,0.0,0.0,0.0,0.0,0.0,0.4869,0.5106,0.5282,0.5404,0.5514,0.5526,0.5576,0.0,0.0,0.0,0.0,0.0,0.0,0.0,0.0,0.0,0.0,0.0,0.0,0.0,0.0,0.0,0.0,0.0,0.0,0.0,0.0,0.0,0.0,0.0,0.0,0.0,0.0,0.0,0.0,0.0,0.0,0.0,0.0,0.0,0.0,0.0,0.0,0.0,0.0,0.0,0.0,0.0,0.0,0.0,0.0,0.0,0.0,0.0,0.0,0.0,0.0,0.0,0.0,0.0,0.0,0.0,0.0,0.0,0.0,0.0,0.0,0.0,0.0,0.0,0.0,0.0,0.0,0.0,0.0,0.0,0.0,0.0,0.0,0.0,0.0,0.0,0.0,0.0,0.0,0.0,0.0,0.0,0.0,0.0,0.0,0.0,0.0,0.0,0.0,0.0,0.0,0.0,0.0,0.0,0.0,0.0,0.0,0.0,0.0,0.0,0.0,0.0,0.0,0.0,0.0,0.0,0.0,0.0,0.0,0.0,0.6134,0.6375,0.6397,0.6264,0.6306,0.6399,0.0,0.0,0.0,0.0,0.0,0.0,0.0,0.0,0.0,0.0,0.0,0.0,0.0,0.0,0.0,0.0,0.0,0.0,0.0,0.0,0.0,0.0,0.0,0.0,0.0,0.0,0.0,0.0,0.0,0.0,0.0,0.0,0.0,0.0,0.0,0.0,0.0,0.0,0.0,0.0,0.0,0.0,0.0,0.0,0.0,0.0,0.0,0.0,0.0,0.0,0.0,0.0,0.0,0.0,0.0,0.0,0.0,0.0,0.0,0.0,0.0,0.0,0.0,0.0,0.0,0.0,0.0,0.0,0.0,0.0,0.0,0.0,0.0,0.0,0.0,0.0,0.0,0.0,0.0,0.0,0.0,0.0,0.0,0.0,0.0,0.0,0.0,0.0,0.0,0.0,0.0,0.0,0.0,0.0,0.0,0.0,0.0,0.0,0.0,0.0,0.0,0.0,0.0,0.0,0.0,0.0,0.0,0.0,0.0,0.7208,0.7162,0.7116,0.7046,0.7099,0.7123,0.7069,0.0,0.0,0.0,0.0,0.0,0.0,0.0,0.0,0.0,0.0,0.0,0.0,0.0,0.0,0.0,0.0,0.0,0.0,0.0,0.0,0.0,0.0,0.0,0.0,0.0,0.0,0.0,0.0,0.0,0.0,0.0,0.0,0.0,0.0,0.0,0.0,0.0,0.0,0.0,0.0,0.0,0.0,0.0,0.0,0.0,0.0,0.0,0.0,0.0,0.0,0.0,0.0,0.0,0.0,0.0,0.0,0.0,0.0,0.0,0.0,0.0,0.0,0.0,0.0,0.0,0.0,0.0,0.0,0.0,0.0,0.0,0.0,0.0,0.0,0.0,0.0,0.0,0.0,0.0,0.0,0.0,0.0,0.0,0.0,0.0,0.0,0.0,0.0,0.0,0.0,0.0,0.0,0.0,0.0,0.0,0.0,0.0,0.0,0.0,0.0,0.0,0.0,0.0,0.0,0.0,0.0,0.0,0.0,0.8375,0.7859,0.7705,0.7863,0.7907,0.7751,0.0,0.0,0.0,0.0,0.0,0.0,0.0,0.0,0.0,0.0,0.0,0.0,0.0,0.0,0.0,0.0,0.0,0.0,0.0,0.0,0.0,0.0,0.0,0.0,0.0,0.0,0.0,0.0,0.0,0.0,0.0,0.0,0.0,0.0,0.0,0.0,0.0,0.0,0.0,0.0,0.0,0.0,0.0,0.0,0.0,0.0,0.0,0.0,0.0,0.0,0.0,0.0,0.0,0.0,0.0,0.0,0.0,0.0,0.0,0.0,0.0,0.0,0.0,0.0,0.0,0.0,0.0,0.0,0.0,0.0,0.0,0.0,0.0,0.0,0.0,0.0,0.0,0.0,0.0,0.0,0.0,0.0,0.0,0.0,0.0,0.0,0.0,0.0,0.0,0.0,0.0,0.0,0.0,0.0,0.0,0.0,0.0,0.0,0.0,0.0,0.0,0.0,0.0,0.0,0.0,0.0,0.0,0.0,0.0,1.0588,1.0083,0.944,0.8774,0.8481,0.8317,0.0,0.0,0.0,0.0,0.0,0.0,0.0,0.0,0.0,0.0,0.0,0.0,0.0,0.0,0.0,0.0,0.0,0.0,0.0,0.0,0.0,0.0,0.0,0.0,0.0,0.0,0.0,0.0,0.0,0.0,0.0,0.0,0.0,0.0,0.0,0.0,0.0,0.0,0.0,0.0,0.0,0.0,0.0,0.0,0.0,0.0,0.0,0.0,0.0,0.0,0.0,0.0,0.0,0.0,0.0,0.0,0.0,0.0,0.0,0.0,0.0,0.0,0.0,0.0,0.0,0.0,0.0,0.0,0.0,0.0,0.0,0.0,0.0,0.0,0.0,0.0,0.0,0.0,0.0,0.0,0.0,0.0,0.0,0.0,0.0,0.0,0.0,0.0,0.0,0.0,0.0,0.0,0.0,0.0,0.0,0.0,0.0,0.0,0.0,0.0,0.0,0.0,0.0,0.0,0.0,0.0,0.0,0.0,1.09,1.1123,1.1112,1.0673,0.975,0.9254,0.9043,0.0,0.0,0.0,0.0,0.0,0.0,0.0,0.0,0.0,0.0,0.0,0.0,0.0,0.0,0.0,0.0,0.0,0.0,0.0,0.0,0.0,0.0,0.0,0.0,0.0,0.0,0.0,0.0,0.0,0.0,0.0,0.0,0.0,0.0,0.0,0.0,0.0,0.0,0.0,0.0,0.0,0.0,0.0,0.0,0.0,0.0,0.0,0.0,0.0,0.0,0.0,0.0,0.0,0.0,0.0,0.0,0.0,0.0,0.0,0.0,0.0,0.0,0.0,0.0,0.0,0.0,0.0,0.0,0.0,0.0,0.0,0.0,0.0,0.0,0.0,0.0,0.0,0.0,0.0,0.0,0.0,0.0,0.0,0.0,0.0,0.0,0.0,0.0,0.0,0.0,0.0,0.0,0.0,0.0,0.0,0.0,0.0,0.0,0.0,0.0,0.0,0.0,0.0,0.0,0.0,0.0,0.0,0.0,1.1194,1.0976,1.1664,1.1595,1.0746,1.021,0.9939,0.0,0.0,0.0,0.0,0.0,0.0,0.0,0.0,0.0,0.0,0.0,0.0,0.0,0.0,0.0,0.0,0.0,0.0,0.0,0.0,0.0,0.0,0.0,0.0,0.0,0.0,0.0,0.0,0.0,0.0,0.0,0.0,0.0,0.0,0.0,0.0,0.0,0.0,0.0,0.0,0.0,0.0,0.0,0.0,0.0,0.0,0.0,0.0,0.0,0.0,0.0,0.0,0.0,0.0,0.0,0.0,0.0,0.0,0.0,0.0,0.0,0.0,0.0,0.0,0.0,0.0,0.0,0.0,0.0,0.0,0.0,0.0,0.0,0.0,0.0,0.0,0.0,0.0,0.0,0.0,0.0,0.0,0.0,0.0,0.0,0.0,0.0,0.0,0.0,0.0,0.0,0.0,0.0,0.0,0.0,0.0,0.0,0.0,0.0,0.0,0.0,0.0,0.0,0.0,0.0,0.0,0.0,0.0,1.2826,1.3273,1.3386,1.2821,1.1503,1.1391,1.1019,0.0,0.0,0.0,0.0,0.0,0.0,0.0,0.0,0.0,0.0,0.0,0.0,0.0,0.0,0.0,0.0,0.0,0.0,0.0,0.0,0.0,0.0,0.0,0.0,0.0,0.0,0.0,0.0,0.0,0.0,0.0,0.0,0.0,0.0,0.0,0.0,0.0,0.0,0.0,0.0,0.0,0.0,0.0,0.0,0.0,0.0,0.0,0.0,0.4461,0.0,0.0,0.0,0.0,0.0,0.0,0.0,0.0,0.0,0.0,0.0,0.0,0.0,0.0,0.0,0.0,0.0,0.0,0.0,0.0,0.0,0.0,0.0,0.0,0.0,0.0,0.0,0.0,0.0,0.0,0.0,0.0,0.0,0.0,0.0,0.0,0.0,0.0,0.0,0.0,0.0,0.0,0.0,0.0,0.0,0.0,0.0,0.0,0.0,0.0,0.0,0.0,0.0,0.0,0.0,0.0,0.0,0.0,0.0,1.3531,1.3961,1.4599,1.4072,1.2378,1.2703,1.2326,0.0,0.0,0.0,0.0,0.0,0.0,0.0,0.0,0.0,0.0,0.0,0.0,0.0,0.0,0.0,0.0,0.0,0.0,0.0,0.0,0.0,0.0,0.0,0.0,0.0,0.0,0.0,0.0,0.0,0.0,0.0,0.0,0.0,0.0,0.0,0.0,0.0,0.0,0.0,0.0,0.0,0.0,0.0,0.0,0.0,0.0,0.0,0.0,0.0,0.0,0.0,0.0,0.0,0.0,0.0,0.0,0.0,0.0,0.0,0.0,0.0,0.0,0.0,0.0,0.0,0.0,0.0,0.0,0.0,0.0,0.0,0.0,0.0,0.0,0.0,0.0,0.0,0.0,0.0,0.0,0.0,0.0,0.0,0.0,0.0,0.0,0.0,0.0,0.0,0.0,0.0,0.0,0.0,0.0,0.0,0.0,0.0,0.0,0.0,0.0,0.0,0.0,0.0,0.0,0.0,0.0,0.0,1.3696,1.3989,1.4237,1.5465,1.5179,1.3172,1.3821,1.3469,1.1897,0.0,0.0,0.0,0.0,0.0,0.0,0.0,0.0,0.0,0.0,0.0,0.0,0.0,0.0,0.0,0.0,0.0,0.0,0.0,0.0,0.0,0.0,0.0,0.0,0.0,0.0,0.0,0.0,0.0,0.0,0.0,0.0,0.0,0.0,0.0,0.0,0.0,0.0,0.4171,0.4292,0.0,0.0,0.0,0.0,0.0,0.0,0.0,0.0,0.6302,0.0,0.0,0.0,0.0,0.0,0.0,0.0,0.0,0.0,0.0,0.0,0.0,0.0,0.0,0.0,0.0,0.0,0.0,0.0,0.0,0.0,0.0,0.0,0.0,0.0,0.0,0.0,0.0,0.0,0.0,0.0,0.0,0.0,0.0,0.0,0.0,0.0,0.0,0.0,0.0,0.0,0.0,0.0,0.0,0.0,0.0,0.0,0.0,0.0,0.0,0.0,0.0,0.0,0.0,0.0,0.0,1.4191,1.4469,1.4938,1.5562,1.6067,1.5586,1.4054,1.4168,1.3828,1.2883,0.0,0.0,0.0,0.0,0.0,0.0,0.0,0.0,0.0,0.0,0.0,0.0,0.0,0.0,0.0,0.0,0.0,0.0,0.0,0.0,0.0,0.0,0.0,0.0,0.0,0.0,0.0,0.0,0.0,0.0,0.0,0.0,0.0,0.0,0.0,0.0,0.0,0.0,0.0,0.5087,0.5344,0.0,0.0,0.0,0.0,0.0,0.0,0.0,0.0,0.6436,0.0,0.0,0.0,0.0,0.0,0.0,0.0,0.0,0.0,0.0,0.0,0.0,0.0,0.0,0.0,0.0,0.0,0.0,0.0,0.0,0.0,0.0,0.0,0.0,0.0,0.0,0.0,0.0,0.0,0.0,0.0,0.0,0.0,0.0,0.0,0.0,0.0,0.0,0.0,0.0,0.0,0.0,0.0,0.0,0.0,0.0,0.0,0.0,0.0,0.0,0.0,0.0,0.0,0.0,0.0,1.4237,1.5054,1.5681,1.611,1.675,1.6182,1.4346,1.4349,1.3961,0.0,0.0,0.0,0.0,0.0,0.0,0.0,0.0,0.0,0.0,0.0,0.0,0.0,0.0,0.0,0.0,0.0,0.0,0.0,0.0,0.0,0.0,0.0,0.0,0.0,0.0,0.0,0.0,0.0,0.0,0.0,0.0,0.0,0.0,0.0,0.0,0.0,0.0,0.0,0.0,0.5734,0.5838,0.6083,0.0,0.0,0.0,0.0,0.0,0.0,0.7338,0.7377,0.0,0.0,0.0,0.0,0.0,0.0,0.0,0.0,0.0,0.0,0.0,0.0,0.0,0.0,0.0,0.0,0.0,0.0,0.0,0.0,0.0,0.0,0.0,0.0,0.0,0.0,0.0,0.0,0.0,0.0,0.0,0.0,0.0,0.0,0.0,0.0,0.0,0.0,0.0,0.0,0.0,0.0,0.0,0.0,0.0,0.0,0.0,0.0,0.0,0.0,0.0,0.0,0.0,0.0,0.0,1.419,1.5588,1.6379,1.6545,1.7196,1.6567,1.4607,1.4408,1.3927,0.0,0.0,0.0,0.0,0.0,0.0,0.0,0.0,0.0,0.0,0.0,0.0,0.0,0.0,0.0,0.0,0.0,0.0,0.0,0.0,0.0,0.0,0.0,0.0,0.0,0.0,0.0,0.0,0.0,0.0,0.0,0.0,0.0,0.0,0.0,0.0,0.0,0.0,0.0,0.0,0.0,0.6215,0.6647,0.7087,0.0,0.0,0.0,0.0,0.795,0.824,0.0,0.0,0.0,0.0,0.0,0.0,0.0,0.0,0.0,0.0,0.0,0.0,0.0,0.0,0.0,0.0,0.0,0.0,0.0,0.0,0.0,0.0,0.0,0.0,0.0,0.0,0.0,0.0,0.0,0.0,0.0,0.0,0.0,0.0,0.0,0.0,0.0,0.0,0.0,0.0,0.0,0.0,0.0,0.0,0.0,0.0,0.0,0.0,0.0,0.0,0.0,0.0,0.0,0.0,0.0,0.0,1.4366,1.6139,1.7128,1.7265,1.7096,1.6435,1.5301,1.4384,1.3656,0.0,0.0,0.0,0.0,0.0,0.0,0.0,0.0,0.0,0.0,0.0,0.0,0.0,0.0,0.0,0.0,0.0,0.0,0.0,0.0,0.0,0.0,0.0,0.0,0.0,0.0,0.0,0.0,0.0,0.0,0.0,0.0,0.0,0.0,0.0,0.0,0.0,0.0,0.0,0.0,0.0,0.6454,0.6951,0.7338,0.7578,0.0,0.0,0.7841,0.8191,0.8143,0.0,0.0,0.0,0.0,0.0,0.0,0.0,0.0,0.0,0.0,0.0,0.0,0.0,0.0,0.0,0.0,0.0,0.0,0.0,0.0,0.0,0.0,0.0,0.0,0.0,0.0,0.0,0.0,0.0,0.0,0.0,0.0,0.0,0.0,0.0,0.0,0.0,0.0,0.0,0.0,0.0,0.0,0.0,0.0,0.0,0.0,0.0,0.0,0.0,0.0,0.0,0.0,0.0,0.0,0.0,1.5119,1.4988,1.6506,1.7391,1.7543,1.722,1.6368,1.5036,1.4223,1.3446,0.0,0.0,0.0,0.0,0.0,0.0,0.0,0.0,0.0,0.0,0.0,0.0,0.0,0.0,0.0,0.0,0.0,0.0,0.0,0.0,0.0,0.0,0.0,0.0,0.0,0.0,0.0,0.0,0.0,0.0,0.0,0.0,0.0,0.0,0.0,0.0,0.0,0.0,0.0,0.0,0.0,0.0,0.7096,0.7671,0.0,0.0,0.0,0.8999,0.9473,0.0,0.0,0.0,0.0,0.0,0.0,0.0,0.0,0.0,0.0,0.0,0.0,0.0,0.0,0.0,0.0,0.0,0.0,0.0,0.0,0.0,0.0,0.0,0.0,0.0,0.0,0.0,0.0,0.0,0.0,0.0,0.0,0.0,0.0,0.0,0.0,0.0,0.0,0.0,0.0,0.0,0.0,0.0,0.0,0.0,0.0,0.0,0.0,0.0,0.0,0.0,0.0,0.0,0.0,0.0,0.0,0.0,1.5437,1.673,1.7474,1.7632,1.7144,1.6249,1.4932,1.4089,0.0,0.0,0.0,0.0,0.0,0.0,0.0,0.0,0.0,0.0,0.0,0.0,0.0,0.0,0.0,0.0,0.0,0.0,0.0,0.0,0.0,0.0,0.0,0.0,0.0,0.0,0.0,0.4552,0.0,0.0,0.0,0.0,0.0,0.0,0.0,0.0,0.0,0.0,0.0,0.0,0.0,0.0,0.7694,0.7636,0.8426,0.9307,0.0,0.0,1.0277,1.0586,1.0371,0.9897,0.0,0.0,0.0,0.0,0.0,0.0,0.0,0.0,0.0,0.0,0.0,0.0,0.0,0.0,0.0,0.0,0.0,0.0,0.0,0.0,0.0,0.0,0.0,0.0,0.0,0.0,0.0,0.0,0.0,0.0,0.0,0.0,0.0,0.0,0.0,0.0,0.0,0.0,0.0,0.0,0.0,0.0,0.0,0.0,0.0,0.0,0.0,0.0,0.0,0.0,0.0,0.0,0.0,0.0,1.55,1.5526,1.675,1.7453,1.7489,1.6685,1.5993,1.5435,1.4011,1.2964,0.0,0.0,0.0,0.0,0.0,0.0,0.0,0.0,0.0,0.0,0.0,0.0,0.0,0.0,0.0,0.0,0.0,0.0,0.0,0.0,0.0,0.0,0.0,0.0,0.0,0.0,0.0,0.0,0.0,0.0,0.0,0.0,0.0,0.0,0.0,0.0,0.0,0.0,0.0,0.0,0.0,0.8525,0.9004,0.9862,1.0632,0.0,1.1206,1.1176,1.1074,1.0617,1.0215,1.0021,0.0,0.0,0.0,0.0,0.0,0.0,0.0,0.0,0.0,0.0,0.0,0.0,0.0,0.0,0.0,0.0,0.0,0.0,0.0,0.0,0.0,0.0,0.0,0.0,0.0,0.0,0.0,0.0,0.0,0.0,0.0,0.0,0.0,0.0,0.0,0.0,0.0,0.0,0.0,0.0,0.0,0.0,0.0,0.0,0.0,0.0,0.0,0.0,0.0,0.0,0.0,0.0,0.0,1.584,1.6532,1.7154,1.7522,1.7585,1.6739,1.6089,1.5672,1.4468,1.3402,0.0,0.0,0.0,0.0,0.0,0.0,0.0,0.0,0.0,0.0,0.0,0.0,0.0,0.0,0.0,0.0,0.0,0.0,0.0,0.0,0.0,0.0,0.0,0.0,0.0,0.0,0.0,0.0,0.3329,0.2359,0.1772,0.0,0.0,0.0,0.0,0.0,0.0,0.0,0.0,0.0,0.0,0.9316,0.9649,1.0229,0.0,0.0,1.1468,1.1306,1.1566,1.1215,1.0765,1.0303,0.9935,0.0,0.0,0.0,0.0,0.0,0.0,0.0,0.0,0.0,0.0,0.0,0.0,0.0,0.0,0.0,0.0,0.0,0.0,0.0,0.0,0.0,0.0,0.0,0.0,0.0,0.0,0.0,0.0,0.0,0.0,0.0,0.0,0.0,0.0,0.0,0.0,0.0,0.0,0.0,0.0,0.0,0.0,0.0,0.0,0.0,0.0,0.0,0.0,0.0,0.0,0.0,0.0,1.6179,1.6978,1.7142,1.7217,1.7176,1.6409,1.5917,1.5724,1.4741,1.3864,0.0,0.0,0.0,0.0,0.0,0.0,0.0,0.0,0.0,0.0,0.0,0.0,0.0,0.0,0.0,0.0,0.0,0.0,0.0,0.0,0.0,0.0,0.0,0.0,0.0,0.0,0.0,0.0,0.4242,0.3004,0.2426,0.0,0.0,0.0,0.0,0.0,0.0,0.0,0.0,0.0,0.0,1.0256,1.0435,1.08,1.1348,1.212,1.1892,1.1727,1.2051,1.175,1.1316,1.0884,0.0,0.0,0.0,0.0,0.0,0.0,0.0,0.0,0.0,0.0,0.0,0.0,0.0,0.0,0.0,0.0,0.0,0.0,0.0,0.0,0.0,0.0,0.0,0.0,0.0,0.0,0.0,1.7624,0.0,0.0,1.748,0.0,0.0,0.0,0.0,0.0,0.0,0.0,0.0,0.0,0.0,0.0,0.0,0.0,0.0,0.0,0.0,0.0,0.0,0.0,0.0,0.0,0.0,1.6481,1.652,1.6612,1.643,1.598,1.5556,1.5431,1.5563,1.4709,1.4256,1.4352,0.0,0.0,0.0,0.0,0.0,0.0,0.0,0.0,0.0,0.0,0.0,0.0,0.0,0.0,0.0,0.0,0.0,0.0,0.0,0.0,0.0,0.0,0.0,0.0,0.0,0.0,0.7459,0.5366,0.3819,0.0,0.0,0.0,0.0,0.0,0.0,0.0,0.0,0.0,1.0437,1.0974,1.1379,1.146,1.1808,1.2247,1.2707,1.2655,1.2574,1.2567,1.2204,1.1912,0.0,0.0,0.0,0.0,0.0,0.0,0.0,0.0,0.0,0.0,0.0,0.0,0.0,0.0,0.0,0.0,0.0,0.0,0.0,0.0,0.0,0.0,0.0,0.0,0.0,0.0,0.0,1.8894,1.8894,0.0,0.0,0.0,0.0,0.0,0.0,0.0,0.0,0.0,0.0,0.0,2.001,1.9921,0.0,0.0,0.0,0.0,0.0,0.0,0.0,0.0,0.0,0.0,0.0,0.0,1.6513,1.6572,1.6656,1.6472,1.5982,1.6013,1.5934,1.5721,1.5552,1.5415,1.5341,0.0,0.0,0.0,0.0,0.0,0.0,0.0,0.0,0.0,0.0,0.0,0.0,0.0,0.0,0.0,0.0,0.0,0.0,0.0,0.0,0.0,0.0,0.0,0.0,0.0,0.9164,0.0,0.0,0.0,0.0,0.0,0.0,0.0,0.0,0.0,0.0,0.0,1.0735,1.1459,1.1777,1.2066,1.2397,1.2652,1.2906,0.0,0.0,0.0,0.0,0.0,0.0,0.0,0.0,0.0,0.0,0.0,0.0,0.0,0.0,0.8933,0.7788,0.7523,0.7534,0.7658,0.0,0.0,0.0,0.0,0.0,0.0,0.0,0.0,0.0,0.0,0.0,0.0,0.0,0.0,2.0799,2.0769,2.0519,0.0,0.0,0.0,0.0,0.0,0.0,0.0,0.0,2.1262,2.1312,2.1698,2.1425,2.1145,0.0,2.0602,1.9575,0.0,0.0,0.0,0.0,0.0,0.0,0.0,0.0,1.6824,1.6611,1.678,1.6599,1.6091,1.6294,1.6327,1.6129,1.6164,1.6061,1.5741,1.5016,1.4759,0.0,0.0,0.0,0.0,0.0,0.0,0.0,0.0,0.0,0.0,0.0,0.0,0.0,0.0,0.0,0.0,0.0,0.0,0.0,0.0,0.0,0.0,0.0,0.9926,0.0,0.0,0.0,0.0,0.0,0.0,0.0,0.0,0.0,1.0862,1.1156,1.1623,1.2301,1.2561,1.2777,1.3101,0.0,0.0,0.0,0.0,0.0,0.0,0.0,1.2935,1.267,1.2597,1.2453,1.2205,1.184,1.1541,1.1519,0.0,0.0,0.8861,0.8431,0.8392,0.8621,0.8618,0.8634,0.89,0.9074,0.9023,0.0,0.0,0.0,0.0,0.0,0.0,0.0,0.0,2.3282,2.3223,0.0,2.2621,0.0,0.0,0.0,0.0,2.1133,2.1295,0.0,0.0,2.1929,2.1958,2.3053,2.244,2.1693,2.0995,2.1578,2.1398,2.0486,1.8807,0.0,0.0,0.0,0.0,0.0,0.0,1.7344,1.6677,1.689,1.6745,1.6236,1.6433,1.6592,1.6676,1.6508,1.6153,1.5639,1.5754,1.5856,1.5798,1.517,0.0,0.0,0.0,0.0,0.0,0.0,0.0,0.0,0.0,0.0,0.0,0.0,0.0,0.0,0.0,0.0,0.0,0.0,0.0,0.0,1.1721,0.0,0.0,0.0,0.0,0.0,0.0,0.0,0.0,0.0,0.0,1.1662,1.2412,1.295,1.2894,0.0,0.0,0.0,0.0,1.3396,1.3396,1.329,1.3242,1.3386,1.3386,1.3423,1.3552,0.0,0.0,1.3232,1.2772,1.2378,1.2319,1.1853,1.1163,1.034,0.9817,0.963,0.9863,0.9871,0.9969,1.0289,1.0233,1.0132,2.7658,0.0,0.0,0.0,0.0,2.5455,2.5141,2.4667,2.4558,2.4487,2.4473,2.4203,0.0,0.0,0.0,0.0,0.0,0.0,2.3972,2.4307,2.3996,2.404,2.4374,2.4123,2.3873,2.3661,2.3401,2.2929,2.219,2.1253,2.0241,1.9127,0.0,0.0,0.0,0.0,1.7603,1.7129,1.7177,1.695,1.6419,1.6954,1.708,1.6858,1.6557,1.6107,1.5566,1.5639,1.5711,1.5799,1.5518,0.0,0.0,0.0,0.0,0.0,0.0,0.0,0.0,0.0,0.0,0.0,0.0,0.0,0.0,0.0,0.0,0.0,0.0,0.0,1.3324,1.2544,1.1861,0.0,0.0,0.0,0.0,0.0,0.0,0.0,0.0,0.0,1.3279,1.2904,1.2739,0.0,0.0,1.3214,1.3555,1.3491,1.3396,1.3396,1.329,0.0,1.3396,1.3396,1.3443,1.3563,1.3491,1.3396,1.3338,1.3131,1.2956,1.2922,1.255,1.2153,1.1801,1.1201,1.081,1.0773,1.0726,1.0719,1.0771,1.089,1.0885,3.0629,2.9642,2.8551,2.7858,2.7476,2.7306,2.7049,2.6656,2.6528,2.6462,2.6462,2.6097,2.5955,2.5926,2.5473,0.0,0.0,0.0,2.494,2.5212,2.4979,2.4994,2.5226,2.4955,2.4785,2.4737,2.4399,2.3985,2.3515,2.321,2.2554,2.1479,0.0,0.0,1.9445,1.8975,1.8618,1.8328,1.8127,1.7907,1.7665,1.7956,1.7882,1.7453,1.7001,1.6504,1.595,1.5714,1.5668,1.5814,1.5668,1.5403,0.0,0.0,0.0,0.0,0.0,0.0,0.0,0.0,0.0,0.0,0.0,1.3125,1.388,0.0,0.0,0.0,1.4872,1.465,1.4034,1.3442,0.0,0.0,0.0,0.0,0.0,0.0,0.0,1.3783,1.3932,1.4036,1.4069,1.3466,1.3162,1.3487,1.3413,1.346,1.3732,0.0,1.3644,1.3644,1.3515,1.3467,1.3539,1.3515,1.3515,1.3586,1.3539,1.3491,1.3467,1.3362,1.329,1.3236,1.303,1.2826,1.2732,1.2352,1.1934,1.1621,1.1502,1.1514,1.1574,1.1695,1.1669,3.3017,3.2735,3.0366,2.9364,2.9306,2.9109,2.8994,2.895,2.8737,2.8694,2.8623,2.8071,2.7782,2.771,2.6562,0.0,2.5114,2.509,2.5473,2.5995,2.539,2.5415,2.5908,2.5317,2.4964,2.4865,2.4793,2.4714,2.4615,2.4671,2.4355,2.3564,2.1766,2.059,2.0146,2.0091,2.002,1.9954,1.9467,1.9287,1.9396,1.9136,1.8751,1.8297,1.7651,1.7076,1.6618,1.5951,1.5668,1.5784,1.5668,1.5595,1.5492,0.0,0.0,0.0,0.0,0.0,0.0,0.0,0.0,0.0,0.0,0.0,0.0,0.0,0.0,0.0,1.5029,0.0,1.4691,1.4397,0.0,0.0,0.0,1.386,1.3956,1.3906,1.406,1.4553,0.0,0.0,1.4322,1.4114,1.4083,1.4238,1.4118,1.4001,1.4033,1.402,1.401,1.3997,1.3915,1.3821,1.3763,1.3668,1.3597,1.361,1.361,1.3597,1.3597,1.3515,1.342,1.342,1.3314,1.3232,1.3222,1.3192,1.304,1.2421,1.2246,1.2303,1.2595,1.2579,1.2423,3.3077,3.2564,3.1953,3.1492,3.1085,3.0454,2.9915,2.9392,2.8927,2.8694,2.8694,2.8507,2.8448,2.8434,2.8157,2.7897,2.7766,2.7766,2.7881,2.7997,2.7839,2.7592,2.7246,2.7086,2.6767,2.6303,2.5796,2.551,2.547,2.5007,2.4654,2.4412,2.3957,2.2864,2.1265,2.0712,2.0422,2.0344,2.0225,1.9957,1.9553,1.9088,1.8648,1.8243,1.7634,1.7091,1.6618,1.5965,1.5653,1.5784,1.577,1.5668,1.5492,1.5433,0.0,0.0,0.0,0.0,0.0,0.0,0.0,0.0,0.0,1.5329,1.6415,0.0,1.612,0.0,1.6266,1.5894,1.5413,1.5188,0.0,0.0,1.4933,1.5007,1.5447,1.5365,1.5348,1.5467,1.5314,1.5226,1.5314,1.5025,1.4835,1.4858,1.4226,1.3913,1.4238,1.421,1.414,1.4129,1.4033,1.3915,1.3797,1.3692,1.361,1.361,1.361,1.361,1.361,1.3573,1.3539,1.3573,1.3539,1.3515,1.3515,1.3515,1.346,1.3277,1.3114,1.2968,1.3064,1.2934,1.2774,3.3968,3.3336,3.3322,3.3216,3.2873,3.1862,3.125,3.0857,3.0539,3.0379,3.0379,3.0074,2.9624,2.9102,2.9102,2.8942,2.8709,2.8694,2.8694,2.8694,2.8694,2.8492,2.8158,2.8158,2.7969,2.7634,2.6953,2.6622,2.6605,2.601,2.5535,2.5185,2.5185,2.4495,2.3089,2.2292,2.1745,2.1439,2.0891,2.0349,1.9735,1.9209,1.8815,1.8597,1.7728,1.714,1.6921,1.5993,1.5595,1.5682,1.5682,1.5639,1.5551,1.5757,1.5813,0.0,0.0,0.0,0.0,0.0,0.0,0.0,0.0,0.0,0.0,0.0,1.6584,1.6972,1.6812,1.6545,1.6199,1.6015,1.5889,1.5881,1.5754,1.577,1.6064,1.6013,1.5969,1.5991,1.577,1.5659,1.5726,1.548,1.5289,1.5289,1.4777,1.4463,1.4526,1.45,1.4454,1.4384,1.4267,1.408,1.3844,1.3739,1.3668,1.3621,1.361,1.361,1.361,1.361,1.361,1.361,1.361,1.361,1.361,1.361,1.361,1.3586,1.3491,1.3372,1.329,1.3156,1.3031,3.5038,3.453,3.4443,3.438,3.4327,3.3206,3.2684,3.2629,3.2524,3.2481,3.2483,3.1872,3.0987,2.9972,2.9885,2.9566,2.9072,2.8985,2.8941,2.8956,2.8956,2.8912,2.8811,2.8811,2.8781,2.8694,2.8115,2.7826,2.7824,2.7215,2.662,2.6079,2.5952,2.5629,2.4994,2.411,2.3316,2.2615,2.1492,2.0629,2.0021,1.9493,1.9188,1.9076,1.7972,1.7381,1.742,1.6281,1.5728,1.5832,1.5772,1.5772,1.5832,1.6318,1.6519,0.0,1.688,0.0,0.0,0.0,0.0,0.0,0.0,0.0,0.0,1.6849,1.6784,1.6972,1.6939,1.691,1.691,1.6671,1.6531,1.6522,1.6362,1.6253,1.6231,1.621,1.621,1.62,1.5991,1.5836,1.5859,1.5669,1.5536,1.5536,1.539,1.5164,1.496,1.4845,1.4742,1.4662,1.45,1.4267,1.3952,1.3844,1.3773,1.3644,1.361,1.361,1.361,1.361,1.361,1.361,1.361,1.361,1.361,1.361,1.361,1.361,1.3586,1.3549,1.3433,1.3324,1.3204,3.5334,3.5174,3.4617,3.438,3.4385,3.4119,3.3775,3.3285,3.2745,3.2481,3.2481,3.2382,3.2193,3.1901,3.1379,3.1105,3.0945,3.0451,3.0249,3.0249,3.0249,2.9943,2.9464,2.9421,2.9174,2.8723,2.8565,2.8492,2.8505,2.7853,2.7463,2.7318,2.6837,2.6283,2.5643,0.0,0.0,0.0,2.1885,2.1169,2.0629,2.005,1.9585,1.9265,1.8483,0.0,1.8138,1.7432,1.7037,1.7053,1.7037,0.0,0.0,0.0,0.0,0.0,0.0,0.0,0.0,0.0,0.0,0.0,1.7824,1.789,1.779,1.7377,1.706,1.701,1.6939,1.691,1.691,1.6854,1.6791,1.6675,1.662,1.6547,1.6405,1.6383,1.6318,1.621,1.6156,1.6122,1.6078,1.5903,1.5748,1.5748,1.5558,1.5446,1.5356,1.5085,1.4892,1.4823,1.4581,1.435,1.4163,1.3952,1.381,1.375,1.3668,1.3621,1.361,1.361,1.361,1.361,1.361,1.361,1.361,1.361,1.361,1.361,1.361,1.3597,1.3563,1.3467,1.3338,3.6218,3.5778,3.514,3.4913,0.0,3.4545,3.4225,3.3954,3.3587,3.3267,3.2991,3.2991,3.2817,3.2498,3.2147,3.2004,3.1944,3.1337,3.1032,3.1018,3.0743,3.0408,3.0089,3.0089,2.9958,2.9639,2.9276,2.9131,2.9102,2.8507,2.8014,2.7695,2.7376,2.6924,2.6297,2.5288,2.4163,2.2863,2.2155,2.1521,2.0899,2.0298,1.9735,1.9191,1.8579,0.0,0.0,0.0,0.0,0.0,0.0,0.0,0.0,1.7661,0.0,1.7763,1.8057,1.8179,1.8101,1.8313,1.8374,1.8238,1.8273,1.8226,1.8022,1.7733,1.7461,1.7261,1.7204,1.7107,1.7065,1.6968,1.6918,1.6854,1.6761,1.6667,1.6568,1.6513,1.6436,1.6349,1.6318,1.6297,1.6297,1.6134,1.6003,1.5991,1.578,1.5647,1.5603,1.5334,1.5062,1.4915,1.4674,1.4454,1.4326,1.4129,1.3928,1.381,1.3739,1.3692,1.3621,1.361,1.361,1.361,1.361,1.361,1.361,1.361,1.361,1.361,1.361,1.361,1.361,1.3539,1.3467,3.7171,3.6453,3.5842,3.5566,3.5523,3.4835,3.4516,3.438,3.438,0.0,0.0,3.3663,3.334,3.2861,3.273,3.2687,3.2643,3.1959,3.1669,3.1671,3.1032,3.0772,3.0772,3.067,3.0612,3.0583,3.0045,2.9769,2.9769,2.916,2.8594,2.8058,2.7826,2.736,2.6591,2.552,2.436,2.3128,2.2461,2.1844,2.1191,2.0683,2.0059,1.9304,1.8796,1.8491,1.8343,1.7838,1.758,1.7617,1.7617,1.7654,1.7722,1.8209,1.8517,1.8472,1.8973,1.9195,1.9097,1.9017,1.8941,1.8803,1.8519,1.8279,1.8062,1.7949,1.7808,1.7611,1.7474,1.735,1.7253,1.7107,1.701,1.7002,1.6854,1.674,1.6709,1.6599,1.6522,1.65,1.6436,1.6414,1.6414,1.6318,1.621,1.621,1.6013,1.5836,1.577,1.5492,1.5222,1.496,1.4789,1.4616,1.4454,1.4326,1.4129,1.3918,1.3868,1.3773,1.3668,1.361,1.3621,1.361,1.361,1.361,1.361,1.361,1.361,1.361,1.361,1.361,1.361,1.361,1.3573,3.7521,3.7353,3.6517,3.6185,3.6127,3.5537,3.4956,3.4428,3.438,3.437,3.4283,3.4283,3.4225,3.4124,3.3605,3.3358,3.3329,3.2672,3.235,3.2321,3.17,3.138,3.1321,3.0859,3.0612,3.0598,3.051,3.0467,3.0394,2.9798,2.9407,2.9204,2.8246,2.7142,2.6036,2.5749,2.5023,2.3789,2.3099,2.2475,2.1873,2.1772,2.1162,2.003,1.987,1.9566,1.8985,1.8869,1.884,1.884,1.8825,1.8844,1.8858,1.8953,1.9008,1.8989,1.9062,1.9097,1.9012,1.9012,1.8941,1.8817,1.8716,1.8503,1.8189,1.8009,1.7868,1.7828,1.7577,1.7384,1.7363,1.7253,1.7128,1.7023,1.6981,1.6897,1.6718,1.6675,1.6633,1.6522,1.65,1.6479,1.6479,1.6414,1.6383,1.6362,1.6231,1.6057,1.5814,1.5514,1.5255,1.5108,1.496,1.4789,1.4616,1.4454,1.4337,1.4152,1.4057,1.3939,1.3797,1.3763,1.3726,1.3621,1.3621,1.361,1.361,1.361,1.361,1.361,1.361,1.361,1.361,1.361,1.3586,3.8187,3.8004,3.7186,3.6852,3.678,3.5828,3.5232,3.4893,3.4559,3.438,3.438,3.438,3.438,3.4351,3.4109,3.3978,3.3949,3.3325,3.3035,3.2977,3.2367,3.2063,3.199,3.138,3.109,3.1061,3.0757,3.0642,3.0673,3.0411,3.0148,2.9811,2.8596,2.7686,2.7085,2.632,2.5627,2.5019,2.3972,2.2976,2.2033,2.2004,2.154,2.0625,2.0291,1.9957,1.9667,1.929,1.9116,1.9116,1.9116,1.9116,1.9116,1.9116,1.9116,1.9116,1.9116,1.9097,1.9059,1.9017,1.896,1.8908,1.8798,1.8678,1.8498,1.8234,1.8049,1.7922,1.774,1.7577,1.7425,1.735,1.7253,1.7128,1.7031,1.6939,1.6825,1.674,1.6641,1.6522,1.6513,1.6513,1.6513,1.6479,1.6457,1.6436,1.6371,1.621,1.5947,1.5714,1.548,1.5255,1.5028,1.488,1.4766,1.4685,1.4557,1.435,1.4257,1.415,1.3962,1.3915,1.3844,1.3739,1.3716,1.3668,1.3644,1.361,1.361,1.361,1.361,1.361,1.361,1.361,1.361,3.876,3.8568,3.7856,3.747,3.723,3.6228,3.5755,3.5552,3.4907,3.4617,3.4603,3.4486,3.438,3.438,3.438,3.438,3.4341,3.3939,3.3674,3.3649,3.3021,3.273,3.2672,3.2017,3.1712,3.1671,3.109,3.0846,3.0936,3.0835,3.0558,3.0012,2.9083,2.8407,2.8045,2.6945,2.625,2.5915,2.4869,2.3688,2.2483,2.2425,2.2048,2.1249,2.0785,2.0465,2.0291,1.9682,1.9333,1.9319,1.9188,1.9116,1.9116,1.9116,1.9116,1.9116,1.9116,1.9116,1.9116,1.904,1.9031,1.9031,1.8908,1.8817,1.875,1.8528,1.8279,1.8029,1.7929,1.7781,1.7556,1.7446,1.735,1.7253,1.7115,1.7023,1.6918,1.6812,1.6697,1.6565,1.6522,1.6513,1.6513,1.6513,1.65,1.65,1.6457,1.6306,1.611,1.5935,1.5681,1.5458,1.5176,1.4983,1.4937,1.4857,1.4742,1.4523,1.4454,1.4337,1.415,1.408,1.3986,1.3892,1.3844,1.3821,1.3716,1.3658,1.3668,1.3668,1.3634,1.361,1.361,1.361,1.361,3.9053,3.8995,3.8554,3.7958,3.7331,3.7157,3.6751,3.617,3.5581,3.5319,3.5232,3.4661,3.438,3.438,3.438,3.438,3.438,3.4341,3.4298,3.4225,3.3707,3.3416,3.3344,3.2716,3.2394,3.2338,3.1758,3.1409,3.1413,3.1024,3.0499,3.0001,2.9782,2.908,2.7923,2.7592,2.6994,2.5872,2.5687,2.5019,2.3827,2.374,2.3136,2.1931,2.1844,2.1525,2.093,2.0335,2.0001,1.9957,1.9449,1.913,1.913,1.9116,1.9116,1.9116,1.9116,1.9116,1.9116,1.9116,1.9097,1.9082,1.9036,1.8974,1.8955,1.8788,1.8562,1.8321,1.8063,1.7889,1.7821,1.759,1.7404,1.7363,1.7253,1.7136,1.7002,1.6939,1.6846,1.6697,1.6577,1.6513,1.65,1.6513,1.6513,1.6513,1.6457,1.6392,1.6306,1.6066,1.5824,1.5703,1.5458,1.5221,1.5108,1.496,1.4857,1.4765,1.4661,1.4534,1.4384,1.4257,1.4129,1.4057,1.3986,1.3962,1.3915,1.3868,1.3797,1.3773,1.3692,1.361,1.361,1.361,1.361,3.9265,3.9265,3.8848,3.8429,3.7995,3.7499,3.7157,3.6823,3.5807,3.5392,3.5319,3.469,3.438,3.438,3.438,3.438,3.4414,3.4515,3.4515,3.4399,3.4253,3.4137,3.3964,3.3369,3.3079,3.3021,3.2425,3.198,3.1759,3.1397,3.1057,3.0819,3.0477,2.9918,2.9204,2.8429,2.7674,2.7056,2.6614,2.5937,2.5038,2.4283,2.3644,2.3107,2.2381,2.1888,2.1569,2.0973,2.0625,2.0625,2.0364,2.0059,1.9696,1.9682,1.9508,1.9159,1.9116,1.9116,1.9116,1.9116,1.9116,1.9116,1.9078,1.904,1.9012,1.8917,1.8897,1.8979,1.8502,1.8075,1.7936,1.7794,1.7618,1.7446,1.735,1.7246,1.7023,1.6981,1.6897,1.6718,1.6654,1.659,1.6534,1.6513,1.6513,1.6513,1.6479,1.6436,1.6392,1.6275,1.611,1.5935,1.5736,1.5503,1.53,1.5187,1.504,1.4903,1.4811,1.4743,1.465,1.45,1.4384,1.4244,1.4186,1.4093,1.3986,1.3962,1.3915,1.3868,1.3797,1.3692,1.3634,1.361,1.361,3.9532,3.9394,3.9068,3.8775,3.8546,3.79,3.7637,3.7492,3.6395,3.5828,3.5595,3.4951,3.4608,3.4496,3.4481,3.4481,3.4481,3.4664,3.4683,3.4549,3.465,3.4631,3.4423,3.4064,3.3831,3.3729,3.3208,3.2725,3.2357,3.1916,3.1721,3.1617,3.1063,3.0561,3.0152,2.9165,2.854,2.813,2.7494,2.6861,2.6239,2.5067,2.4239,2.3862,2.3006,2.2439,2.2251,2.1627,2.1299,2.1264,2.1104,2.082,2.0378,2.0349,2.0059,1.9464,1.9377,1.929,1.913,1.9116,1.9116,1.9116,1.9246,1.9339,1.9358,1.943,1.964,1.9857,1.9309,1.8842,1.8584,1.844,1.8266,1.8015,1.7922,1.7768,1.7566,1.751,1.7475,1.7284,1.7342,1.7099,1.6872,1.6656,1.6513,1.6513,1.6513,1.65,1.6436,1.6426,1.6328,1.6132,1.5944,1.5748,1.547,1.5335,1.5198,1.5085,1.4971,1.4869,1.4834,1.4719,1.465,1.4511,1.4396,1.4326,1.4267,1.4174,1.4044,1.3997,1.3915,1.381,1.3681,1.3658,1.3644,3.9854,3.9661,3.925,3.8995,3.8745,3.8531,3.8435,3.8332,3.7506,3.6852,3.6264,3.5639,3.5132,3.4723,3.4756,3.4712,3.4698,3.4835,3.4868,3.4835,3.475,3.4698,3.4698,3.4668,3.4624,3.4555,3.4144,3.3672,3.3223,3.2615,3.2273,3.2228,3.1618,3.0892,3.0303,3.0038,2.9615,2.8915,2.8259,2.7813,2.7461,2.6329,2.5164,2.4109,2.3856,2.3499,2.291,2.2294,2.196,2.196,2.1409,2.1017,2.0959,2.0944,2.064,2.0146,2.0059,1.9783,1.929,1.9217,1.9217,1.9246,1.974,2.0059,2.0068,2.0414,2.0685,2.0822,2.0521,2.0246,2.0088,1.9677,1.9451,1.9288,1.9119,1.8899,1.8767,1.8585,1.8698,1.8587,1.8405,1.8073,1.7565,1.6914,1.6697,1.6626,1.6563,1.6613,1.6654,1.6548,1.6517,1.6464,1.6264,1.5937,1.5727,1.5514,1.5357,1.5233,1.5108,1.4926,1.488,1.4846,1.4811,1.4776,1.4707,1.4627,1.4557,1.4441,1.4267,1.415,1.4033,1.3928,1.381,1.3787,1.3739,4.0172,3.9839,3.946,3.9265,3.9141,3.8833,3.8686,3.8627,3.7967,3.7556,3.7248,3.6632,3.6021,3.5501,3.5602,3.5347,3.4865,3.5016,3.5034,3.4935,3.4983,3.4949,3.485,3.4817,3.4883,3.4986,3.4845,3.4579,3.4175,3.3638,3.3171,3.2764,3.2523,3.1969,3.121,3.0662,3.0207,2.9771,2.9098,2.8446,2.7958,2.7433,2.6546,2.5193,2.4704,2.4172,2.3572,2.3325,2.302,2.2606,2.233,2.204,2.1641,2.1235,2.0915,2.0698,2.0683,2.0567,2.0349,2.0306,2.032,2.0335,2.0524,2.0683,2.0698,2.088,2.1093,2.1355,2.1406,2.1383,2.1338,2.0593,1.9836,1.9637,1.9414,1.9237,1.9048,1.8934,1.8845,1.8802,1.8683,1.8452,1.8183,1.7862,1.768,1.7624,1.7601,1.7564,1.7576,1.7543,1.7458,1.7439,1.7347,1.7185,1.694,1.6084,1.5537,1.5413,1.5289,1.521,1.5154,1.4994,1.4926,1.4891,1.488,1.4822,1.4719,1.4604,1.4441,1.4337,1.4221,1.4104,1.3939,1.3939,1.3858,4.0436,4.0121,3.9788,3.961,3.9568,3.9177,3.898,3.8936,3.8427,3.8111,3.7845,3.7417,3.6871,3.6428,3.6554,3.6216,3.5525,3.5416,3.5282,3.5151,3.5297,3.5279,3.5148,3.5133,3.5216,3.5362,3.5492,3.5398,3.5151,3.4714,3.4256,3.3859,3.3358,3.2784,3.2154,3.1407,3.0951,3.0647,2.9971,2.9298,2.8775,2.828,2.7639,2.6641,2.5868,2.5077,2.4239,2.4196,2.3905,2.3331,2.3215,2.2939,2.2316,2.1852,2.1525,2.1351,2.1307,2.1206,2.1032,2.0988,2.0988,2.1017,2.1227,2.1322,2.1322,2.1496,2.1801,2.2083,2.2147,2.2259,2.2193,2.1403,2.0614,2.0366,2.0115,1.9917,1.9754,1.9627,1.9549,1.9467,1.918,1.8933,1.8774,1.8563,1.8354,1.8262,1.8228,1.8204,1.8204,1.8204,1.818,1.8097,1.7962,1.7806,1.7614,1.695,1.6262,1.603,1.5621,1.5496,1.5393,1.521,1.5062,1.5017,1.4971,1.4914,1.4834,1.4753,1.4627,1.4523,1.443,1.4314,1.4197,1.4104,1.4033,4.0696,4.0489,4.0301,4.0091,3.996,3.9553,3.9424,3.9322,3.8972,3.8537,3.8159,3.7955,3.7712,3.7347,3.7464,3.7226,3.6697,3.6187,3.5808,3.5671,3.5688,3.5621,3.5522,3.5606,3.572,3.5752,3.6053,3.6196,3.612,3.5723,3.546,3.5168,3.4035,3.3441,3.32,3.246,3.1925,3.1647,3.1022,3.0466,3.0164,2.9043,2.8338,2.8063,2.7372,2.6338,2.4994,2.4853,2.452,2.3992,2.3905,2.3601,2.3026,2.2852,2.262,2.2091,2.2004,2.1685,2.1191,2.1148,2.122,2.1278,2.1656,2.1989,2.2062,2.2417,2.2728,2.2735,2.274,2.2735,2.2563,2.2257,2.1871,2.1647,2.1278,2.1062,2.0924,2.0896,2.0823,2.0515,2.0014,1.9631,1.9453,1.9114,1.8718,1.8597,1.8476,1.843,1.8468,1.848,1.8304,1.8281,1.8371,1.8423,1.8176,1.7845,1.7265,1.6704,1.6159,1.5808,1.5738,1.5589,1.5405,1.5336,1.5187,1.5131,1.5006,1.4891,1.4811,1.4685,1.4627,1.4557,1.4465,1.4337,1.4197,4.1122,4.0987,4.0578,4.0385,4.0296,3.996,3.9818,3.9783,3.9538,3.9311,3.9161,3.9131,3.8807,3.8402,3.8454,3.8314,3.794,3.7665,3.7033,3.611,3.5925,3.5957,3.602,3.6022,3.6164,3.6399,3.6631,3.6739,3.6723,3.6583,3.6318,3.579,3.5372,3.4862,3.4322,3.3589,3.3093,3.2861,3.2124,3.1382,3.0721,3.0216,2.9672,2.902,2.8332,2.7664,2.7122,2.6068,2.5212,2.4549,2.4573,2.4283,2.3722,2.3586,2.3273,2.2722,2.262,2.2577,2.2374,2.2316,2.2316,2.2345,2.2511,2.2606,2.2635,2.2794,2.2917,2.2902,2.2894,2.2849,2.2735,2.2666,2.2455,2.1912,2.1688,2.1536,2.1385,2.1113,2.0913,2.0812,2.0542,2.0338,2.0213,1.9856,1.9655,1.9457,1.9396,1.9333,1.9296,1.9183,1.9309,1.9284,1.9221,1.9046,1.8859,1.866,1.8216,1.7642,1.7039,1.6453,1.6265,1.6006,1.5831,1.5553,1.5415,1.5289,1.5153,1.5062,1.4983,1.4869,1.48,1.4731,1.4673,1.4557,1.443,4.1472,4.139,4.1055,4.0833,4.0677,4.0331,4.0156,4.0172,3.991,3.9818,3.9788,3.9803,3.9592,3.9314,3.9447,3.929,3.8941,3.9027,3.8407,3.7305,3.715,3.7059,3.6799,3.6569,3.66,3.68,3.6984,3.7105,3.7165,3.721,3.7035,3.6658,3.633,3.5882,3.5339,3.4556,3.4022,3.3615,3.3057,3.232,3.1546,3.1101,3.0631,2.9976,2.928,2.8886,2.8649,2.7435,2.6301,2.5402,2.5033,2.466,2.4297,2.4239,2.4027,2.3737,2.3612,2.3635,2.3621,2.3612,2.3621,2.3621,2.3418,2.3273,2.3273,2.3273,2.3273,2.3273,2.3519,2.3589,2.3539,2.3501,2.3321,2.2983,2.2484,2.219,2.2029,2.1713,2.1394,2.1254,2.0955,2.0763,2.0612,2.0524,2.0385,2.0131,2.0042,1.9952,1.9837,1.9761,1.9798,1.9798,1.966,1.9571,1.9582,1.9394,1.9145,1.8598,1.8007,1.7436,1.7049,1.6606,1.6298,1.577,1.5503,1.5435,1.5311,1.5266,1.5198,1.5085,1.4994,1.496,1.4926,1.48,1.4685,4.1865,4.167,4.1621,4.1406,4.1102,4.0712,4.0558,4.047,4.0207,4.0066,4.0066,4.0117,4.0051,4.0121,4.0293,4.0161,3.9797,4.002,3.9888,3.9404,3.9185,3.8856,3.7981,3.7421,3.7247,3.7277,3.7287,3.7298,3.7417,3.7567,3.77,3.7544,3.6904,3.644,3.6195,3.5444,3.4732,3.4282,3.3951,3.3364,3.2502,3.1839,3.132,3.108,3.0322,2.9852,2.9585,2.8785,2.7628,2.6209,2.5431,2.5145,2.4975,2.4907,2.4888,2.4728,2.4844,2.4747,2.4766,2.4607,2.465,2.4631,2.421,2.3949,2.3949,2.3949,2.3949,2.3954,2.436,2.4645,2.4586,2.4558,2.4527,2.4437,2.3628,2.3197,2.3233,2.2762,2.2288,2.1873,2.1423,2.1067,2.0998,2.0882,2.0614,2.0399,2.0246,2.0042,1.9901,1.9862,1.9824,1.9798,1.9798,1.9798,1.9708,1.9671,1.9445,1.9257,1.8759,1.8302,1.7665,1.7156,1.6697,1.6175,1.5672,1.5593,1.5513,1.5446,1.5401,1.5356,1.5289,1.5233,1.5142,1.5028,1.505,4.2589,4.2174,4.1915,4.1686,4.1439,4.1189,4.1052,4.0932,4.0677,4.0574,4.0558,4.0608,4.0574,4.0627,4.0814,4.0961,4.099,4.1107,4.1321,4.131,4.131,4.0468,3.9251,3.8508,3.8298,3.8386,3.7973,3.7743,3.7772,3.7817,3.7847,3.7847,3.761,3.747,3.7332,3.6552,3.6058,3.5688,3.509,3.4373,3.3609,3.3305,3.285,3.2144,3.1409,3.0953,3.0688,2.9816,2.85,2.6938,2.6671,2.6289,2.5837,2.5814,2.5653,2.5209,2.5092,2.5,2.4892,2.4882,2.4868,2.4824,2.4747,2.4563,2.4563,2.4617,2.4617,2.4592,2.4752,2.4882,2.4858,2.4887,2.4986,2.5139,2.4475,2.3876,2.3747,2.3353,2.2997,2.2852,2.2522,2.2284,2.2034,2.1745,2.1367,2.1121,2.0759,2.0322,2.0194,2.004,2.0078,1.9849,1.9798,1.9798,1.9798,1.9798,1.9761,1.971,1.9395,1.9095,1.8339,1.7603,1.7163,1.6678,1.6135,1.5938,1.5741,1.5614,1.5592,1.5603,1.5547,1.548,1.538,1.5278,1.5452,4.2977,4.2381,4.2206,4.2012,4.1834,4.1621,4.1439,4.1288,4.1104,4.0969,4.095,4.0916,4.095,4.1037,4.1205,4.1439,4.1719,4.1785,4.19,4.2029,4.2029,4.1326,4.0292,3.9589,3.9361,3.9358,3.8702,3.8443,3.8389,3.8165,3.8036,3.802,3.802,3.7976,3.7812,3.7463,3.6931,3.6591,3.6093,3.5489,3.4603,3.4513,3.401,3.331,3.2645,3.2183,3.134,3.0627,2.9555,2.8376,2.7963,2.7656,2.703,2.6993,2.6699,2.6046,2.5952,2.5852,2.5737,2.5701,2.5676,2.5578,2.5444,2.5241,2.5226,2.5255,2.5255,2.5241,2.5433,2.5647,2.5676,2.5701,2.576,2.5877,2.5454,2.4994,2.4759,2.4289,2.3886,2.3619,2.3324,2.3003,2.2857,2.2471,2.2181,2.1904,2.1603,2.1082,2.0655,2.0501,2.036,2.0219,2.0054,2.0054,2.0029,2.0029,1.9965,1.9927,1.9863,1.9597,1.8983,1.8153,1.7796,1.7342,1.6715,1.6286,1.6251,1.6086,1.5903,1.5881,1.5814,1.5857,1.5862,1.5832,1.5975,4.3202,4.2526,4.2445,4.2318,4.2109,4.1996,4.185,4.1621,4.1489,4.1339,4.127,4.1203,4.1321,4.1423,4.1588,4.1768,4.1996,4.2125,4.2174,4.2254,4.2174,4.1789,4.1276,4.0539,4.0281,4.0184,3.9498,3.9186,3.9017,3.8624,3.8318,3.8225,3.8209,3.8135,3.8004,3.7899,3.761,3.721,3.6997,3.6453,3.5728,3.5514,3.5098,3.4301,3.385,3.3096,3.2133,3.1443,3.0821,2.9789,2.9394,2.885,2.8364,2.832,2.8042,2.7572,2.7336,2.7272,2.7167,2.7074,2.6936,2.6765,2.6286,2.5923,2.5923,2.5894,2.5934,2.5919,2.6471,2.6588,2.6605,2.6718,2.6582,2.6462,2.6424,2.6283,2.5957,2.5348,2.4732,2.434,2.3916,2.3525,2.3258,2.3058,2.2991,2.2777,2.2405,2.1811,2.1418,2.1261,2.1041,2.0771,2.0566,2.0322,2.0297,2.0246,2.0207,2.0144,2.0118,1.9902,1.9447,1.8833,1.8522,1.8089,1.7534,1.7239,1.7119,1.6862,1.6532,1.6477,1.6608,1.6648,1.6651,1.6608,1.6658,4.4075,4.3379,4.2813,4.2476,4.2349,4.2286,4.219,4.198,4.1948,4.1883,4.1866,4.1866,4.1899,4.1916,4.1964,4.2142,4.2429,4.2476,4.2555,4.2696,4.2539,4.2459,4.2089,4.1446,4.1157,4.1041,4.052,3.9938,3.9561,3.9321,3.8913,3.8432,3.8448,3.8335,3.8278,3.8164,3.8103,3.7898,3.7735,3.7294,3.6741,3.6554,3.6163,3.5379,3.4691,3.405,3.3384,3.2679,3.2148,3.1549,3.0537,2.9766,2.9403,2.9316,2.9113,2.8896,2.88,2.8695,2.8519,2.832,2.815,2.7549,2.7345,2.7072,2.6605,2.662,2.6631,2.6617,2.6707,2.6936,2.6992,2.6864,2.6936,2.6912,2.6748,2.6584,2.6351,2.5929,2.5532,2.53,2.5135,2.5012,2.4833,2.4137,2.3906,2.3662,2.3178,2.2536,2.2243,2.2056,2.1809,2.155,2.129,2.1121,2.103,2.0888,2.0604,2.0463,2.0373,2.0296,1.9825,1.9546,1.923,1.8853,1.8426,1.8177,1.7956,1.7703,1.7373,1.7413,1.7414,1.7418,1.7444,1.7375,1.746,4.4805,4.3831,4.3488,4.3114,4.2744,4.2649,4.2508,4.2349,4.227,4.2174,4.2109,4.2077,4.2142,4.2254,4.2302,4.2508,4.2696,4.2821,4.2867,4.2945,4.2821,4.2744,4.2664,4.2231,4.1958,4.1938,4.1338,4.0788,4.051,4.0089,3.9606,3.8987,3.8938,3.8699,3.844,3.8323,3.8278,3.8262,3.8193,3.7898,3.758,3.7472,3.7122,3.6346,3.5509,3.492,3.4537,3.4203,3.3833,3.3287,3.2256,3.1098,3.0407,3.0247,3.0099,2.9729,2.9537,2.9387,2.9165,2.8958,2.8687,2.8244,2.8173,2.7998,2.7752,2.7706,2.7719,2.7773,2.7815,2.78,2.7881,2.7896,2.7866,2.7854,2.7702,2.7579,2.7398,2.6711,2.6002,2.5866,2.5742,2.5619,2.5356,2.4929,2.4709,2.4449,2.4311,2.3699,2.3134,2.2932,2.2695,2.2418,2.2141,2.1944,2.1878,2.1577,2.1095,2.0887,2.0693,2.0576,2.0332,2.0138,1.9959,1.954,1.9149,1.8923,1.8711,1.8454,1.8219,1.8114,1.8114,1.8173,1.8226,1.8203,1.835,4.5424,4.4348,4.4246,4.3834,4.3279,4.3025,4.2821,4.2649,4.2571,4.246,4.2302,4.227,4.2429,4.2523,4.2634,4.2806,4.2976,4.3068,4.316,4.3113,4.3007,4.293,4.2867,4.2709,4.2598,4.2615,4.2049,4.1693,4.1353,4.0996,4.0318,3.9765,3.9667,3.9298,3.8748,3.857,3.8509,3.8412,3.8335,3.8307,3.8185,3.8141,3.7733,3.7138,3.6405,3.5899,3.5629,3.5359,3.52,3.4964,3.4193,3.3044,3.1992,3.1201,3.0976,3.0354,3.0247,3.0101,2.988,2.9553,2.9284,2.8954,2.8854,2.8752,2.8693,2.8562,2.8575,2.8702,2.8728,2.8768,2.9083,2.8908,2.8937,2.8982,2.8943,2.889,2.8561,2.7501,2.688,2.6269,2.6312,2.6244,2.5923,2.5549,2.5384,2.523,2.5076,2.4827,2.4212,2.3791,2.355,2.3296,2.3029,2.2538,2.2379,2.23,2.1812,2.1524,2.125,2.1002,2.0819,2.0534,2.0329,2.0203,1.9897,1.9654,1.9451,1.924,1.9023,1.886,1.8867,1.9017,1.907,1.9033,1.9156,4.6209,4.5881,4.4702,4.4112,4.3932,4.3344,4.3052,4.3005,4.2959,4.2943,4.2912,4.2912,4.2881,4.2943,4.2974,4.3113,4.3281,4.3342,4.3342,4.3312,4.319,4.3099,4.3068,4.299,4.2974,4.2912,4.2577,4.2178,4.1788,4.1434,4.1029,4.051,4.0335,3.9978,3.9476,3.9266,3.8991,3.8602,3.8521,3.8476,3.8379,3.8335,3.8246,3.7842,3.7203,3.6846,3.6502,3.5963,3.549,3.5322,3.5059,3.4669,3.3916,3.2816,3.2084,3.1777,3.1571,3.1343,3.1061,3.0804,3.0409,2.9971,2.9637,2.9275,2.904,2.8866,2.904,2.9079,2.9162,2.9171,2.9112,2.9359,2.9199,2.9156,2.9245,2.9189,2.9088,2.8757,2.817,2.7451,2.7196,2.6871,2.6506,2.6144,2.591,2.5633,2.5328,2.5188,2.4801,2.4552,2.4398,2.4169,2.394,2.3351,2.2831,2.2764,2.2552,2.2273,2.1983,2.1602,2.1327,2.0908,2.0676,2.0627,2.0486,2.0241,2.0075,1.9935,1.9859,1.9677,1.9771,1.985,1.9749,1.9623,1.9635,4.6832,4.6421,4.5416,4.482,4.436,4.3577,4.3251,4.3235,4.3143,4.3096,4.3096,4.3096,4.3096,4.3127,4.3235,4.3372,4.3479,4.3509,4.3509,4.3479,4.3342,4.3281,4.3235,4.3174,4.3096,4.3035,4.2896,4.272,4.2378,4.2333,4.1833,4.133,4.1107,4.0721,4.0156,3.9978,3.9635,3.912,3.8942,3.8764,3.844,3.8408,3.8351,3.8193,3.7988,3.7738,3.7544,3.7267,3.6857,3.6565,3.6121,3.576,3.5271,3.4556,3.3661,3.3372,3.2997,3.2599,3.2132,3.1676,3.1056,3.0704,3.0456,3.0251,2.9987,2.9886,2.9783,2.9999,3.0229,3.0357,3.0401,3.0269,3.0342,3.0342,3.0256,3.0198,3.0184,3.0127,2.9531,2.8737,2.8405,2.7917,2.7092,2.677,2.645,2.6089,2.5688,2.5467,2.534,2.5131,2.499,2.4854,2.4623,2.4283,2.3716,2.3514,2.3393,2.3111,2.2711,2.2326,2.2023,2.1668,2.1367,2.1172,2.099,2.0808,2.0535,2.0354,2.0421,2.0448,2.032,2.0218,2.0232,2.0233,2.022,4.7441,4.683,4.6083,4.5481,4.4837,4.3856,4.3432,4.3402,4.3281,4.3235,4.3204,4.3204,4.3204,4.3235,4.3372,4.3509,4.3615,4.3598,4.3598,4.3568,4.3509,4.3449,4.3402,4.3312,4.3235,4.3265,4.3204,4.3157,4.297,4.2878,4.2586,4.2213,4.1929,4.1511,4.0943,4.0797,4.0345,3.9927,3.97,3.9327,3.878,3.8489,3.8391,3.8391,3.8391,3.8303,3.8169,3.8019,3.7889,3.7559,3.7115,3.664,3.6445,3.5991,3.5535,3.5076,3.4266,3.3579,3.3016,3.2421,3.1901,3.1471,3.1324,3.1131,3.0911,3.0749,3.0896,3.1176,3.1292,3.1347,3.1229,3.1407,3.1407,3.1377,3.1261,3.1291,3.1158,3.104,3.0789,3.0173,2.9703,2.8949,2.8115,2.769,2.7451,2.7043,2.6623,2.6162,2.598,2.555,2.5383,2.5369,2.5245,2.5119,2.4763,2.4353,2.4202,2.3998,2.3499,2.3017,2.2804,2.2551,2.2194,2.1799,2.1564,2.1342,2.1027,2.0712,2.0624,2.0574,2.0562,2.064,2.0758,2.0785,2.0771,4.7918,4.7703,4.6361,4.5732,4.5417,4.4144,4.3568,4.3568,4.3539,4.3522,4.3509,4.3522,4.3492,4.3522,4.3539,4.3568,4.3598,4.3615,4.3615,4.3598,4.3568,4.3552,4.3552,4.3568,4.3509,4.3462,4.3492,4.3372,4.3204,4.3113,4.3066,4.2855,4.2727,4.25,4.1713,4.1618,4.123,4.0542,4.0367,4.0027,3.9379,3.8796,3.8521,3.8472,3.8408,3.8391,3.8335,3.8278,3.818,3.8091,3.7854,3.7645,3.7544,3.7483,3.7168,3.6465,3.5467,3.4351,3.3893,3.3352,3.2841,3.2363,3.2079,3.1723,3.1397,3.119,3.1205,3.1263,3.1424,3.1511,3.1496,3.1496,3.1496,3.1496,3.1467,3.1467,3.1438,3.1409,3.1202,3.1172,3.0552,2.9878,2.9107,2.8765,2.8437,2.8023,2.7583,2.7088,2.6554,2.605,2.5716,2.5647,2.5536,2.5411,2.5342,2.4997,2.4844,2.4705,2.4297,2.3756,2.3579,2.3364,2.2829,2.2484,2.222,2.1799,2.1367,2.104,2.0817,2.087,2.1068,2.1224,2.1342,2.1355,2.1379,4.7371,4.7272,4.6245,4.5549,4.5052,4.4059,4.3615,4.3615,4.3615,4.3615,4.3615,4.3615,4.3615,4.3615,4.3615,4.3615,4.3615,4.3615,4.3615,4.3615,4.3615,4.3615,4.3598,4.3615,4.3615,4.3615,4.3615,4.3522,4.3355,4.3295,4.3265,4.3251,4.3157,4.2951,4.2468,4.2441,4.1973,4.133,4.0783,4.0367,3.9946,3.9412,3.9035,3.9019,3.8634,3.8456,3.8424,3.8363,3.8266,3.8221,3.8107,3.7934,3.7759,3.7655,3.7478,3.6967,3.6318,3.5475,3.4684,3.4106,3.3592,3.3231,3.2885,3.2555,3.2005,3.1589,3.1366,3.1322,3.1424,3.1525,3.154,3.1496,3.1496,3.1496,3.1496,3.1496,3.1496,3.1496,3.1437,3.1467,3.1408,3.067,3.0068,2.9763,2.9301,2.8739,2.8295,2.7852,2.7128,2.6382,2.6075,2.5907,2.5771,2.5605,2.555,2.5384,2.5259,2.5148,2.5022,2.4584,2.4445,2.4117,2.3604,2.3254,2.3025,2.2496,2.1812,2.1616,2.1577,2.1642,2.1668,2.1812,2.1917,2.2021,2.2121,4.651,4.6295,4.5748,4.5202,4.4622,4.391,4.3615,4.3615,4.3615,4.3615,4.3615,4.3615,4.3615,4.3615,4.3615,4.3615,4.3615,4.3615,4.3615,4.3615,4.3615,4.3615,4.3615,4.3615,4.3615,4.3615,4.3615,4.3568,4.3568,4.3492,4.3432,4.3449,4.3325,4.3202,4.3127,4.2923,4.2523,4.1979,4.1237,4.0883,4.0642,4.0092,3.9846,3.9554,3.9149,3.8724,3.8707,3.8537,3.8432,3.8335,3.8307,3.8135,3.7831,3.77,3.748,3.7075,3.6629,3.6153,3.5415,3.4834,3.4257,3.3877,3.3514,3.3109,3.2705,3.2109,3.1886,3.2035,3.2079,3.2034,3.1809,3.178,3.1675,3.1615,3.1496,3.1496,3.1496,3.1511,3.1496,3.1496,3.1467,3.1438,3.0935,3.0685,3.0202,2.9534,2.9027,2.8551,2.7821,2.6983,2.6646,2.6479,2.6075,2.5937,2.5812,2.573,2.5647,2.5536,2.5411,2.5216,2.4939,2.473,2.4374,2.4086,2.3771,2.3502,2.2971,2.2692,2.2388,2.2192,2.2087,2.2349,2.2519,2.2622,2.283,4.5467,4.4851,4.4787,4.4752,4.4605,4.3896,4.3615,4.3615,4.3615,4.3615,4.3615,4.3615,4.3615,4.3615,4.3615,4.3615,4.3615,4.3615,4.3615,4.3615,4.3615,4.3615,4.3615,4.3615,4.3615,4.3615,4.3615,4.3615,4.3615,4.3598,4.3568,4.3552,4.3542,4.3495,4.3342,4.3113,4.2834,4.2371,4.1792,4.1547,4.1336,4.0883,4.0448,4.0316,3.9933,3.9597,3.9565,3.9112,3.8786,3.8662,3.8508,3.8262,3.7934,3.7759,3.7464,3.709,3.677,3.6415,3.592,3.5547,3.5159,3.4521,3.3933,3.3589,3.3378,3.3364,3.3274,3.3095,3.2946,3.2826,3.2617,3.2378,3.2213,3.2019,3.1899,3.175,3.169,3.1525,3.1511,3.1496,3.1467,3.1467,3.1467,3.1112,3.0937,3.0322,2.9722,2.9271,2.8665,2.7906,2.7494,2.7112,2.6562,2.6283,2.6171,2.6089,2.6091,2.5883,2.5689,2.548,2.5203,2.5049,2.4922,2.467,2.4341,2.4253,2.407,2.3471,2.2955,2.2558,2.2518,2.2884,2.3171,2.3341,2.3563,4.4688,4.4042,4.4026,4.4042,4.4009,4.3714,4.3615,4.3615,4.3615,4.3615,4.3615,4.3615,4.3615,4.3615,4.3615,4.3615,4.3615,4.3615,4.3615,4.3615,4.3615,4.3615,4.3615,4.3615,4.3615,4.3615,4.3615,4.3615,4.3615,4.3681,4.3992,4.4026,4.3896,4.3525,4.3372,4.3162,4.2852,4.2648,4.2391,4.2229,4.2083,4.1596,4.1191,4.1142,4.0645,4.0424,4.0261,3.9699,3.9422,3.917,3.8792,3.8363,3.7995,3.782,3.7435,3.7045,3.6739,3.6476,3.6242,3.599,3.5646,3.5164,3.4532,3.4129,3.4068,3.3784,3.3559,3.3484,3.3589,3.3455,3.323,3.311,3.2991,3.2676,3.2422,3.2183,3.2034,3.1914,3.1675,3.1735,3.16,3.1496,3.1496,3.1437,3.1335,3.1101,3.0525,2.9939,2.9401,2.8852,2.8407,2.7993,2.7481,2.7241,2.7128,2.6875,2.6581,2.6343,2.6106,2.5925,2.5743,2.5411,2.5285,2.506,2.4904,2.4708,2.4418,2.3953,2.3589,2.3295,2.3343,2.3589,2.3825,2.3939,2.4125,4.4075,4.3631,4.3615,4.3615,4.3615,4.3615,4.3615,4.3615,4.3615,4.3615,4.3615,4.3615,4.3615,4.3615,4.3615,4.3615,4.3615,4.3615,4.3615,4.3615,4.3615,4.3615,4.3615,4.3615,4.3615,4.3615,4.3615,4.3631,4.4026,4.3959,4.4406,4.4671,4.4478,4.4155,4.3671,4.3166,4.2806,4.2634,4.2602,4.2602,4.2489,4.218,4.1889,4.1806,4.136,4.1154,4.0971,4.054,4.0181,3.9817,3.9332,3.8637,3.8203,3.7798,3.7407,3.706,3.6724,3.6414,3.6211,3.599,3.5782,3.5389,3.51,3.4816,3.4637,3.4337,3.4322,3.4233,3.4173,3.4008,3.3888,3.3784,3.3559,3.3245,3.3021,3.2796,3.2736,3.2617,3.2213,3.1989,3.1869,3.1809,3.1511,3.1511,3.1467,3.1351,3.1041,3.0642,3.0378,2.9823,2.9271,2.8882,2.8524,2.8382,2.8283,2.7797,2.7371,2.723,2.6976,2.668,2.6426,2.6105,2.5826,2.5683,2.5471,2.5194,2.482,2.4435,2.4246,2.4111,2.4066,2.3942,2.4086,2.4204,2.44,4.3631,4.3615,4.3615,4.3615,4.3615,4.3615,4.3615,4.3615,4.3615,4.3615,4.3615,4.3615,4.3615,4.3615,4.3615,4.3615,4.3615,4.3615,4.3615,4.3615,4.3615,4.3615,4.3615,4.3615,4.3681,4.3615,4.3764,4.4125,4.4671,4.4671,4.5102,4.5504,4.5426,4.4939,4.4443,4.3413,4.2839,4.2634,4.2602,4.2602,4.257,4.2473,4.2424,4.2278,4.2042,4.1868,4.1779,4.1243,4.0929,4.0782,3.9917,3.9237,3.8795,3.7872,3.7351,3.7015,3.6693,3.6414,3.6211,3.5879,3.5671,3.5522,3.528,3.5295,3.5385,3.534,3.519,3.4951,3.513,3.4966,3.4726,3.4459,3.4143,3.3918,3.3709,3.3469,3.3395,3.314,3.2766,3.2542,3.2452,3.2273,3.1809,3.1525,3.1511,3.1438,3.138,3.1217,3.104,3.0687,3.0086,2.9883,2.955,2.9377,2.916,2.8584,2.8183,2.8054,2.7782,2.7384,2.7241,2.7113,2.6802,2.6434,2.6208,2.6038,2.5497,2.4931,2.4927,2.4876,2.4249,2.4112,2.4269,2.4465,2.4674,4.3615,4.3615,4.3615,4.3615,4.3615,4.3615,4.3615,4.3615,4.3615,4.3615,4.3615,4.3615,4.3615,4.3615,4.3615,4.3615,4.3615,4.3615,4.3615,4.3615,4.3615,4.3615,4.3631,4.3731,4.388,4.4224,4.4373,4.4705,4.5417,4.5417,4.5847,4.6281,4.6157,4.5388,4.441,4.3569,4.3216,4.2699,4.2602,4.2602,4.2619,4.2602,4.2602,4.2586,4.2514,4.2521,4.2577,4.1896,4.1635,4.1534,4.0634,3.9774,3.9184,3.8237,3.7651,3.7156,3.6724,3.6367,3.6116,3.5831,3.5638,3.5539,3.5489,3.5489,3.5489,3.5489,3.5489,3.5489,3.5489,3.531,3.5205,3.5145,3.4966,3.4861,3.4637,3.4294,3.4069,3.3619,3.3275,3.32,3.3125,3.2796,3.2363,3.2004,3.1899,3.169,3.1632,3.1468,3.1304,3.1217,3.0864,3.0806,3.0645,3.0397,3.0032,2.9494,2.9102,2.8928,2.8483,2.794,2.7881,2.8003,2.7675,2.7234,2.7076,2.6905,2.6354,2.5873,2.5851,2.5651,2.4992,2.4633,2.4786,2.4926,2.5057,4.3776,4.3776,4.3776,4.3776,4.3747,4.3658,4.3615,4.3615,4.3615,4.3615,4.3615,4.3615,4.3615,4.3615,4.3615,4.3615,4.3615,4.3615,4.3615,4.3615,4.3615,4.378,4.3943,4.4042,4.4489,4.487,4.5166,4.545,4.6146,4.6179,4.6497,4.688,4.6848,4.6028,4.5017,4.4334,4.3751,4.3266,4.3072,4.2894,4.2732,4.2602,4.2602,4.2634,4.2695,4.282,4.2798,4.2523,4.2152,4.1957,4.129,4.0359,3.9682,3.8902,3.8294,3.7732,3.7001,3.6563,3.6081,3.575,3.5572,3.5489,3.5489,3.5489,3.5489,3.5489,3.5489,3.5489,3.5489,3.5489,3.5489,3.5489,3.5444,3.5325,3.519,3.4848,3.4728,3.4292,3.4053,3.3978,3.3724,3.3365,3.2976,3.2662,3.2407,3.2123,3.1884,3.175,3.1615,3.1439,3.1366,3.1307,3.1234,3.0925,3.0705,3.047,3.0119,2.9855,2.9347,2.8813,2.8793,2.8957,2.8484,2.807,2.7893,2.7617,2.7187,2.6879,2.6624,2.6233,2.5718,2.5474,2.5402,2.5498,2.5638,4.4097,4.4097,4.4097,4.4097,4.4039,4.3805,4.3687,4.3645,4.3645,4.3628,4.3628,4.3674,4.3674,4.3628,4.3598,4.3615,4.3615,4.3615,4.3698,4.3731,4.383,4.4191,4.4556,4.4754,4.5185,4.5599,4.5914,4.6195,4.6858,4.6924,4.716,4.7358,4.734,4.6632,4.5828,4.5258,4.4577,4.3994,4.3686,4.3395,4.3023,4.278,4.2732,4.2715,4.2665,4.2759,4.2741,4.2629,4.2629,4.2372,4.1735,4.1275,4.0626,3.9755,3.928,3.8601,3.7608,3.6892,3.6246,3.5896,3.5584,3.5549,3.5489,3.5489,3.5489,3.5489,3.5489,3.5489,3.5489,3.5489,3.5489,3.5489,3.5489,3.5459,3.5459,3.5355,3.537,3.516,3.4936,3.4726,3.4427,3.4068,3.3634,3.3275,3.2946,3.2721,3.2482,3.2348,3.2123,3.157,3.1482,3.1453,3.138,3.1307,3.1116,3.0925,3.0793,3.0396,3.0365,2.997,3.0005,2.9734,2.9286,2.888,2.8657,2.8363,2.8028,2.7594,2.7189,2.6813,2.6683,2.6334,2.6303,2.6296,2.6443,4.4184,4.4097,4.4097,4.4155,4.4224,4.4236,4.4121,4.3981,4.3952,4.3952,4.3952,4.3852,4.3839,4.3809,4.3658,4.3645,4.3615,4.3681,4.4026,4.4175,4.4357,4.4854,4.5235,4.5516,4.5963,4.6361,4.6676,4.6908,4.7504,4.7653,4.7506,4.7504,4.7504,4.7039,4.6673,4.6358,4.5484,4.482,4.4561,4.4043,4.3573,4.3363,4.3153,4.291,4.2732,4.2826,4.2873,4.2729,4.2744,4.2661,4.2172,4.1693,4.1038,4.0244,3.9634,3.867,3.7969,3.743,3.6806,3.6375,3.6043,3.5684,3.5564,3.5504,3.5489,3.5489,3.5489,3.5489,3.5489,3.5489,3.5489,3.5489,3.5489,3.5489,3.5489,3.5489,3.5489,3.5429,3.5235,3.5145,3.4861,3.4607,3.4203,3.3858,3.3544,3.3335,3.3155,3.3006,3.2647,3.2049,3.172,3.1705,3.1482,3.1409,3.1336,3.116,3.1087,3.0984,3.0881,3.0732,3.0464,3.0181,2.9925,2.9612,2.9242,2.9089,2.8962,2.8495,2.802,2.812,2.803,2.7534,2.7165,2.7107,2.7091,4.4536,4.4452,4.4452,4.4508,4.4592,4.4659,4.4575,4.4423,4.427,4.4167,4.4167,4.4056,4.3985,4.3939,4.3805,4.3734,4.375,4.4039,4.4324,4.4539,4.5033,4.5599,4.6013,4.6295,4.6692,4.709,4.7371,4.752,4.7934,4.7968,4.782,4.7588,4.7554,4.7285,4.705,4.6783,4.6457,4.5825,4.5305,4.4787,4.4415,4.414,4.3816,4.3508,4.3233,4.315,4.3132,4.2909,4.2729,4.2713,4.2302,4.1949,4.1422,4.0842,4.0033,3.9141,3.8608,3.8056,3.7488,3.7052,3.6543,3.6088,3.5878,3.5729,3.5579,3.5489,3.5489,3.5489,3.5489,3.5489,3.5489,3.5489,3.5489,3.5489,3.5489,3.5489,3.5489,3.5489,3.5459,3.5415,3.525,3.504,3.4726,3.4412,3.4158,3.3978,3.3784,3.3589,3.314,3.2482,3.2183,3.2079,3.175,3.1482,3.1424,3.138,3.1263,3.1176,3.1117,3.0969,3.0791,3.0538,3.0224,2.9964,2.9701,2.9549,2.9386,2.9268,2.8983,2.9004,2.8876,2.8411,2.7926,2.7704,2.7734,4.5032,4.5032,4.5059,4.5032,4.5059,4.5059,4.5059,4.5005,4.4631,4.4378,4.4367,4.4224,4.4184,4.4155,4.401,4.391,4.4022,4.4314,4.4685,4.4837,4.5582,4.6278,4.6792,4.7007,4.7305,4.7752,4.7968,4.7852,4.7951,4.7968,4.7886,4.7721,4.7604,4.7386,4.7183,4.703,4.6767,4.6536,4.605,4.5565,4.5063,4.4868,4.482,4.4593,4.4188,4.3767,4.3605,4.3201,4.2667,4.2589,4.2349,4.2093,4.1672,4.1295,4.0435,3.9862,3.9291,3.8743,3.8198,3.7714,3.7203,3.6791,3.6552,3.6237,3.5983,3.5579,3.5504,3.5504,3.5489,3.5489,3.5489,3.5489,3.5489,3.5489,3.5489,3.5489,3.5489,3.5489,3.5489,3.5459,3.5415,3.5235,3.522,3.4906,3.4801,3.4622,3.4502,3.4292,3.3888,3.3215,3.2856,3.2617,3.2138,3.1839,3.1691,3.1647,3.1453,3.1351,3.1322,3.1205,3.1029,3.0791,3.0492,3.0249,2.9991,2.9853,2.9701,2.9557,2.9415,2.9289,2.9162,2.9049,2.8739,2.8363,2.8136,4.5398,4.5292,4.5415,4.5468,4.5468,4.5563,4.5589,4.5589,4.5389,4.5096,4.4841,4.4692,4.4536,4.4406,4.4253,4.4143,4.419,4.4734,4.5095,4.5647,4.6326,4.6924,4.757,4.7603,4.7819,4.7918,4.8001,4.8001,4.8001,4.7968,4.7886,4.7704,4.7621,4.7521,4.7251,4.7132,4.7048,4.6945,4.6649,4.618,4.5678,4.5484,4.5386,4.5014,4.4544,4.4528,4.4302,4.3864,4.3541,4.3347,4.2511,4.1914,4.137,4.1052,4.0703,4.029,3.9856,3.9367,3.8879,3.8366,3.7858,3.7419,3.7105,3.6761,3.6357,3.5818,3.5534,3.5534,3.5489,3.5489,3.5489,3.5489,3.5489,3.5489,3.5489,3.5489,3.5489,3.5489,3.5489,3.5489,3.5489,3.5489,3.5489,3.5474,3.5415,3.534,3.528,3.5115,3.4876,3.4352,3.3784,3.344,3.2706,3.2362,3.2168,3.2079,3.1989,3.1721,3.1589,3.1441,3.1308,3.0999,3.0702,3.0492,3.028,3.0099,2.9915,2.9792,2.9637,2.9526,2.9415,2.9289,2.9186,2.8903,2.8573,4.5146,4.5165,4.5511,4.5701,4.5701,4.577,4.5812,4.577,4.5701,4.5572,4.5327,4.5113,4.4923,4.4725,4.4519,4.4653,4.4662,4.5173,4.5832,4.647,4.6973,4.7487,4.7885,4.8001,4.7984,4.8001,4.8001,4.8001,4.8001,4.8001,4.7935,4.782,4.7754,4.7605,4.7386,4.7319,4.7183,4.7046,4.6961,4.6668,4.6279,4.618,4.6147,4.5743,4.5451,4.5338,4.5014,4.4561,4.4059,4.3493,4.2575,4.1815,4.127,4.0935,4.0696,4.0439,4.015,3.9829,3.9405,3.9003,3.8497,3.8078,3.7838,3.7554,3.7045,3.6522,3.5998,3.5938,3.5549,3.5489,3.5489,3.5489,3.5489,3.5489,3.5489,3.5489,3.5489,3.5489,3.5489,3.5489,3.5489,3.5489,3.5489,3.5489,3.5444,3.5444,3.5489,3.5489,3.5325,3.5205,3.4726,3.4262,3.3544,3.3066,3.2931,3.2796,3.2662,3.2348,3.199,3.1722,3.153,3.1191,3.0896,3.0878,3.0681,3.0296,3.0129,3.0178,2.9896,2.9699,2.9574,2.9512,2.9467,2.9517,2.9389,4.4669,4.4861,4.5558,4.5871,4.5846,4.5846,4.5863,4.5846,4.5863,4.5846,4.5795,4.5485,4.531,4.5096,4.4869,4.5235,4.5595,4.5857,4.6514,4.7112,4.7699,4.79,4.7934,4.8001,4.8001,4.8001,4.8001,4.8001,4.8001,4.8001,4.8001,4.7968,4.7853,4.7704,4.7621,4.7487,4.7285,4.7217,4.7132,4.703,4.6929,4.6911,4.6813,4.6568,4.6376,4.6003,4.5776,4.5306,4.4626,4.3749,4.2861,4.1982,4.1343,4.0957,4.0662,4.0455,4.0156,4.0001,3.9834,3.9489,3.9047,3.8691,3.8571,3.8242,3.7719,3.7285,3.6761,3.6327,3.5953,3.5684,3.5684,3.5534,3.5534,3.5489,3.5489,3.5489,3.5489,3.5489,3.5489,3.5489,3.5489,3.5489,3.5489,3.5489,3.5489,3.5489,3.5489,3.5489,3.5474,3.54,3.5145,3.4876,3.4457,3.4053,3.3709,3.3395,3.3215,3.302,3.2646,3.2214,3.1871,3.1916,3.1781,3.1484,3.1229,3.1076,3.0892,3.0912,3.0511,3.0213,3.0361,3.0464,3.0305,3.0359,3.0359,4.4536,4.5078,4.5936,4.6211,4.6105,4.6105,4.6122,4.6122,4.6097,4.6105,4.6048,4.5922,4.5701,4.5345,4.5292,4.5576,4.6085,4.6422,4.6828,4.7381,4.796,4.8048,4.8017,4.8001,4.8001,4.8001,4.8001,4.8001,4.8001,4.8001,4.8001,4.8001,4.8001,4.7853,4.7704,4.7588,4.7521,4.742,4.7352,4.7319,4.7251,4.7132,4.6911,4.688,4.695,4.6785,4.659,4.6138,4.5695,4.481,4.3441,4.2412,4.171,4.1136,4.0793,4.0578,4.0314,4.0046,3.9869,3.9604,3.9176,3.9119,3.9005,3.8841,3.8437,3.8197,3.7704,3.7255,3.6866,3.6447,3.6282,3.5789,3.5639,3.5534,3.5489,3.5489,3.5489,3.5489,3.5489,3.5489,3.5489,3.5489,3.5489,3.5489,3.5489,3.5489,3.5489,3.5489,3.5489,3.5489,3.5489,3.531,3.51,3.4831,3.4444,3.3903,3.3664,3.3529,3.338,3.302,3.2855,3.2987,3.2805,3.2328,3.2324,3.2317,3.2132,3.1683,3.1639,3.1452,3.1554,3.1614,3.132,3.1222,3.1251]}]]